<?xml version="1.0" encoding="UTF-8" standalone="no" ?>
<gpx xmlns="http://www.topografix.com/GPX/1/1" xmlns:xsi="http://www.w3.org/2001/XMLSchema-instance" xsi:schemaLocation="http://www.topografix.com/GPX/1/1 http://www.topografix.com/GPX/1/1/gpx.xsd" version="1.1" creator="VisuGPX - https://www.visugpx.com">
  <metadata>
    <name>circulaire au départ de Théding</name>
    <desc><![CDATA[à éviter en cas d\'intempéries]]></desc>
  </metadata>
  <trk>
    <name><![CDATA[2013-10-23-01]]></name>
    <trkseg>
      <trkpt lat="49.12942" lon="6.89434">
        <ele>306.7</ele>
        <time>2013-10-23T06:32:38Z</time>
      </trkpt>
      <trkpt lat="49.12942" lon="6.89434">
        <ele>306.7</ele>
        <time>2013-10-23T06:32:39Z</time>
      </trkpt>
      <trkpt lat="49.1294" lon="6.89433">
        <ele>306.5</ele>
        <time>2013-10-23T06:32:44Z</time>
      </trkpt>
      <trkpt lat="49.12937" lon="6.89432">
        <ele>306.5</ele>
        <time>2013-10-23T06:32:49Z</time>
      </trkpt>
      <trkpt lat="49.12934" lon="6.8943">
        <ele>306.2</ele>
        <time>2013-10-23T06:32:54Z</time>
      </trkpt>
      <trkpt lat="49.12932" lon="6.89429">
        <ele>306.8</ele>
        <time>2013-10-23T06:32:59Z</time>
      </trkpt>
      <trkpt lat="49.12932" lon="6.89429">
        <ele>306</ele>
        <time>2013-10-23T06:33:04Z</time>
      </trkpt>
      <trkpt lat="49.12931" lon="6.89428">
        <ele>305.8</ele>
        <time>2013-10-23T06:33:09Z</time>
      </trkpt>
      <trkpt lat="49.12928" lon="6.89428">
        <ele>305.9</ele>
        <time>2013-10-23T06:33:14Z</time>
      </trkpt>
      <trkpt lat="49.12926" lon="6.89426">
        <ele>305.7</ele>
        <time>2013-10-23T06:33:19Z</time>
      </trkpt>
      <trkpt lat="49.12925" lon="6.89425">
        <ele>306</ele>
        <time>2013-10-23T06:33:24Z</time>
      </trkpt>
      <trkpt lat="49.12925" lon="6.89424">
        <ele>306.1</ele>
        <time>2013-10-23T06:33:29Z</time>
      </trkpt>
      <trkpt lat="49.12926" lon="6.89424">
        <ele>307</ele>
        <time>2013-10-23T06:33:34Z</time>
      </trkpt>
      <trkpt lat="49.12926" lon="6.89424">
        <ele>306.7</ele>
        <time>2013-10-23T06:33:39Z</time>
      </trkpt>
      <trkpt lat="49.12923" lon="6.89422">
        <ele>305.7</ele>
        <time>2013-10-23T06:33:44Z</time>
      </trkpt>
      <trkpt lat="49.12919" lon="6.8942">
        <ele>306.6</ele>
        <time>2013-10-23T06:33:49Z</time>
      </trkpt>
      <trkpt lat="49.12918" lon="6.8942">
        <ele>306.9</ele>
        <time>2013-10-23T06:33:54Z</time>
      </trkpt>
      <trkpt lat="49.12917" lon="6.89419">
        <ele>306.2</ele>
        <time>2013-10-23T06:33:59Z</time>
      </trkpt>
      <trkpt lat="49.12919" lon="6.89418">
        <ele>306.6</ele>
        <time>2013-10-23T06:34:04Z</time>
      </trkpt>
      <trkpt lat="49.12923" lon="6.8942">
        <ele>306</ele>
        <time>2013-10-23T06:34:09Z</time>
      </trkpt>
      <trkpt lat="49.12927" lon="6.89422">
        <ele>306.8</ele>
        <time>2013-10-23T06:34:14Z</time>
      </trkpt>
      <trkpt lat="49.12928" lon="6.89422">
        <ele>305.9</ele>
        <time>2013-10-23T06:34:19Z</time>
      </trkpt>
      <trkpt lat="49.1293" lon="6.89421">
        <ele>306.8</ele>
        <time>2013-10-23T06:34:24Z</time>
      </trkpt>
      <trkpt lat="49.1293" lon="6.89421">
        <ele>306.5</ele>
        <time>2013-10-23T06:34:29Z</time>
      </trkpt>
      <trkpt lat="49.12927" lon="6.89418">
        <ele>306.4</ele>
        <time>2013-10-23T06:34:34Z</time>
      </trkpt>
      <trkpt lat="49.12926" lon="6.89416">
        <ele>306.6</ele>
        <time>2013-10-23T06:34:39Z</time>
      </trkpt>
      <trkpt lat="49.12928" lon="6.89417">
        <ele>306.6</ele>
        <time>2013-10-23T06:34:44Z</time>
      </trkpt>
      <trkpt lat="49.12928" lon="6.89416">
        <ele>305.9</ele>
        <time>2013-10-23T06:34:49Z</time>
      </trkpt>
      <trkpt lat="49.12926" lon="6.89415">
        <ele>306.5</ele>
        <time>2013-10-23T06:34:54Z</time>
      </trkpt>
      <trkpt lat="49.12925" lon="6.89412">
        <ele>306.6</ele>
        <time>2013-10-23T06:34:59Z</time>
      </trkpt>
      <trkpt lat="49.12924" lon="6.89409">
        <ele>306.9</ele>
        <time>2013-10-23T06:35:04Z</time>
      </trkpt>
      <trkpt lat="49.12926" lon="6.89405">
        <ele>306.5</ele>
        <time>2013-10-23T06:35:09Z</time>
      </trkpt>
      <trkpt lat="49.12927" lon="6.89397">
        <ele>307.3</ele>
        <time>2013-10-23T06:35:14Z</time>
      </trkpt>
      <trkpt lat="49.12929" lon="6.89389">
        <ele>307</ele>
        <time>2013-10-23T06:35:19Z</time>
      </trkpt>
      <trkpt lat="49.1293" lon="6.89383">
        <ele>306.2</ele>
        <time>2013-10-23T06:35:24Z</time>
      </trkpt>
      <trkpt lat="49.1293" lon="6.89375">
        <ele>306.7</ele>
        <time>2013-10-23T06:35:29Z</time>
      </trkpt>
      <trkpt lat="49.12931" lon="6.89368">
        <ele>307</ele>
        <time>2013-10-23T06:35:34Z</time>
      </trkpt>
      <trkpt lat="49.12932" lon="6.89361">
        <ele>306.8</ele>
        <time>2013-10-23T06:35:39Z</time>
      </trkpt>
      <trkpt lat="49.12935" lon="6.89355">
        <ele>305.9</ele>
        <time>2013-10-23T06:35:44Z</time>
      </trkpt>
      <trkpt lat="49.1294" lon="6.89349">
        <ele>306.6</ele>
        <time>2013-10-23T06:35:49Z</time>
      </trkpt>
      <trkpt lat="49.12944" lon="6.89342">
        <ele>306.9</ele>
        <time>2013-10-23T06:35:54Z</time>
      </trkpt>
      <trkpt lat="49.12953" lon="6.89329">
        <ele>307</ele>
        <time>2013-10-23T06:36:04Z</time>
      </trkpt>
      <trkpt lat="49.12957" lon="6.89321">
        <ele>305.8</ele>
        <time>2013-10-23T06:36:09Z</time>
      </trkpt>
      <trkpt lat="49.12962" lon="6.89316">
        <ele>305.8</ele>
        <time>2013-10-23T06:36:14Z</time>
      </trkpt>
      <trkpt lat="49.12962" lon="6.89311">
        <ele>305.8</ele>
        <time>2013-10-23T06:36:19Z</time>
      </trkpt>
      <trkpt lat="49.12964" lon="6.89303">
        <ele>306.1</ele>
        <time>2013-10-23T06:36:24Z</time>
      </trkpt>
      <trkpt lat="49.12965" lon="6.89298">
        <ele>306.7</ele>
        <time>2013-10-23T06:36:29Z</time>
      </trkpt>
      <trkpt lat="49.12969" lon="6.89291">
        <ele>306.3</ele>
        <time>2013-10-23T06:36:34Z</time>
      </trkpt>
      <trkpt lat="49.12971" lon="6.89283">
        <ele>307.1</ele>
        <time>2013-10-23T06:36:39Z</time>
      </trkpt>
      <trkpt lat="49.12972" lon="6.89273">
        <ele>307.7</ele>
        <time>2013-10-23T06:36:44Z</time>
      </trkpt>
      <trkpt lat="49.12974" lon="6.89267">
        <ele>307.7</ele>
        <time>2013-10-23T06:36:49Z</time>
      </trkpt>
      <trkpt lat="49.12979" lon="6.89257">
        <ele>306.4</ele>
        <time>2013-10-23T06:36:54Z</time>
      </trkpt>
      <trkpt lat="49.12984" lon="6.89246">
        <ele>306.3</ele>
        <time>2013-10-23T06:36:59Z</time>
      </trkpt>
      <trkpt lat="49.12991" lon="6.89229">
        <ele>306.7</ele>
        <time>2013-10-23T06:37:09Z</time>
      </trkpt>
      <trkpt lat="49.12995" lon="6.89221">
        <ele>306.4</ele>
        <time>2013-10-23T06:37:14Z</time>
      </trkpt>
      <trkpt lat="49.12999" lon="6.89213">
        <ele>306.2</ele>
        <time>2013-10-23T06:37:19Z</time>
      </trkpt>
      <trkpt lat="49.13002" lon="6.89207">
        <ele>306.5</ele>
        <time>2013-10-23T06:37:24Z</time>
      </trkpt>
      <trkpt lat="49.13007" lon="6.89198">
        <ele>306</ele>
        <time>2013-10-23T06:37:29Z</time>
      </trkpt>
      <trkpt lat="49.1301" lon="6.8919">
        <ele>306.2</ele>
        <time>2013-10-23T06:37:34Z</time>
      </trkpt>
      <trkpt lat="49.13013" lon="6.89182">
        <ele>306.5</ele>
        <time>2013-10-23T06:37:39Z</time>
      </trkpt>
      <trkpt lat="49.13015" lon="6.89174">
        <ele>306.5</ele>
        <time>2013-10-23T06:37:44Z</time>
      </trkpt>
      <trkpt lat="49.13018" lon="6.89167">
        <ele>306.1</ele>
        <time>2013-10-23T06:37:49Z</time>
      </trkpt>
      <trkpt lat="49.1302" lon="6.89159">
        <ele>306.2</ele>
        <time>2013-10-23T06:37:54Z</time>
      </trkpt>
      <trkpt lat="49.13022" lon="6.8915">
        <ele>306.4</ele>
        <time>2013-10-23T06:37:59Z</time>
      </trkpt>
      <trkpt lat="49.13025" lon="6.89141">
        <ele>305.6</ele>
        <time>2013-10-23T06:38:04Z</time>
      </trkpt>
      <trkpt lat="49.13029" lon="6.89125">
        <ele>305.5</ele>
        <time>2013-10-23T06:38:14Z</time>
      </trkpt>
      <trkpt lat="49.1303" lon="6.89116">
        <ele>305.3</ele>
        <time>2013-10-23T06:38:19Z</time>
      </trkpt>
      <trkpt lat="49.13034" lon="6.89107">
        <ele>305.2</ele>
        <time>2013-10-23T06:38:24Z</time>
      </trkpt>
      <trkpt lat="49.13039" lon="6.89098">
        <ele>305.2</ele>
        <time>2013-10-23T06:38:29Z</time>
      </trkpt>
      <trkpt lat="49.13044" lon="6.89089">
        <ele>305.4</ele>
        <time>2013-10-23T06:38:34Z</time>
      </trkpt>
      <trkpt lat="49.13047" lon="6.8908">
        <ele>305.2</ele>
        <time>2013-10-23T06:38:39Z</time>
      </trkpt>
      <trkpt lat="49.13052" lon="6.89072">
        <ele>305.4</ele>
        <time>2013-10-23T06:38:44Z</time>
      </trkpt>
      <trkpt lat="49.13055" lon="6.89063">
        <ele>305.5</ele>
        <time>2013-10-23T06:38:49Z</time>
      </trkpt>
      <trkpt lat="49.13059" lon="6.89055">
        <ele>305</ele>
        <time>2013-10-23T06:38:54Z</time>
      </trkpt>
      <trkpt lat="49.13061" lon="6.89046">
        <ele>304.9</ele>
        <time>2013-10-23T06:38:59Z</time>
      </trkpt>
      <trkpt lat="49.13065" lon="6.89038">
        <ele>306.3</ele>
        <time>2013-10-23T06:39:04Z</time>
      </trkpt>
      <trkpt lat="49.1307" lon="6.89033">
        <ele>305.4</ele>
        <time>2013-10-23T06:39:09Z</time>
      </trkpt>
      <trkpt lat="49.1308" lon="6.89028">
        <ele>305.8</ele>
        <time>2013-10-23T06:39:19Z</time>
      </trkpt>
      <trkpt lat="49.13084" lon="6.89026">
        <ele>307.3</ele>
        <time>2013-10-23T06:39:24Z</time>
      </trkpt>
      <trkpt lat="49.13089" lon="6.89024">
        <ele>306.5</ele>
        <time>2013-10-23T06:39:29Z</time>
      </trkpt>
      <trkpt lat="49.13094" lon="6.89023">
        <ele>306.9</ele>
        <time>2013-10-23T06:39:34Z</time>
      </trkpt>
      <trkpt lat="49.131" lon="6.89021">
        <ele>308.5</ele>
        <time>2013-10-23T06:39:39Z</time>
      </trkpt>
      <trkpt lat="49.13106" lon="6.89021">
        <ele>309</ele>
        <time>2013-10-23T06:39:44Z</time>
      </trkpt>
      <trkpt lat="49.13113" lon="6.8902">
        <ele>309.4</ele>
        <time>2013-10-23T06:39:49Z</time>
      </trkpt>
      <trkpt lat="49.1312" lon="6.89018">
        <ele>310.4</ele>
        <time>2013-10-23T06:39:54Z</time>
      </trkpt>
      <trkpt lat="49.13127" lon="6.89015">
        <ele>310.4</ele>
        <time>2013-10-23T06:39:59Z</time>
      </trkpt>
      <trkpt lat="49.13133" lon="6.89013">
        <ele>310.7</ele>
        <time>2013-10-23T06:40:04Z</time>
      </trkpt>
      <trkpt lat="49.1314" lon="6.8901">
        <ele>311.1</ele>
        <time>2013-10-23T06:40:09Z</time>
      </trkpt>
      <trkpt lat="49.13146" lon="6.89008">
        <ele>311.5</ele>
        <time>2013-10-23T06:40:14Z</time>
      </trkpt>
      <trkpt lat="49.13159" lon="6.89003">
        <ele>312.5</ele>
        <time>2013-10-23T06:40:24Z</time>
      </trkpt>
      <trkpt lat="49.13165" lon="6.89001">
        <ele>312.9</ele>
        <time>2013-10-23T06:40:29Z</time>
      </trkpt>
      <trkpt lat="49.13171" lon="6.88998">
        <ele>313.7</ele>
        <time>2013-10-23T06:40:34Z</time>
      </trkpt>
      <trkpt lat="49.13177" lon="6.88998">
        <ele>313.6</ele>
        <time>2013-10-23T06:40:39Z</time>
      </trkpt>
      <trkpt lat="49.13183" lon="6.88996">
        <ele>313.9</ele>
        <time>2013-10-23T06:40:44Z</time>
      </trkpt>
      <trkpt lat="49.13187" lon="6.88992">
        <ele>314.7</ele>
        <time>2013-10-23T06:40:49Z</time>
      </trkpt>
      <trkpt lat="49.13192" lon="6.88988">
        <ele>314.8</ele>
        <time>2013-10-23T06:40:54Z</time>
      </trkpt>
      <trkpt lat="49.13199" lon="6.88983">
        <ele>315.4</ele>
        <time>2013-10-23T06:40:59Z</time>
      </trkpt>
      <trkpt lat="49.13205" lon="6.88977">
        <ele>315.5</ele>
        <time>2013-10-23T06:41:04Z</time>
      </trkpt>
      <trkpt lat="49.1321" lon="6.88973">
        <ele>315.5</ele>
        <time>2013-10-23T06:41:09Z</time>
      </trkpt>
      <trkpt lat="49.13216" lon="6.8897">
        <ele>316.1</ele>
        <time>2013-10-23T06:41:14Z</time>
      </trkpt>
      <trkpt lat="49.13222" lon="6.88967">
        <ele>317.1</ele>
        <time>2013-10-23T06:41:19Z</time>
      </trkpt>
      <trkpt lat="49.13233" lon="6.88962">
        <ele>318.2</ele>
        <time>2013-10-23T06:41:29Z</time>
      </trkpt>
      <trkpt lat="49.1324" lon="6.8896">
        <ele>318.8</ele>
        <time>2013-10-23T06:41:34Z</time>
      </trkpt>
      <trkpt lat="49.13248" lon="6.88956">
        <ele>319</ele>
        <time>2013-10-23T06:41:39Z</time>
      </trkpt>
      <trkpt lat="49.13254" lon="6.88953">
        <ele>320.1</ele>
        <time>2013-10-23T06:41:44Z</time>
      </trkpt>
      <trkpt lat="49.13258" lon="6.88952">
        <ele>320</ele>
        <time>2013-10-23T06:41:49Z</time>
      </trkpt>
      <trkpt lat="49.13261" lon="6.8895">
        <ele>320.4</ele>
        <time>2013-10-23T06:41:54Z</time>
      </trkpt>
      <trkpt lat="49.13266" lon="6.88949">
        <ele>320.9</ele>
        <time>2013-10-23T06:41:59Z</time>
      </trkpt>
      <trkpt lat="49.13272" lon="6.88947">
        <ele>321.2</ele>
        <time>2013-10-23T06:42:04Z</time>
      </trkpt>
      <trkpt lat="49.13276" lon="6.88946">
        <ele>322.2</ele>
        <time>2013-10-23T06:42:09Z</time>
      </trkpt>
      <trkpt lat="49.1328" lon="6.88945">
        <ele>322.3</ele>
        <time>2013-10-23T06:42:14Z</time>
      </trkpt>
      <trkpt lat="49.13285" lon="6.88941">
        <ele>322.8</ele>
        <time>2013-10-23T06:42:19Z</time>
      </trkpt>
      <trkpt lat="49.13291" lon="6.88939">
        <ele>323.2</ele>
        <time>2013-10-23T06:42:24Z</time>
      </trkpt>
      <trkpt lat="49.13302" lon="6.88932">
        <ele>324</ele>
        <time>2013-10-23T06:42:34Z</time>
      </trkpt>
      <trkpt lat="49.13309" lon="6.88927">
        <ele>324.8</ele>
        <time>2013-10-23T06:42:39Z</time>
      </trkpt>
      <trkpt lat="49.13314" lon="6.88921">
        <ele>324.7</ele>
        <time>2013-10-23T06:42:44Z</time>
      </trkpt>
      <trkpt lat="49.13322" lon="6.88916">
        <ele>325.7</ele>
        <time>2013-10-23T06:42:49Z</time>
      </trkpt>
      <trkpt lat="49.13327" lon="6.8891">
        <ele>325.6</ele>
        <time>2013-10-23T06:42:54Z</time>
      </trkpt>
      <trkpt lat="49.13333" lon="6.88903">
        <ele>325.9</ele>
        <time>2013-10-23T06:42:59Z</time>
      </trkpt>
      <trkpt lat="49.13336" lon="6.88898">
        <ele>327.5</ele>
        <time>2013-10-23T06:43:04Z</time>
      </trkpt>
      <trkpt lat="49.13337" lon="6.88896">
        <ele>328</ele>
        <time>2013-10-23T06:43:09Z</time>
      </trkpt>
      <trkpt lat="49.13338" lon="6.88894">
        <ele>327.3</ele>
        <time>2013-10-23T06:43:14Z</time>
      </trkpt>
      <trkpt lat="49.13341" lon="6.88889">
        <ele>326.7</ele>
        <time>2013-10-23T06:43:19Z</time>
      </trkpt>
      <trkpt lat="49.13345" lon="6.88884">
        <ele>327.8</ele>
        <time>2013-10-23T06:43:24Z</time>
      </trkpt>
      <trkpt lat="49.13351" lon="6.8888">
        <ele>328.1</ele>
        <time>2013-10-23T06:43:29Z</time>
      </trkpt>
      <trkpt lat="49.13361" lon="6.8887">
        <ele>329.7</ele>
        <time>2013-10-23T06:43:39Z</time>
      </trkpt>
      <trkpt lat="49.13365" lon="6.88866">
        <ele>330.3</ele>
        <time>2013-10-23T06:43:44Z</time>
      </trkpt>
      <trkpt lat="49.13368" lon="6.88861">
        <ele>330.7</ele>
        <time>2013-10-23T06:43:49Z</time>
      </trkpt>
      <trkpt lat="49.13372" lon="6.88856">
        <ele>330.3</ele>
        <time>2013-10-23T06:43:54Z</time>
      </trkpt>
      <trkpt lat="49.13377" lon="6.88852">
        <ele>331.5</ele>
        <time>2013-10-23T06:43:59Z</time>
      </trkpt>
      <trkpt lat="49.13383" lon="6.88848">
        <ele>332.4</ele>
        <time>2013-10-23T06:44:04Z</time>
      </trkpt>
      <trkpt lat="49.13388" lon="6.88843">
        <ele>332.1</ele>
        <time>2013-10-23T06:44:09Z</time>
      </trkpt>
      <trkpt lat="49.13393" lon="6.88839">
        <ele>332.7</ele>
        <time>2013-10-23T06:44:14Z</time>
      </trkpt>
      <trkpt lat="49.13398" lon="6.88835">
        <ele>333.5</ele>
        <time>2013-10-23T06:44:19Z</time>
      </trkpt>
      <trkpt lat="49.13405" lon="6.88831">
        <ele>334.3</ele>
        <time>2013-10-23T06:44:24Z</time>
      </trkpt>
      <trkpt lat="49.1341" lon="6.88826">
        <ele>334</ele>
        <time>2013-10-23T06:44:29Z</time>
      </trkpt>
      <trkpt lat="49.13416" lon="6.88822">
        <ele>335</ele>
        <time>2013-10-23T06:44:34Z</time>
      </trkpt>
      <trkpt lat="49.13425" lon="6.88817">
        <ele>336</ele>
        <time>2013-10-23T06:44:44Z</time>
      </trkpt>
      <trkpt lat="49.13429" lon="6.88813">
        <ele>336.7</ele>
        <time>2013-10-23T06:44:49Z</time>
      </trkpt>
      <trkpt lat="49.13434" lon="6.88809">
        <ele>336.8</ele>
        <time>2013-10-23T06:44:54Z</time>
      </trkpt>
      <trkpt lat="49.13439" lon="6.88807">
        <ele>337</ele>
        <time>2013-10-23T06:44:59Z</time>
      </trkpt>
      <trkpt lat="49.13444" lon="6.88804">
        <ele>338</ele>
        <time>2013-10-23T06:45:04Z</time>
      </trkpt>
      <trkpt lat="49.13449" lon="6.88801">
        <ele>338.5</ele>
        <time>2013-10-23T06:45:09Z</time>
      </trkpt>
      <trkpt lat="49.13452" lon="6.88799">
        <ele>339</ele>
        <time>2013-10-23T06:45:14Z</time>
      </trkpt>
      <trkpt lat="49.13452" lon="6.88798">
        <ele>339.7</ele>
        <time>2013-10-23T06:45:19Z</time>
      </trkpt>
      <trkpt lat="49.13453" lon="6.88797">
        <ele>339.6</ele>
        <time>2013-10-23T06:45:24Z</time>
      </trkpt>
      <trkpt lat="49.13454" lon="6.88797">
        <ele>340.4</ele>
        <time>2013-10-23T06:45:29Z</time>
      </trkpt>
      <trkpt lat="49.13454" lon="6.88796">
        <ele>340.1</ele>
        <time>2013-10-23T06:45:34Z</time>
      </trkpt>
      <trkpt lat="49.13455" lon="6.88795">
        <ele>339.7</ele>
        <time>2013-10-23T06:45:39Z</time>
      </trkpt>
      <trkpt lat="49.13456" lon="6.88793">
        <ele>338.9</ele>
        <time>2013-10-23T06:45:49Z</time>
      </trkpt>
      <trkpt lat="49.13457" lon="6.88792">
        <ele>338.7</ele>
        <time>2013-10-23T06:45:54Z</time>
      </trkpt>
      <trkpt lat="49.13458" lon="6.88792">
        <ele>339.6</ele>
        <time>2013-10-23T06:45:59Z</time>
      </trkpt>
      <trkpt lat="49.13461" lon="6.88789">
        <ele>340.5</ele>
        <time>2013-10-23T06:46:04Z</time>
      </trkpt>
      <trkpt lat="49.13463" lon="6.88788">
        <ele>340.7</ele>
        <time>2013-10-23T06:46:09Z</time>
      </trkpt>
      <trkpt lat="49.13464" lon="6.88788">
        <ele>340.5</ele>
        <time>2013-10-23T06:46:14Z</time>
      </trkpt>
      <trkpt lat="49.13467" lon="6.88783">
        <ele>341.4</ele>
        <time>2013-10-23T06:46:19Z</time>
      </trkpt>
      <trkpt lat="49.1347" lon="6.88782">
        <ele>341.3</ele>
        <time>2013-10-23T06:46:24Z</time>
      </trkpt>
      <trkpt lat="49.13473" lon="6.88778">
        <ele>342.3</ele>
        <time>2013-10-23T06:46:29Z</time>
      </trkpt>
      <trkpt lat="49.13477" lon="6.88776">
        <ele>342.9</ele>
        <time>2013-10-23T06:46:34Z</time>
      </trkpt>
      <trkpt lat="49.13483" lon="6.88773">
        <ele>343.5</ele>
        <time>2013-10-23T06:46:39Z</time>
      </trkpt>
      <trkpt lat="49.13488" lon="6.88769">
        <ele>344.2</ele>
        <time>2013-10-23T06:46:44Z</time>
      </trkpt>
      <trkpt lat="49.135" lon="6.88764">
        <ele>344.6</ele>
        <time>2013-10-23T06:46:54Z</time>
      </trkpt>
      <trkpt lat="49.13505" lon="6.8876">
        <ele>344.6</ele>
        <time>2013-10-23T06:46:59Z</time>
      </trkpt>
      <trkpt lat="49.1351" lon="6.88754">
        <ele>345.1</ele>
        <time>2013-10-23T06:47:04Z</time>
      </trkpt>
      <trkpt lat="49.13511" lon="6.88753">
        <ele>345.9</ele>
        <time>2013-10-23T06:47:09Z</time>
      </trkpt>
      <trkpt lat="49.13513" lon="6.88749">
        <ele>346.8</ele>
        <time>2013-10-23T06:47:14Z</time>
      </trkpt>
      <trkpt lat="49.13518" lon="6.88746">
        <ele>346.4</ele>
        <time>2013-10-23T06:47:19Z</time>
      </trkpt>
      <trkpt lat="49.1352" lon="6.88742">
        <ele>347.4</ele>
        <time>2013-10-23T06:47:24Z</time>
      </trkpt>
      <trkpt lat="49.13525" lon="6.88735">
        <ele>347.3</ele>
        <time>2013-10-23T06:47:29Z</time>
      </trkpt>
      <trkpt lat="49.13529" lon="6.88729">
        <ele>348.2</ele>
        <time>2013-10-23T06:47:34Z</time>
      </trkpt>
      <trkpt lat="49.13533" lon="6.88723">
        <ele>348.1</ele>
        <time>2013-10-23T06:47:39Z</time>
      </trkpt>
      <trkpt lat="49.13537" lon="6.88718">
        <ele>348.7</ele>
        <time>2013-10-23T06:47:44Z</time>
      </trkpt>
      <trkpt lat="49.13541" lon="6.8871">
        <ele>349.4</ele>
        <time>2013-10-23T06:47:49Z</time>
      </trkpt>
      <trkpt lat="49.13549" lon="6.88698">
        <ele>350.5</ele>
        <time>2013-10-23T06:47:59Z</time>
      </trkpt>
      <trkpt lat="49.13552" lon="6.88692">
        <ele>350.9</ele>
        <time>2013-10-23T06:48:04Z</time>
      </trkpt>
      <trkpt lat="49.13558" lon="6.88686">
        <ele>351.5</ele>
        <time>2013-10-23T06:48:09Z</time>
      </trkpt>
      <trkpt lat="49.13563" lon="6.8868">
        <ele>352.2</ele>
        <time>2013-10-23T06:48:14Z</time>
      </trkpt>
      <trkpt lat="49.13566" lon="6.88672">
        <ele>352.5</ele>
        <time>2013-10-23T06:48:19Z</time>
      </trkpt>
      <trkpt lat="49.13571" lon="6.88665">
        <ele>353.2</ele>
        <time>2013-10-23T06:48:24Z</time>
      </trkpt>
      <trkpt lat="49.13574" lon="6.88658">
        <ele>354.4</ele>
        <time>2013-10-23T06:48:29Z</time>
      </trkpt>
      <trkpt lat="49.13578" lon="6.8865">
        <ele>354.8</ele>
        <time>2013-10-23T06:48:34Z</time>
      </trkpt>
      <trkpt lat="49.13582" lon="6.88643">
        <ele>354.5</ele>
        <time>2013-10-23T06:48:39Z</time>
      </trkpt>
      <trkpt lat="49.13586" lon="6.88635">
        <ele>354.8</ele>
        <time>2013-10-23T06:48:44Z</time>
      </trkpt>
      <trkpt lat="49.13591" lon="6.88628">
        <ele>354.8</ele>
        <time>2013-10-23T06:48:49Z</time>
      </trkpt>
      <trkpt lat="49.13595" lon="6.88622">
        <ele>356.1</ele>
        <time>2013-10-23T06:48:54Z</time>
      </trkpt>
      <trkpt lat="49.13606" lon="6.88609">
        <ele>356.9</ele>
        <time>2013-10-23T06:49:04Z</time>
      </trkpt>
      <trkpt lat="49.1361" lon="6.88602">
        <ele>356.8</ele>
        <time>2013-10-23T06:49:09Z</time>
      </trkpt>
      <trkpt lat="49.13614" lon="6.88597">
        <ele>357.5</ele>
        <time>2013-10-23T06:49:14Z</time>
      </trkpt>
      <trkpt lat="49.13619" lon="6.88597">
        <ele>357.1</ele>
        <time>2013-10-23T06:49:19Z</time>
      </trkpt>
      <trkpt lat="49.13625" lon="6.88598">
        <ele>357.5</ele>
        <time>2013-10-23T06:49:24Z</time>
      </trkpt>
      <trkpt lat="49.13632" lon="6.88602">
        <ele>359.1</ele>
        <time>2013-10-23T06:49:29Z</time>
      </trkpt>
      <trkpt lat="49.13637" lon="6.88606">
        <ele>359.6</ele>
        <time>2013-10-23T06:49:34Z</time>
      </trkpt>
      <trkpt lat="49.13641" lon="6.88611">
        <ele>359.7</ele>
        <time>2013-10-23T06:49:39Z</time>
      </trkpt>
      <trkpt lat="49.13646" lon="6.88616">
        <ele>359.8</ele>
        <time>2013-10-23T06:49:44Z</time>
      </trkpt>
      <trkpt lat="49.13651" lon="6.8862">
        <ele>361</ele>
        <time>2013-10-23T06:49:49Z</time>
      </trkpt>
      <trkpt lat="49.13655" lon="6.88625">
        <ele>361.7</ele>
        <time>2013-10-23T06:49:54Z</time>
      </trkpt>
      <trkpt lat="49.1366" lon="6.88629">
        <ele>361.5</ele>
        <time>2013-10-23T06:49:59Z</time>
      </trkpt>
      <trkpt lat="49.13668" lon="6.88639">
        <ele>363</ele>
        <time>2013-10-23T06:50:09Z</time>
      </trkpt>
      <trkpt lat="49.13674" lon="6.88645">
        <ele>363.3</ele>
        <time>2013-10-23T06:50:14Z</time>
      </trkpt>
      <trkpt lat="49.13681" lon="6.8865">
        <ele>363.9</ele>
        <time>2013-10-23T06:50:19Z</time>
      </trkpt>
      <trkpt lat="49.13687" lon="6.88655">
        <ele>364.8</ele>
        <time>2013-10-23T06:50:24Z</time>
      </trkpt>
      <trkpt lat="49.13693" lon="6.88657">
        <ele>365.4</ele>
        <time>2013-10-23T06:50:29Z</time>
      </trkpt>
      <trkpt lat="49.137" lon="6.88655">
        <ele>365.8</ele>
        <time>2013-10-23T06:50:34Z</time>
      </trkpt>
      <trkpt lat="49.13702" lon="6.88651">
        <ele>366.6</ele>
        <time>2013-10-23T06:50:39Z</time>
      </trkpt>
      <trkpt lat="49.13708" lon="6.88646">
        <ele>366.4</ele>
        <time>2013-10-23T06:50:44Z</time>
      </trkpt>
      <trkpt lat="49.13714" lon="6.8864">
        <ele>366.7</ele>
        <time>2013-10-23T06:50:49Z</time>
      </trkpt>
      <trkpt lat="49.13719" lon="6.88635">
        <ele>367.9</ele>
        <time>2013-10-23T06:50:54Z</time>
      </trkpt>
      <trkpt lat="49.13724" lon="6.8863">
        <ele>367.8</ele>
        <time>2013-10-23T06:50:59Z</time>
      </trkpt>
      <trkpt lat="49.13729" lon="6.88623">
        <ele>367.4</ele>
        <time>2013-10-23T06:51:04Z</time>
      </trkpt>
      <trkpt lat="49.1374" lon="6.88619">
        <ele>368.9</ele>
        <time>2013-10-23T06:51:14Z</time>
      </trkpt>
      <trkpt lat="49.13745" lon="6.88622">
        <ele>370</ele>
        <time>2013-10-23T06:51:19Z</time>
      </trkpt>
      <trkpt lat="49.13751" lon="6.88624">
        <ele>369.4</ele>
        <time>2013-10-23T06:51:24Z</time>
      </trkpt>
      <trkpt lat="49.13755" lon="6.88627">
        <ele>369</ele>
        <time>2013-10-23T06:51:29Z</time>
      </trkpt>
      <trkpt lat="49.13761" lon="6.88629">
        <ele>370.3</ele>
        <time>2013-10-23T06:51:34Z</time>
      </trkpt>
      <trkpt lat="49.13766" lon="6.88631">
        <ele>371.1</ele>
        <time>2013-10-23T06:51:39Z</time>
      </trkpt>
      <trkpt lat="49.1377" lon="6.88634">
        <ele>370.5</ele>
        <time>2013-10-23T06:51:44Z</time>
      </trkpt>
      <trkpt lat="49.13776" lon="6.88637">
        <ele>371.6</ele>
        <time>2013-10-23T06:51:49Z</time>
      </trkpt>
      <trkpt lat="49.13781" lon="6.88641">
        <ele>372.1</ele>
        <time>2013-10-23T06:51:54Z</time>
      </trkpt>
      <trkpt lat="49.13788" lon="6.88645">
        <ele>372.1</ele>
        <time>2013-10-23T06:51:59Z</time>
      </trkpt>
      <trkpt lat="49.13794" lon="6.88647">
        <ele>372.6</ele>
        <time>2013-10-23T06:52:04Z</time>
      </trkpt>
      <trkpt lat="49.13801" lon="6.88649">
        <ele>373.1</ele>
        <time>2013-10-23T06:52:09Z</time>
      </trkpt>
      <trkpt lat="49.13812" lon="6.88656">
        <ele>373.7</ele>
        <time>2013-10-23T06:52:19Z</time>
      </trkpt>
      <trkpt lat="49.13818" lon="6.88658">
        <ele>373.5</ele>
        <time>2013-10-23T06:52:24Z</time>
      </trkpt>
      <trkpt lat="49.13825" lon="6.88661">
        <ele>374.5</ele>
        <time>2013-10-23T06:52:29Z</time>
      </trkpt>
      <trkpt lat="49.13832" lon="6.88662">
        <ele>374.7</ele>
        <time>2013-10-23T06:52:34Z</time>
      </trkpt>
      <trkpt lat="49.13837" lon="6.88666">
        <ele>374.8</ele>
        <time>2013-10-23T06:52:39Z</time>
      </trkpt>
      <trkpt lat="49.13843" lon="6.8867">
        <ele>375.9</ele>
        <time>2013-10-23T06:52:44Z</time>
      </trkpt>
      <trkpt lat="49.1385" lon="6.88673">
        <ele>376.5</ele>
        <time>2013-10-23T06:52:49Z</time>
      </trkpt>
      <trkpt lat="49.13854" lon="6.88677">
        <ele>376.9</ele>
        <time>2013-10-23T06:52:54Z</time>
      </trkpt>
      <trkpt lat="49.13857" lon="6.8868">
        <ele>378.3</ele>
        <time>2013-10-23T06:52:59Z</time>
      </trkpt>
      <trkpt lat="49.13863" lon="6.88684">
        <ele>378.5</ele>
        <time>2013-10-23T06:53:04Z</time>
      </trkpt>
      <trkpt lat="49.13868" lon="6.88688">
        <ele>378.4</ele>
        <time>2013-10-23T06:53:09Z</time>
      </trkpt>
      <trkpt lat="49.13874" lon="6.88691">
        <ele>378.4</ele>
        <time>2013-10-23T06:53:14Z</time>
      </trkpt>
      <trkpt lat="49.13884" lon="6.88697">
        <ele>380.1</ele>
        <time>2013-10-23T06:53:24Z</time>
      </trkpt>
      <trkpt lat="49.1389" lon="6.88702">
        <ele>380.6</ele>
        <time>2013-10-23T06:53:29Z</time>
      </trkpt>
      <trkpt lat="49.13895" lon="6.88707">
        <ele>380.4</ele>
        <time>2013-10-23T06:53:34Z</time>
      </trkpt>
      <trkpt lat="49.13901" lon="6.88713">
        <ele>380.8</ele>
        <time>2013-10-23T06:53:39Z</time>
      </trkpt>
      <trkpt lat="49.13908" lon="6.88716">
        <ele>380.6</ele>
        <time>2013-10-23T06:53:44Z</time>
      </trkpt>
      <trkpt lat="49.13913" lon="6.88722">
        <ele>381.2</ele>
        <time>2013-10-23T06:53:49Z</time>
      </trkpt>
      <trkpt lat="49.13919" lon="6.88727">
        <ele>381.5</ele>
        <time>2013-10-23T06:53:54Z</time>
      </trkpt>
      <trkpt lat="49.13924" lon="6.8873">
        <ele>381.4</ele>
        <time>2013-10-23T06:53:59Z</time>
      </trkpt>
      <trkpt lat="49.13928" lon="6.88735">
        <ele>381.3</ele>
        <time>2013-10-23T06:54:04Z</time>
      </trkpt>
      <trkpt lat="49.13934" lon="6.88738">
        <ele>382.3</ele>
        <time>2013-10-23T06:54:09Z</time>
      </trkpt>
      <trkpt lat="49.13942" lon="6.88738">
        <ele>382.2</ele>
        <time>2013-10-23T06:54:14Z</time>
      </trkpt>
      <trkpt lat="49.13948" lon="6.88739">
        <ele>382.2</ele>
        <time>2013-10-23T06:54:19Z</time>
      </trkpt>
      <trkpt lat="49.13954" lon="6.88741">
        <ele>383.1</ele>
        <time>2013-10-23T06:54:29Z</time>
      </trkpt>
      <trkpt lat="49.13959" lon="6.88742">
        <ele>382.8</ele>
        <time>2013-10-23T06:54:34Z</time>
      </trkpt>
      <trkpt lat="49.13964" lon="6.88743">
        <ele>382.3</ele>
        <time>2013-10-23T06:54:39Z</time>
      </trkpt>
      <trkpt lat="49.13969" lon="6.88743">
        <ele>381.8</ele>
        <time>2013-10-23T06:54:44Z</time>
      </trkpt>
      <trkpt lat="49.13977" lon="6.88741">
        <ele>382.3</ele>
        <time>2013-10-23T06:54:49Z</time>
      </trkpt>
      <trkpt lat="49.1398" lon="6.88741">
        <ele>383</ele>
        <time>2013-10-23T06:54:54Z</time>
      </trkpt>
      <trkpt lat="49.13975" lon="6.88745">
        <ele>382.3</ele>
        <time>2013-10-23T06:54:59Z</time>
      </trkpt>
      <trkpt lat="49.13973" lon="6.88747">
        <ele>381.9</ele>
        <time>2013-10-23T06:55:04Z</time>
      </trkpt>
      <trkpt lat="49.13975" lon="6.8874">
        <ele>381.7</ele>
        <time>2013-10-23T06:55:09Z</time>
      </trkpt>
      <trkpt lat="49.13977" lon="6.8874">
        <ele>382.2</ele>
        <time>2013-10-23T06:55:14Z</time>
      </trkpt>
      <trkpt lat="49.1398" lon="6.88737">
        <ele>382</ele>
        <time>2013-10-23T06:55:19Z</time>
      </trkpt>
      <trkpt lat="49.13987" lon="6.88735">
        <ele>382</ele>
        <time>2013-10-23T06:55:24Z</time>
      </trkpt>
      <trkpt lat="49.14" lon="6.88732">
        <ele>381.5</ele>
        <time>2013-10-23T06:55:34Z</time>
      </trkpt>
      <trkpt lat="49.14007" lon="6.8873">
        <ele>382.3</ele>
        <time>2013-10-23T06:55:39Z</time>
      </trkpt>
      <trkpt lat="49.14014" lon="6.8873">
        <ele>381.9</ele>
        <time>2013-10-23T06:55:44Z</time>
      </trkpt>
      <trkpt lat="49.1402" lon="6.88729">
        <ele>380.7</ele>
        <time>2013-10-23T06:55:49Z</time>
      </trkpt>
      <trkpt lat="49.14027" lon="6.88729">
        <ele>380.2</ele>
        <time>2013-10-23T06:55:54Z</time>
      </trkpt>
      <trkpt lat="49.14032" lon="6.88731">
        <ele>380</ele>
        <time>2013-10-23T06:55:59Z</time>
      </trkpt>
      <trkpt lat="49.14037" lon="6.88731">
        <ele>379.7</ele>
        <time>2013-10-23T06:56:04Z</time>
      </trkpt>
      <trkpt lat="49.14043" lon="6.88732">
        <ele>379.5</ele>
        <time>2013-10-23T06:56:09Z</time>
      </trkpt>
      <trkpt lat="49.14049" lon="6.88732">
        <ele>379.1</ele>
        <time>2013-10-23T06:56:14Z</time>
      </trkpt>
      <trkpt lat="49.14055" lon="6.88732">
        <ele>378.7</ele>
        <time>2013-10-23T06:56:19Z</time>
      </trkpt>
      <trkpt lat="49.14061" lon="6.88731">
        <ele>378.2</ele>
        <time>2013-10-23T06:56:24Z</time>
      </trkpt>
      <trkpt lat="49.14067" lon="6.88729">
        <ele>377.8</ele>
        <time>2013-10-23T06:56:29Z</time>
      </trkpt>
      <trkpt lat="49.14079" lon="6.88726">
        <ele>376.8</ele>
        <time>2013-10-23T06:56:39Z</time>
      </trkpt>
      <trkpt lat="49.14084" lon="6.88725">
        <ele>376.1</ele>
        <time>2013-10-23T06:56:44Z</time>
      </trkpt>
      <trkpt lat="49.14088" lon="6.88724">
        <ele>374.8</ele>
        <time>2013-10-23T06:56:49Z</time>
      </trkpt>
      <trkpt lat="49.14093" lon="6.88722">
        <ele>373.5</ele>
        <time>2013-10-23T06:56:54Z</time>
      </trkpt>
      <trkpt lat="49.14098" lon="6.88718">
        <ele>373</ele>
        <time>2013-10-23T06:56:59Z</time>
      </trkpt>
      <trkpt lat="49.14103" lon="6.88715">
        <ele>372</ele>
        <time>2013-10-23T06:57:04Z</time>
      </trkpt>
      <trkpt lat="49.14108" lon="6.88717">
        <ele>371.2</ele>
        <time>2013-10-23T06:57:09Z</time>
      </trkpt>
      <trkpt lat="49.14112" lon="6.88718">
        <ele>370.3</ele>
        <time>2013-10-23T06:57:14Z</time>
      </trkpt>
      <trkpt lat="49.14117" lon="6.88718">
        <ele>369.9</ele>
        <time>2013-10-23T06:57:19Z</time>
      </trkpt>
      <trkpt lat="49.1412" lon="6.88722">
        <ele>368.3</ele>
        <time>2013-10-23T06:57:24Z</time>
      </trkpt>
      <trkpt lat="49.14127" lon="6.88726">
        <ele>368.6</ele>
        <time>2013-10-23T06:57:29Z</time>
      </trkpt>
      <trkpt lat="49.14132" lon="6.88726">
        <ele>368.1</ele>
        <time>2013-10-23T06:57:34Z</time>
      </trkpt>
      <trkpt lat="49.14143" lon="6.88729">
        <ele>366.7</ele>
        <time>2013-10-23T06:57:44Z</time>
      </trkpt>
      <trkpt lat="49.14146" lon="6.88733">
        <ele>365.9</ele>
        <time>2013-10-23T06:57:49Z</time>
      </trkpt>
      <trkpt lat="49.14149" lon="6.88732">
        <ele>364.5</ele>
        <time>2013-10-23T06:57:54Z</time>
      </trkpt>
      <trkpt lat="49.14151" lon="6.88731">
        <ele>363</ele>
        <time>2013-10-23T06:57:59Z</time>
      </trkpt>
      <trkpt lat="49.14153" lon="6.88728">
        <ele>362.6</ele>
        <time>2013-10-23T06:58:04Z</time>
      </trkpt>
      <trkpt lat="49.14161" lon="6.88725">
        <ele>362.3</ele>
        <time>2013-10-23T06:58:09Z</time>
      </trkpt>
      <trkpt lat="49.14167" lon="6.88722">
        <ele>361.2</ele>
        <time>2013-10-23T06:58:14Z</time>
      </trkpt>
      <trkpt lat="49.1417" lon="6.88719">
        <ele>359.7</ele>
        <time>2013-10-23T06:58:19Z</time>
      </trkpt>
      <trkpt lat="49.14175" lon="6.88714">
        <ele>359.4</ele>
        <time>2013-10-23T06:58:24Z</time>
      </trkpt>
      <trkpt lat="49.14178" lon="6.8871">
        <ele>358.6</ele>
        <time>2013-10-23T06:58:29Z</time>
      </trkpt>
      <trkpt lat="49.14179" lon="6.88708">
        <ele>358</ele>
        <time>2013-10-23T06:58:34Z</time>
      </trkpt>
      <trkpt lat="49.14179" lon="6.88708">
        <ele>358.2</ele>
        <time>2013-10-23T06:58:39Z</time>
      </trkpt>
      <trkpt lat="49.14176" lon="6.88708">
        <ele>357.1</ele>
        <time>2013-10-23T06:58:49Z</time>
      </trkpt>
      <trkpt lat="49.14176" lon="6.88708">
        <ele>357.2</ele>
        <time>2013-10-23T06:58:54Z</time>
      </trkpt>
      <trkpt lat="49.14176" lon="6.88705">
        <ele>357.5</ele>
        <time>2013-10-23T06:58:59Z</time>
      </trkpt>
      <trkpt lat="49.14177" lon="6.88702">
        <ele>357.8</ele>
        <time>2013-10-23T06:59:04Z</time>
      </trkpt>
      <trkpt lat="49.14179" lon="6.88697">
        <ele>357.5</ele>
        <time>2013-10-23T06:59:09Z</time>
      </trkpt>
      <trkpt lat="49.14182" lon="6.88694">
        <ele>357.3</ele>
        <time>2013-10-23T06:59:14Z</time>
      </trkpt>
      <trkpt lat="49.14184" lon="6.88691">
        <ele>356.9</ele>
        <time>2013-10-23T06:59:19Z</time>
      </trkpt>
      <trkpt lat="49.14184" lon="6.88691">
        <ele>356.7</ele>
        <time>2013-10-23T06:59:24Z</time>
      </trkpt>
      <trkpt lat="49.14183" lon="6.88692">
        <ele>356.9</ele>
        <time>2013-10-23T06:59:29Z</time>
      </trkpt>
      <trkpt lat="49.14185" lon="6.88691">
        <ele>357.1</ele>
        <time>2013-10-23T06:59:34Z</time>
      </trkpt>
      <trkpt lat="49.14186" lon="6.88691">
        <ele>357.2</ele>
        <time>2013-10-23T06:59:39Z</time>
      </trkpt>
      <trkpt lat="49.14186" lon="6.88692">
        <ele>357.3</ele>
        <time>2013-10-23T06:59:44Z</time>
      </trkpt>
      <trkpt lat="49.14189" lon="6.8869">
        <ele>356.9</ele>
        <time>2013-10-23T06:59:54Z</time>
      </trkpt>
      <trkpt lat="49.14192" lon="6.88689">
        <ele>357.1</ele>
        <time>2013-10-23T06:59:59Z</time>
      </trkpt>
      <trkpt lat="49.14193" lon="6.88687">
        <ele>357.8</ele>
        <time>2013-10-23T07:00:04Z</time>
      </trkpt>
      <trkpt lat="49.14192" lon="6.88687">
        <ele>356</ele>
        <time>2013-10-23T07:00:09Z</time>
      </trkpt>
      <trkpt lat="49.14192" lon="6.88684">
        <ele>356.4</ele>
        <time>2013-10-23T07:00:15Z</time>
      </trkpt>
      <trkpt lat="49.14194" lon="6.88683">
        <ele>356.6</ele>
        <time>2013-10-23T07:00:20Z</time>
      </trkpt>
      <trkpt lat="49.14196" lon="6.88683">
        <ele>356.4</ele>
        <time>2013-10-23T07:00:25Z</time>
      </trkpt>
      <trkpt lat="49.14197" lon="6.88684">
        <ele>356.1</ele>
        <time>2013-10-23T07:00:30Z</time>
      </trkpt>
      <trkpt lat="49.14197" lon="6.88684">
        <ele>355.8</ele>
        <time>2013-10-23T07:00:35Z</time>
      </trkpt>
      <trkpt lat="49.14195" lon="6.88685">
        <ele>354.8</ele>
        <time>2013-10-23T07:00:40Z</time>
      </trkpt>
      <trkpt lat="49.14194" lon="6.88686">
        <ele>355.4</ele>
        <time>2013-10-23T07:00:45Z</time>
      </trkpt>
      <trkpt lat="49.14197" lon="6.88682">
        <ele>355.8</ele>
        <time>2013-10-23T07:00:55Z</time>
      </trkpt>
      <trkpt lat="49.142" lon="6.88681">
        <ele>355.9</ele>
        <time>2013-10-23T07:01:00Z</time>
      </trkpt>
      <trkpt lat="49.14204" lon="6.88679">
        <ele>354.5</ele>
        <time>2013-10-23T07:01:05Z</time>
      </trkpt>
      <trkpt lat="49.14208" lon="6.88676">
        <ele>353.8</ele>
        <time>2013-10-23T07:01:10Z</time>
      </trkpt>
      <trkpt lat="49.14212" lon="6.88673">
        <ele>352.7</ele>
        <time>2013-10-23T07:01:15Z</time>
      </trkpt>
      <trkpt lat="49.14216" lon="6.88671">
        <ele>352.7</ele>
        <time>2013-10-23T07:01:20Z</time>
      </trkpt>
      <trkpt lat="49.14218" lon="6.88668">
        <ele>351.6</ele>
        <time>2013-10-23T07:01:25Z</time>
      </trkpt>
      <trkpt lat="49.14222" lon="6.88666">
        <ele>351.6</ele>
        <time>2013-10-23T07:01:30Z</time>
      </trkpt>
      <trkpt lat="49.14225" lon="6.88662">
        <ele>350</ele>
        <time>2013-10-23T07:01:35Z</time>
      </trkpt>
      <trkpt lat="49.1423" lon="6.88658">
        <ele>350.3</ele>
        <time>2013-10-23T07:01:40Z</time>
      </trkpt>
      <trkpt lat="49.14234" lon="6.88653">
        <ele>349.9</ele>
        <time>2013-10-23T07:01:45Z</time>
      </trkpt>
      <trkpt lat="49.14239" lon="6.88648">
        <ele>348.8</ele>
        <time>2013-10-23T07:01:50Z</time>
      </trkpt>
      <trkpt lat="49.14248" lon="6.8864">
        <ele>346.1</ele>
        <time>2013-10-23T07:02:00Z</time>
      </trkpt>
      <trkpt lat="49.14252" lon="6.88636">
        <ele>345.4</ele>
        <time>2013-10-23T07:02:05Z</time>
      </trkpt>
      <trkpt lat="49.14256" lon="6.88632">
        <ele>345.3</ele>
        <time>2013-10-23T07:02:10Z</time>
      </trkpt>
      <trkpt lat="49.14259" lon="6.88629">
        <ele>344.6</ele>
        <time>2013-10-23T07:02:15Z</time>
      </trkpt>
      <trkpt lat="49.14259" lon="6.8863">
        <ele>343.7</ele>
        <time>2013-10-23T07:02:20Z</time>
      </trkpt>
      <trkpt lat="49.14259" lon="6.8863">
        <ele>343.4</ele>
        <time>2013-10-23T07:02:25Z</time>
      </trkpt>
      <trkpt lat="49.14261" lon="6.88628">
        <ele>343.4</ele>
        <time>2013-10-23T07:02:30Z</time>
      </trkpt>
      <trkpt lat="49.14261" lon="6.88626">
        <ele>343</ele>
        <time>2013-10-23T07:02:35Z</time>
      </trkpt>
      <trkpt lat="49.14261" lon="6.88625">
        <ele>343.4</ele>
        <time>2013-10-23T07:02:40Z</time>
      </trkpt>
      <trkpt lat="49.14261" lon="6.88624">
        <ele>343.1</ele>
        <time>2013-10-23T07:02:45Z</time>
      </trkpt>
      <trkpt lat="49.14261" lon="6.88624">
        <ele>342.7</ele>
        <time>2013-10-23T07:02:50Z</time>
      </trkpt>
      <trkpt lat="49.14261" lon="6.88624">
        <ele>343.8</ele>
        <time>2013-10-23T07:02:55Z</time>
      </trkpt>
      <trkpt lat="49.14261" lon="6.88624">
        <ele>343.3</ele>
        <time>2013-10-23T07:03:05Z</time>
      </trkpt>
      <trkpt lat="49.14261" lon="6.88623">
        <ele>343.7</ele>
        <time>2013-10-23T07:03:10Z</time>
      </trkpt>
      <trkpt lat="49.1426" lon="6.88622">
        <ele>343.3</ele>
        <time>2013-10-23T07:03:15Z</time>
      </trkpt>
      <trkpt lat="49.1426" lon="6.88624">
        <ele>343.3</ele>
        <time>2013-10-23T07:03:20Z</time>
      </trkpt>
      <trkpt lat="49.14262" lon="6.88624">
        <ele>342.9</ele>
        <time>2013-10-23T07:03:25Z</time>
      </trkpt>
      <trkpt lat="49.14267" lon="6.8862">
        <ele>341.8</ele>
        <time>2013-10-23T07:03:30Z</time>
      </trkpt>
      <trkpt lat="49.14271" lon="6.88619">
        <ele>341.4</ele>
        <time>2013-10-23T07:03:35Z</time>
      </trkpt>
      <trkpt lat="49.14276" lon="6.88614">
        <ele>340.7</ele>
        <time>2013-10-23T07:03:40Z</time>
      </trkpt>
      <trkpt lat="49.14282" lon="6.88609">
        <ele>338.9</ele>
        <time>2013-10-23T07:03:45Z</time>
      </trkpt>
      <trkpt lat="49.14286" lon="6.88604">
        <ele>338.6</ele>
        <time>2013-10-23T07:03:50Z</time>
      </trkpt>
      <trkpt lat="49.14291" lon="6.886">
        <ele>337.2</ele>
        <time>2013-10-23T07:03:55Z</time>
      </trkpt>
      <trkpt lat="49.14293" lon="6.88597">
        <ele>338.4</ele>
        <time>2013-10-23T07:04:00Z</time>
      </trkpt>
      <trkpt lat="49.14299" lon="6.88587">
        <ele>337.2</ele>
        <time>2013-10-23T07:04:10Z</time>
      </trkpt>
      <trkpt lat="49.14304" lon="6.88581">
        <ele>336.4</ele>
        <time>2013-10-23T07:04:15Z</time>
      </trkpt>
      <trkpt lat="49.14308" lon="6.88575">
        <ele>335.6</ele>
        <time>2013-10-23T07:04:20Z</time>
      </trkpt>
      <trkpt lat="49.14313" lon="6.8857">
        <ele>335</ele>
        <time>2013-10-23T07:04:25Z</time>
      </trkpt>
      <trkpt lat="49.14318" lon="6.88565">
        <ele>335.4</ele>
        <time>2013-10-23T07:04:30Z</time>
      </trkpt>
      <trkpt lat="49.14323" lon="6.88563">
        <ele>335.5</ele>
        <time>2013-10-23T07:04:35Z</time>
      </trkpt>
      <trkpt lat="49.14325" lon="6.88565">
        <ele>333.7</ele>
        <time>2013-10-23T07:04:40Z</time>
      </trkpt>
      <trkpt lat="49.14326" lon="6.88565">
        <ele>334</ele>
        <time>2013-10-23T07:04:45Z</time>
      </trkpt>
      <trkpt lat="49.14326" lon="6.88565">
        <ele>333.7</ele>
        <time>2013-10-23T07:04:50Z</time>
      </trkpt>
      <trkpt lat="49.14328" lon="6.88564">
        <ele>334.3</ele>
        <time>2013-10-23T07:04:55Z</time>
      </trkpt>
      <trkpt lat="49.14329" lon="6.88567">
        <ele>334.2</ele>
        <time>2013-10-23T07:05:00Z</time>
      </trkpt>
      <trkpt lat="49.14331" lon="6.88573">
        <ele>334.2</ele>
        <time>2013-10-23T07:05:05Z</time>
      </trkpt>
      <trkpt lat="49.14338" lon="6.88586">
        <ele>334.1</ele>
        <time>2013-10-23T07:05:15Z</time>
      </trkpt>
      <trkpt lat="49.14342" lon="6.88593">
        <ele>335.1</ele>
        <time>2013-10-23T07:05:20Z</time>
      </trkpt>
      <trkpt lat="49.14344" lon="6.88598">
        <ele>335.2</ele>
        <time>2013-10-23T07:05:25Z</time>
      </trkpt>
      <trkpt lat="49.14346" lon="6.88603">
        <ele>335</ele>
        <time>2013-10-23T07:05:30Z</time>
      </trkpt>
      <trkpt lat="49.14349" lon="6.88608">
        <ele>334.9</ele>
        <time>2013-10-23T07:05:35Z</time>
      </trkpt>
      <trkpt lat="49.14351" lon="6.88614">
        <ele>335</ele>
        <time>2013-10-23T07:05:40Z</time>
      </trkpt>
      <trkpt lat="49.14354" lon="6.88621">
        <ele>335.5</ele>
        <time>2013-10-23T07:05:45Z</time>
      </trkpt>
      <trkpt lat="49.14357" lon="6.88627">
        <ele>335.5</ele>
        <time>2013-10-23T07:05:50Z</time>
      </trkpt>
      <trkpt lat="49.1436" lon="6.88635">
        <ele>335.1</ele>
        <time>2013-10-23T07:05:55Z</time>
      </trkpt>
      <trkpt lat="49.14364" lon="6.88642">
        <ele>335.6</ele>
        <time>2013-10-23T07:06:00Z</time>
      </trkpt>
      <trkpt lat="49.14367" lon="6.88652">
        <ele>335.8</ele>
        <time>2013-10-23T07:06:05Z</time>
      </trkpt>
      <trkpt lat="49.14371" lon="6.88659">
        <ele>336</ele>
        <time>2013-10-23T07:06:10Z</time>
      </trkpt>
      <trkpt lat="49.14379" lon="6.88675">
        <ele>336.5</ele>
        <time>2013-10-23T07:06:20Z</time>
      </trkpt>
      <trkpt lat="49.14383" lon="6.88683">
        <ele>335.3</ele>
        <time>2013-10-23T07:06:25Z</time>
      </trkpt>
      <trkpt lat="49.14386" lon="6.88691">
        <ele>335.2</ele>
        <time>2013-10-23T07:06:30Z</time>
      </trkpt>
      <trkpt lat="49.14388" lon="6.88699">
        <ele>335.7</ele>
        <time>2013-10-23T07:06:35Z</time>
      </trkpt>
      <trkpt lat="49.14392" lon="6.88706">
        <ele>335.8</ele>
        <time>2013-10-23T07:06:40Z</time>
      </trkpt>
      <trkpt lat="49.14395" lon="6.88714">
        <ele>335.9</ele>
        <time>2013-10-23T07:06:45Z</time>
      </trkpt>
      <trkpt lat="49.14399" lon="6.88723">
        <ele>335.1</ele>
        <time>2013-10-23T07:06:50Z</time>
      </trkpt>
      <trkpt lat="49.14401" lon="6.88732">
        <ele>335.5</ele>
        <time>2013-10-23T07:06:55Z</time>
      </trkpt>
      <trkpt lat="49.14403" lon="6.88742">
        <ele>335.7</ele>
        <time>2013-10-23T07:07:00Z</time>
      </trkpt>
      <trkpt lat="49.14406" lon="6.8875">
        <ele>336.3</ele>
        <time>2013-10-23T07:07:05Z</time>
      </trkpt>
      <trkpt lat="49.14408" lon="6.88759">
        <ele>335.4</ele>
        <time>2013-10-23T07:07:10Z</time>
      </trkpt>
      <trkpt lat="49.1441" lon="6.88769">
        <ele>335.4</ele>
        <time>2013-10-23T07:07:15Z</time>
      </trkpt>
      <trkpt lat="49.14414" lon="6.88785">
        <ele>334.8</ele>
        <time>2013-10-23T07:07:25Z</time>
      </trkpt>
      <trkpt lat="49.14416" lon="6.88792">
        <ele>335</ele>
        <time>2013-10-23T07:07:30Z</time>
      </trkpt>
      <trkpt lat="49.1442" lon="6.88799">
        <ele>334.9</ele>
        <time>2013-10-23T07:07:35Z</time>
      </trkpt>
      <trkpt lat="49.14423" lon="6.88808">
        <ele>334.8</ele>
        <time>2013-10-23T07:07:40Z</time>
      </trkpt>
      <trkpt lat="49.14426" lon="6.88816">
        <ele>334.6</ele>
        <time>2013-10-23T07:07:45Z</time>
      </trkpt>
      <trkpt lat="49.14427" lon="6.88825">
        <ele>334.7</ele>
        <time>2013-10-23T07:07:50Z</time>
      </trkpt>
      <trkpt lat="49.1443" lon="6.88835">
        <ele>334.8</ele>
        <time>2013-10-23T07:07:55Z</time>
      </trkpt>
      <trkpt lat="49.14431" lon="6.88843">
        <ele>334.7</ele>
        <time>2013-10-23T07:08:00Z</time>
      </trkpt>
      <trkpt lat="49.14433" lon="6.8885">
        <ele>334</ele>
        <time>2013-10-23T07:08:05Z</time>
      </trkpt>
      <trkpt lat="49.14435" lon="6.88861">
        <ele>334</ele>
        <time>2013-10-23T07:08:10Z</time>
      </trkpt>
      <trkpt lat="49.14436" lon="6.8887">
        <ele>334.1</ele>
        <time>2013-10-23T07:08:15Z</time>
      </trkpt>
      <trkpt lat="49.14436" lon="6.88879">
        <ele>333.6</ele>
        <time>2013-10-23T07:08:20Z</time>
      </trkpt>
      <trkpt lat="49.14439" lon="6.88895">
        <ele>333.2</ele>
        <time>2013-10-23T07:08:30Z</time>
      </trkpt>
      <trkpt lat="49.1444" lon="6.88903">
        <ele>333</ele>
        <time>2013-10-23T07:08:35Z</time>
      </trkpt>
      <trkpt lat="49.14441" lon="6.88912">
        <ele>332.4</ele>
        <time>2013-10-23T07:08:40Z</time>
      </trkpt>
      <trkpt lat="49.14442" lon="6.8892">
        <ele>331.7</ele>
        <time>2013-10-23T07:08:45Z</time>
      </trkpt>
      <trkpt lat="49.14442" lon="6.88923">
        <ele>331.9</ele>
        <time>2013-10-23T07:08:50Z</time>
      </trkpt>
      <trkpt lat="49.14441" lon="6.88924">
        <ele>331.8</ele>
        <time>2013-10-23T07:08:55Z</time>
      </trkpt>
      <trkpt lat="49.14444" lon="6.88928">
        <ele>332.1</ele>
        <time>2013-10-23T07:09:00Z</time>
      </trkpt>
      <trkpt lat="49.14446" lon="6.88936">
        <ele>331.5</ele>
        <time>2013-10-23T07:09:05Z</time>
      </trkpt>
      <trkpt lat="49.14447" lon="6.88945">
        <ele>331.2</ele>
        <time>2013-10-23T07:09:10Z</time>
      </trkpt>
      <trkpt lat="49.1445" lon="6.88952">
        <ele>331.1</ele>
        <time>2013-10-23T07:09:15Z</time>
      </trkpt>
      <trkpt lat="49.14452" lon="6.88961">
        <ele>330.8</ele>
        <time>2013-10-23T07:09:20Z</time>
      </trkpt>
      <trkpt lat="49.14454" lon="6.88971">
        <ele>329.6</ele>
        <time>2013-10-23T07:09:25Z</time>
      </trkpt>
      <trkpt lat="49.14455" lon="6.88993">
        <ele>329.8</ele>
        <time>2013-10-23T07:09:35Z</time>
      </trkpt>
      <trkpt lat="49.14456" lon="6.89004">
        <ele>329</ele>
        <time>2013-10-23T07:09:40Z</time>
      </trkpt>
      <trkpt lat="49.14457" lon="6.89012">
        <ele>329</ele>
        <time>2013-10-23T07:09:45Z</time>
      </trkpt>
      <trkpt lat="49.14457" lon="6.89021">
        <ele>328.2</ele>
        <time>2013-10-23T07:09:50Z</time>
      </trkpt>
      <trkpt lat="49.14458" lon="6.8903">
        <ele>328.2</ele>
        <time>2013-10-23T07:09:55Z</time>
      </trkpt>
      <trkpt lat="49.14459" lon="6.89037">
        <ele>328.7</ele>
        <time>2013-10-23T07:10:00Z</time>
      </trkpt>
      <trkpt lat="49.1446" lon="6.89046">
        <ele>327.6</ele>
        <time>2013-10-23T07:10:05Z</time>
      </trkpt>
      <trkpt lat="49.14463" lon="6.89055">
        <ele>326.1</ele>
        <time>2013-10-23T07:10:10Z</time>
      </trkpt>
      <trkpt lat="49.14466" lon="6.89066">
        <ele>325.2</ele>
        <time>2013-10-23T07:10:15Z</time>
      </trkpt>
      <trkpt lat="49.1447" lon="6.89077">
        <ele>325.2</ele>
        <time>2013-10-23T07:10:20Z</time>
      </trkpt>
      <trkpt lat="49.14472" lon="6.89083">
        <ele>323.7</ele>
        <time>2013-10-23T07:10:25Z</time>
      </trkpt>
      <trkpt lat="49.14476" lon="6.8909">
        <ele>324.7</ele>
        <time>2013-10-23T07:10:30Z</time>
      </trkpt>
      <trkpt lat="49.14485" lon="6.89106">
        <ele>323.5</ele>
        <time>2013-10-23T07:10:40Z</time>
      </trkpt>
      <trkpt lat="49.1449" lon="6.89113">
        <ele>323</ele>
        <time>2013-10-23T07:10:45Z</time>
      </trkpt>
      <trkpt lat="49.14495" lon="6.89119">
        <ele>322.5</ele>
        <time>2013-10-23T07:10:50Z</time>
      </trkpt>
      <trkpt lat="49.14499" lon="6.89122">
        <ele>321</ele>
        <time>2013-10-23T07:10:55Z</time>
      </trkpt>
      <trkpt lat="49.14504" lon="6.89126">
        <ele>320.3</ele>
        <time>2013-10-23T07:11:00Z</time>
      </trkpt>
      <trkpt lat="49.14512" lon="6.89129">
        <ele>320.9</ele>
        <time>2013-10-23T07:11:05Z</time>
      </trkpt>
      <trkpt lat="49.14518" lon="6.89131">
        <ele>320.5</ele>
        <time>2013-10-23T07:11:10Z</time>
      </trkpt>
      <trkpt lat="49.14526" lon="6.89133">
        <ele>319.4</ele>
        <time>2013-10-23T07:11:15Z</time>
      </trkpt>
      <trkpt lat="49.14532" lon="6.89135">
        <ele>319</ele>
        <time>2013-10-23T07:11:20Z</time>
      </trkpt>
      <trkpt lat="49.14538" lon="6.89137">
        <ele>318.9</ele>
        <time>2013-10-23T07:11:25Z</time>
      </trkpt>
      <trkpt lat="49.14545" lon="6.89136">
        <ele>318.8</ele>
        <time>2013-10-23T07:11:30Z</time>
      </trkpt>
      <trkpt lat="49.14551" lon="6.89135">
        <ele>317.8</ele>
        <time>2013-10-23T07:11:35Z</time>
      </trkpt>
      <trkpt lat="49.14565" lon="6.89131">
        <ele>318.3</ele>
        <time>2013-10-23T07:11:45Z</time>
      </trkpt>
      <trkpt lat="49.1457" lon="6.89129">
        <ele>316.8</ele>
        <time>2013-10-23T07:11:50Z</time>
      </trkpt>
      <trkpt lat="49.14577" lon="6.89127">
        <ele>316.7</ele>
        <time>2013-10-23T07:11:55Z</time>
      </trkpt>
      <trkpt lat="49.14582" lon="6.89126">
        <ele>316.3</ele>
        <time>2013-10-23T07:12:00Z</time>
      </trkpt>
      <trkpt lat="49.14583" lon="6.89126">
        <ele>316.2</ele>
        <time>2013-10-23T07:12:05Z</time>
      </trkpt>
      <trkpt lat="49.14583" lon="6.89126">
        <ele>316.4</ele>
        <time>2013-10-23T07:12:10Z</time>
      </trkpt>
      <trkpt lat="49.14585" lon="6.89124">
        <ele>316.6</ele>
        <time>2013-10-23T07:12:15Z</time>
      </trkpt>
      <trkpt lat="49.14588" lon="6.89116">
        <ele>316.5</ele>
        <time>2013-10-23T07:12:20Z</time>
      </trkpt>
      <trkpt lat="49.14594" lon="6.8911">
        <ele>315.7</ele>
        <time>2013-10-23T07:12:25Z</time>
      </trkpt>
      <trkpt lat="49.146" lon="6.89109">
        <ele>315.4</ele>
        <time>2013-10-23T07:12:30Z</time>
      </trkpt>
      <trkpt lat="49.14606" lon="6.89107">
        <ele>315.3</ele>
        <time>2013-10-23T07:12:35Z</time>
      </trkpt>
      <trkpt lat="49.14612" lon="6.89106">
        <ele>315.7</ele>
        <time>2013-10-23T07:12:40Z</time>
      </trkpt>
      <trkpt lat="49.14625" lon="6.89104">
        <ele>314.6</ele>
        <time>2013-10-23T07:12:50Z</time>
      </trkpt>
      <trkpt lat="49.1463" lon="6.89103">
        <ele>314.9</ele>
        <time>2013-10-23T07:12:55Z</time>
      </trkpt>
      <trkpt lat="49.14636" lon="6.89103">
        <ele>315.4</ele>
        <time>2013-10-23T07:13:00Z</time>
      </trkpt>
      <trkpt lat="49.14641" lon="6.89103">
        <ele>314</ele>
        <time>2013-10-23T07:13:05Z</time>
      </trkpt>
      <trkpt lat="49.14647" lon="6.89102">
        <ele>313.1</ele>
        <time>2013-10-23T07:13:10Z</time>
      </trkpt>
      <trkpt lat="49.14649" lon="6.89101">
        <ele>314</ele>
        <time>2013-10-23T07:13:15Z</time>
      </trkpt>
      <trkpt lat="49.14652" lon="6.89101">
        <ele>313.7</ele>
        <time>2013-10-23T07:13:20Z</time>
      </trkpt>
      <trkpt lat="49.14654" lon="6.89102">
        <ele>314.2</ele>
        <time>2013-10-23T07:13:25Z</time>
      </trkpt>
      <trkpt lat="49.14654" lon="6.891">
        <ele>312.9</ele>
        <time>2013-10-23T07:13:30Z</time>
      </trkpt>
      <trkpt lat="49.14653" lon="6.89098">
        <ele>313</ele>
        <time>2013-10-23T07:13:35Z</time>
      </trkpt>
      <trkpt lat="49.14653" lon="6.89095">
        <ele>313.2</ele>
        <time>2013-10-23T07:13:40Z</time>
      </trkpt>
      <trkpt lat="49.14649" lon="6.89089">
        <ele>313.7</ele>
        <time>2013-10-23T07:13:45Z</time>
      </trkpt>
      <trkpt lat="49.14641" lon="6.89075">
        <ele>314.6</ele>
        <time>2013-10-23T07:13:55Z</time>
      </trkpt>
      <trkpt lat="49.14637" lon="6.8907">
        <ele>315.2</ele>
        <time>2013-10-23T07:14:00Z</time>
      </trkpt>
      <trkpt lat="49.14632" lon="6.89064">
        <ele>315.1</ele>
        <time>2013-10-23T07:14:05Z</time>
      </trkpt>
      <trkpt lat="49.14627" lon="6.89057">
        <ele>315.8</ele>
        <time>2013-10-23T07:14:10Z</time>
      </trkpt>
      <trkpt lat="49.14622" lon="6.8905">
        <ele>316.2</ele>
        <time>2013-10-23T07:14:15Z</time>
      </trkpt>
      <trkpt lat="49.14618" lon="6.89044">
        <ele>317.6</ele>
        <time>2013-10-23T07:14:20Z</time>
      </trkpt>
      <trkpt lat="49.14615" lon="6.89037">
        <ele>317.7</ele>
        <time>2013-10-23T07:14:25Z</time>
      </trkpt>
      <trkpt lat="49.1461" lon="6.89031">
        <ele>318.1</ele>
        <time>2013-10-23T07:14:30Z</time>
      </trkpt>
      <trkpt lat="49.14608" lon="6.89025">
        <ele>318</ele>
        <time>2013-10-23T07:14:35Z</time>
      </trkpt>
      <trkpt lat="49.14605" lon="6.89019">
        <ele>318.4</ele>
        <time>2013-10-23T07:14:40Z</time>
      </trkpt>
      <trkpt lat="49.14601" lon="6.89014">
        <ele>320.3</ele>
        <time>2013-10-23T07:14:45Z</time>
      </trkpt>
      <trkpt lat="49.14598" lon="6.89006">
        <ele>320.1</ele>
        <time>2013-10-23T07:14:50Z</time>
      </trkpt>
      <trkpt lat="49.14595" lon="6.88984">
        <ele>322.3</ele>
        <time>2013-10-23T07:15:00Z</time>
      </trkpt>
      <trkpt lat="49.14595" lon="6.88976">
        <ele>322.6</ele>
        <time>2013-10-23T07:15:05Z</time>
      </trkpt>
      <trkpt lat="49.14591" lon="6.88967">
        <ele>323.2</ele>
        <time>2013-10-23T07:15:10Z</time>
      </trkpt>
      <trkpt lat="49.14589" lon="6.88956">
        <ele>323.7</ele>
        <time>2013-10-23T07:15:15Z</time>
      </trkpt>
      <trkpt lat="49.14588" lon="6.88947">
        <ele>324.5</ele>
        <time>2013-10-23T07:15:20Z</time>
      </trkpt>
      <trkpt lat="49.14586" lon="6.88937">
        <ele>324.7</ele>
        <time>2013-10-23T07:15:25Z</time>
      </trkpt>
      <trkpt lat="49.14584" lon="6.88927">
        <ele>324.6</ele>
        <time>2013-10-23T07:15:30Z</time>
      </trkpt>
      <trkpt lat="49.14583" lon="6.88919">
        <ele>324.9</ele>
        <time>2013-10-23T07:15:35Z</time>
      </trkpt>
      <trkpt lat="49.14582" lon="6.88911">
        <ele>326.4</ele>
        <time>2013-10-23T07:15:40Z</time>
      </trkpt>
      <trkpt lat="49.14583" lon="6.88903">
        <ele>326</ele>
        <time>2013-10-23T07:15:45Z</time>
      </trkpt>
      <trkpt lat="49.14584" lon="6.88894">
        <ele>326</ele>
        <time>2013-10-23T07:15:50Z</time>
      </trkpt>
      <trkpt lat="49.14586" lon="6.88886">
        <ele>326.3</ele>
        <time>2013-10-23T07:15:55Z</time>
      </trkpt>
      <trkpt lat="49.14589" lon="6.88867">
        <ele>327</ele>
        <time>2013-10-23T07:16:05Z</time>
      </trkpt>
      <trkpt lat="49.1459" lon="6.88859">
        <ele>327</ele>
        <time>2013-10-23T07:16:10Z</time>
      </trkpt>
      <trkpt lat="49.14591" lon="6.8885">
        <ele>327.1</ele>
        <time>2013-10-23T07:16:15Z</time>
      </trkpt>
      <trkpt lat="49.14593" lon="6.88843">
        <ele>327.5</ele>
        <time>2013-10-23T07:16:20Z</time>
      </trkpt>
      <trkpt lat="49.14594" lon="6.88836">
        <ele>327.2</ele>
        <time>2013-10-23T07:16:25Z</time>
      </trkpt>
      <trkpt lat="49.14595" lon="6.88828">
        <ele>327</ele>
        <time>2013-10-23T07:16:30Z</time>
      </trkpt>
      <trkpt lat="49.14597" lon="6.88821">
        <ele>327.6</ele>
        <time>2013-10-23T07:16:35Z</time>
      </trkpt>
      <trkpt lat="49.146" lon="6.88812">
        <ele>328</ele>
        <time>2013-10-23T07:16:40Z</time>
      </trkpt>
      <trkpt lat="49.14603" lon="6.88804">
        <ele>328.2</ele>
        <time>2013-10-23T07:16:45Z</time>
      </trkpt>
      <trkpt lat="49.14605" lon="6.88796">
        <ele>327.7</ele>
        <time>2013-10-23T07:16:50Z</time>
      </trkpt>
      <trkpt lat="49.14609" lon="6.88787">
        <ele>327.6</ele>
        <time>2013-10-23T07:16:55Z</time>
      </trkpt>
      <trkpt lat="49.14612" lon="6.88778">
        <ele>327.4</ele>
        <time>2013-10-23T07:17:00Z</time>
      </trkpt>
      <trkpt lat="49.14617" lon="6.88761">
        <ele>327.2</ele>
        <time>2013-10-23T07:17:10Z</time>
      </trkpt>
      <trkpt lat="49.1462" lon="6.88752">
        <ele>328.1</ele>
        <time>2013-10-23T07:17:15Z</time>
      </trkpt>
      <trkpt lat="49.14623" lon="6.88745">
        <ele>327.1</ele>
        <time>2013-10-23T07:17:20Z</time>
      </trkpt>
      <trkpt lat="49.14626" lon="6.88736">
        <ele>326.7</ele>
        <time>2013-10-23T07:17:25Z</time>
      </trkpt>
      <trkpt lat="49.14629" lon="6.88727">
        <ele>326</ele>
        <time>2013-10-23T07:17:30Z</time>
      </trkpt>
      <trkpt lat="49.14632" lon="6.88718">
        <ele>327.1</ele>
        <time>2013-10-23T07:17:35Z</time>
      </trkpt>
      <trkpt lat="49.14634" lon="6.8871">
        <ele>327.1</ele>
        <time>2013-10-23T07:17:40Z</time>
      </trkpt>
      <trkpt lat="49.14637" lon="6.88701">
        <ele>327.5</ele>
        <time>2013-10-23T07:17:45Z</time>
      </trkpt>
      <trkpt lat="49.14641" lon="6.88692">
        <ele>327</ele>
        <time>2013-10-23T07:17:50Z</time>
      </trkpt>
      <trkpt lat="49.14644" lon="6.88683">
        <ele>327.1</ele>
        <time>2013-10-23T07:17:55Z</time>
      </trkpt>
      <trkpt lat="49.14647" lon="6.88673">
        <ele>327.9</ele>
        <time>2013-10-23T07:18:00Z</time>
      </trkpt>
      <trkpt lat="49.1465" lon="6.88665">
        <ele>327.6</ele>
        <time>2013-10-23T07:18:05Z</time>
      </trkpt>
      <trkpt lat="49.14656" lon="6.88646">
        <ele>328</ele>
        <time>2013-10-23T07:18:15Z</time>
      </trkpt>
      <trkpt lat="49.14658" lon="6.88637">
        <ele>328.1</ele>
        <time>2013-10-23T07:18:20Z</time>
      </trkpt>
      <trkpt lat="49.14661" lon="6.88629">
        <ele>327.9</ele>
        <time>2013-10-23T07:18:25Z</time>
      </trkpt>
      <trkpt lat="49.14664" lon="6.8862">
        <ele>328.1</ele>
        <time>2013-10-23T07:18:30Z</time>
      </trkpt>
      <trkpt lat="49.14667" lon="6.88611">
        <ele>328.2</ele>
        <time>2013-10-23T07:18:35Z</time>
      </trkpt>
      <trkpt lat="49.1467" lon="6.88602">
        <ele>328.2</ele>
        <time>2013-10-23T07:18:40Z</time>
      </trkpt>
      <trkpt lat="49.14672" lon="6.88594">
        <ele>328.7</ele>
        <time>2013-10-23T07:18:45Z</time>
      </trkpt>
      <trkpt lat="49.14674" lon="6.88585">
        <ele>328.2</ele>
        <time>2013-10-23T07:18:50Z</time>
      </trkpt>
      <trkpt lat="49.14676" lon="6.88578">
        <ele>327.7</ele>
        <time>2013-10-23T07:18:55Z</time>
      </trkpt>
      <trkpt lat="49.14679" lon="6.88569">
        <ele>327.5</ele>
        <time>2013-10-23T07:19:00Z</time>
      </trkpt>
      <trkpt lat="49.14681" lon="6.88561">
        <ele>327.3</ele>
        <time>2013-10-23T07:19:05Z</time>
      </trkpt>
      <trkpt lat="49.14683" lon="6.88554">
        <ele>326.8</ele>
        <time>2013-10-23T07:19:10Z</time>
      </trkpt>
      <trkpt lat="49.14688" lon="6.88538">
        <ele>326.4</ele>
        <time>2013-10-23T07:19:20Z</time>
      </trkpt>
      <trkpt lat="49.1469" lon="6.88531">
        <ele>326.2</ele>
        <time>2013-10-23T07:19:25Z</time>
      </trkpt>
      <trkpt lat="49.14693" lon="6.88523">
        <ele>326.3</ele>
        <time>2013-10-23T07:19:30Z</time>
      </trkpt>
      <trkpt lat="49.14696" lon="6.88513">
        <ele>325.7</ele>
        <time>2013-10-23T07:19:35Z</time>
      </trkpt>
      <trkpt lat="49.14699" lon="6.88505">
        <ele>324.9</ele>
        <time>2013-10-23T07:19:40Z</time>
      </trkpt>
      <trkpt lat="49.14701" lon="6.88496">
        <ele>324.1</ele>
        <time>2013-10-23T07:19:45Z</time>
      </trkpt>
      <trkpt lat="49.14704" lon="6.88487">
        <ele>325.2</ele>
        <time>2013-10-23T07:19:50Z</time>
      </trkpt>
      <trkpt lat="49.14707" lon="6.88478">
        <ele>325.3</ele>
        <time>2013-10-23T07:19:55Z</time>
      </trkpt>
      <trkpt lat="49.1471" lon="6.8847">
        <ele>324.2</ele>
        <time>2013-10-23T07:20:00Z</time>
      </trkpt>
      <trkpt lat="49.14712" lon="6.8846">
        <ele>324.1</ele>
        <time>2013-10-23T07:20:05Z</time>
      </trkpt>
      <trkpt lat="49.14715" lon="6.88449">
        <ele>323.9</ele>
        <time>2013-10-23T07:20:10Z</time>
      </trkpt>
      <trkpt lat="49.14718" lon="6.8844">
        <ele>322.7</ele>
        <time>2013-10-23T07:20:15Z</time>
      </trkpt>
      <trkpt lat="49.14724" lon="6.88422">
        <ele>323.3</ele>
        <time>2013-10-23T07:20:25Z</time>
      </trkpt>
      <trkpt lat="49.14726" lon="6.88415">
        <ele>323.5</ele>
        <time>2013-10-23T07:20:30Z</time>
      </trkpt>
      <trkpt lat="49.1473" lon="6.88407">
        <ele>322.9</ele>
        <time>2013-10-23T07:20:35Z</time>
      </trkpt>
      <trkpt lat="49.14732" lon="6.88399">
        <ele>323.3</ele>
        <time>2013-10-23T07:20:40Z</time>
      </trkpt>
      <trkpt lat="49.14735" lon="6.88389">
        <ele>323.1</ele>
        <time>2013-10-23T07:20:45Z</time>
      </trkpt>
      <trkpt lat="49.14737" lon="6.88379">
        <ele>322.3</ele>
        <time>2013-10-23T07:20:50Z</time>
      </trkpt>
      <trkpt lat="49.14739" lon="6.88369">
        <ele>323</ele>
        <time>2013-10-23T07:20:55Z</time>
      </trkpt>
      <trkpt lat="49.14741" lon="6.8836">
        <ele>322</ele>
        <time>2013-10-23T07:21:00Z</time>
      </trkpt>
      <trkpt lat="49.14743" lon="6.8835">
        <ele>323</ele>
        <time>2013-10-23T07:21:05Z</time>
      </trkpt>
      <trkpt lat="49.14745" lon="6.88339">
        <ele>321.7</ele>
        <time>2013-10-23T07:21:10Z</time>
      </trkpt>
      <trkpt lat="49.14748" lon="6.88329">
        <ele>321.4</ele>
        <time>2013-10-23T07:21:15Z</time>
      </trkpt>
      <trkpt lat="49.1475" lon="6.8832">
        <ele>321.6</ele>
        <time>2013-10-23T07:21:20Z</time>
      </trkpt>
      <trkpt lat="49.14755" lon="6.88299">
        <ele>321.1</ele>
        <time>2013-10-23T07:21:30Z</time>
      </trkpt>
      <trkpt lat="49.14757" lon="6.8829">
        <ele>320.4</ele>
        <time>2013-10-23T07:21:35Z</time>
      </trkpt>
      <trkpt lat="49.14758" lon="6.88282">
        <ele>320.5</ele>
        <time>2013-10-23T07:21:40Z</time>
      </trkpt>
      <trkpt lat="49.14759" lon="6.88273">
        <ele>321.1</ele>
        <time>2013-10-23T07:21:45Z</time>
      </trkpt>
      <trkpt lat="49.14761" lon="6.88264">
        <ele>321.4</ele>
        <time>2013-10-23T07:21:50Z</time>
      </trkpt>
      <trkpt lat="49.14763" lon="6.88255">
        <ele>321.1</ele>
        <time>2013-10-23T07:21:55Z</time>
      </trkpt>
      <trkpt lat="49.14764" lon="6.88245">
        <ele>320.7</ele>
        <time>2013-10-23T07:22:00Z</time>
      </trkpt>
      <trkpt lat="49.14767" lon="6.88236">
        <ele>320.4</ele>
        <time>2013-10-23T07:22:05Z</time>
      </trkpt>
      <trkpt lat="49.14768" lon="6.88227">
        <ele>319.3</ele>
        <time>2013-10-23T07:22:10Z</time>
      </trkpt>
      <trkpt lat="49.1477" lon="6.88217">
        <ele>320.2</ele>
        <time>2013-10-23T07:22:15Z</time>
      </trkpt>
      <trkpt lat="49.14772" lon="6.88207">
        <ele>320.1</ele>
        <time>2013-10-23T07:22:20Z</time>
      </trkpt>
      <trkpt lat="49.14773" lon="6.88198">
        <ele>320.3</ele>
        <time>2013-10-23T07:22:25Z</time>
      </trkpt>
      <trkpt lat="49.14778" lon="6.88179">
        <ele>320.3</ele>
        <time>2013-10-23T07:22:35Z</time>
      </trkpt>
      <trkpt lat="49.1478" lon="6.8817">
        <ele>321.1</ele>
        <time>2013-10-23T07:22:40Z</time>
      </trkpt>
      <trkpt lat="49.14783" lon="6.88161">
        <ele>320.1</ele>
        <time>2013-10-23T07:22:45Z</time>
      </trkpt>
      <trkpt lat="49.14786" lon="6.88152">
        <ele>321</ele>
        <time>2013-10-23T07:22:50Z</time>
      </trkpt>
      <trkpt lat="49.14788" lon="6.88142">
        <ele>321.2</ele>
        <time>2013-10-23T07:22:55Z</time>
      </trkpt>
      <trkpt lat="49.1479" lon="6.88133">
        <ele>320.4</ele>
        <time>2013-10-23T07:23:00Z</time>
      </trkpt>
      <trkpt lat="49.14793" lon="6.88124">
        <ele>321</ele>
        <time>2013-10-23T07:23:05Z</time>
      </trkpt>
      <trkpt lat="49.14796" lon="6.88115">
        <ele>320.5</ele>
        <time>2013-10-23T07:23:10Z</time>
      </trkpt>
      <trkpt lat="49.14799" lon="6.88105">
        <ele>320.7</ele>
        <time>2013-10-23T07:23:15Z</time>
      </trkpt>
      <trkpt lat="49.14802" lon="6.88096">
        <ele>321.5</ele>
        <time>2013-10-23T07:23:20Z</time>
      </trkpt>
      <trkpt lat="49.14804" lon="6.88086">
        <ele>320.9</ele>
        <time>2013-10-23T07:23:25Z</time>
      </trkpt>
      <trkpt lat="49.14807" lon="6.88078">
        <ele>321.5</ele>
        <time>2013-10-23T07:23:30Z</time>
      </trkpt>
      <trkpt lat="49.14811" lon="6.88064">
        <ele>321.3</ele>
        <time>2013-10-23T07:23:40Z</time>
      </trkpt>
      <trkpt lat="49.14814" lon="6.88055">
        <ele>321.7</ele>
        <time>2013-10-23T07:23:45Z</time>
      </trkpt>
      <trkpt lat="49.14817" lon="6.88047">
        <ele>322.4</ele>
        <time>2013-10-23T07:23:50Z</time>
      </trkpt>
      <trkpt lat="49.1482" lon="6.88038">
        <ele>322.7</ele>
        <time>2013-10-23T07:23:55Z</time>
      </trkpt>
      <trkpt lat="49.14824" lon="6.8803">
        <ele>322.1</ele>
        <time>2013-10-23T07:24:00Z</time>
      </trkpt>
      <trkpt lat="49.14829" lon="6.88021">
        <ele>322.2</ele>
        <time>2013-10-23T07:24:05Z</time>
      </trkpt>
      <trkpt lat="49.14833" lon="6.88013">
        <ele>322.6</ele>
        <time>2013-10-23T07:24:10Z</time>
      </trkpt>
      <trkpt lat="49.14837" lon="6.88006">
        <ele>322.7</ele>
        <time>2013-10-23T07:24:15Z</time>
      </trkpt>
      <trkpt lat="49.14839" lon="6.87997">
        <ele>323</ele>
        <time>2013-10-23T07:24:20Z</time>
      </trkpt>
      <trkpt lat="49.14842" lon="6.87989">
        <ele>323.3</ele>
        <time>2013-10-23T07:24:25Z</time>
      </trkpt>
      <trkpt lat="49.14846" lon="6.87982">
        <ele>324</ele>
        <time>2013-10-23T07:24:30Z</time>
      </trkpt>
      <trkpt lat="49.14852" lon="6.87975">
        <ele>323.9</ele>
        <time>2013-10-23T07:24:35Z</time>
      </trkpt>
      <trkpt lat="49.1486" lon="6.87961">
        <ele>324.8</ele>
        <time>2013-10-23T07:24:45Z</time>
      </trkpt>
      <trkpt lat="49.14865" lon="6.87955">
        <ele>325.7</ele>
        <time>2013-10-23T07:24:50Z</time>
      </trkpt>
      <trkpt lat="49.14867" lon="6.87951">
        <ele>326</ele>
        <time>2013-10-23T07:24:55Z</time>
      </trkpt>
      <trkpt lat="49.14869" lon="6.87948">
        <ele>325.5</ele>
        <time>2013-10-23T07:25:00Z</time>
      </trkpt>
      <trkpt lat="49.14874" lon="6.87942">
        <ele>326.2</ele>
        <time>2013-10-23T07:25:05Z</time>
      </trkpt>
      <trkpt lat="49.14878" lon="6.87937">
        <ele>327.3</ele>
        <time>2013-10-23T07:25:10Z</time>
      </trkpt>
      <trkpt lat="49.14882" lon="6.87934">
        <ele>326.9</ele>
        <time>2013-10-23T07:25:15Z</time>
      </trkpt>
      <trkpt lat="49.14887" lon="6.87928">
        <ele>327.5</ele>
        <time>2013-10-23T07:25:20Z</time>
      </trkpt>
      <trkpt lat="49.14892" lon="6.8792">
        <ele>328.6</ele>
        <time>2013-10-23T07:25:25Z</time>
      </trkpt>
      <trkpt lat="49.14897" lon="6.87916">
        <ele>328.6</ele>
        <time>2013-10-23T07:25:30Z</time>
      </trkpt>
      <trkpt lat="49.14901" lon="6.87911">
        <ele>329</ele>
        <time>2013-10-23T07:25:35Z</time>
      </trkpt>
      <trkpt lat="49.14905" lon="6.87908">
        <ele>330.6</ele>
        <time>2013-10-23T07:25:40Z</time>
      </trkpt>
      <trkpt lat="49.14911" lon="6.879">
        <ele>330.3</ele>
        <time>2013-10-23T07:25:50Z</time>
      </trkpt>
      <trkpt lat="49.14917" lon="6.87896">
        <ele>330.4</ele>
        <time>2013-10-23T07:25:55Z</time>
      </trkpt>
      <trkpt lat="49.14923" lon="6.87889">
        <ele>331.5</ele>
        <time>2013-10-23T07:26:00Z</time>
      </trkpt>
      <trkpt lat="49.14926" lon="6.87885">
        <ele>331.8</ele>
        <time>2013-10-23T07:26:05Z</time>
      </trkpt>
      <trkpt lat="49.14929" lon="6.87879">
        <ele>332.4</ele>
        <time>2013-10-23T07:26:10Z</time>
      </trkpt>
      <trkpt lat="49.14933" lon="6.87872">
        <ele>331.9</ele>
        <time>2013-10-23T07:26:15Z</time>
      </trkpt>
      <trkpt lat="49.14937" lon="6.87863">
        <ele>332.3</ele>
        <time>2013-10-23T07:26:20Z</time>
      </trkpt>
      <trkpt lat="49.14941" lon="6.8785">
        <ele>333.1</ele>
        <time>2013-10-23T07:26:25Z</time>
      </trkpt>
      <trkpt lat="49.14944" lon="6.87841">
        <ele>332.9</ele>
        <time>2013-10-23T07:26:30Z</time>
      </trkpt>
      <trkpt lat="49.14949" lon="6.87832">
        <ele>334.3</ele>
        <time>2013-10-23T07:26:35Z</time>
      </trkpt>
      <trkpt lat="49.14952" lon="6.87822">
        <ele>334.2</ele>
        <time>2013-10-23T07:26:40Z</time>
      </trkpt>
      <trkpt lat="49.14955" lon="6.87814">
        <ele>334.4</ele>
        <time>2013-10-23T07:26:45Z</time>
      </trkpt>
      <trkpt lat="49.14959" lon="6.878">
        <ele>333.9</ele>
        <time>2013-10-23T07:26:55Z</time>
      </trkpt>
      <trkpt lat="49.14963" lon="6.87792">
        <ele>334</ele>
        <time>2013-10-23T07:27:00Z</time>
      </trkpt>
      <trkpt lat="49.14965" lon="6.87783">
        <ele>334</ele>
        <time>2013-10-23T07:27:05Z</time>
      </trkpt>
      <trkpt lat="49.14968" lon="6.87773">
        <ele>335.4</ele>
        <time>2013-10-23T07:27:10Z</time>
      </trkpt>
      <trkpt lat="49.14969" lon="6.87765">
        <ele>334.3</ele>
        <time>2013-10-23T07:27:15Z</time>
      </trkpt>
      <trkpt lat="49.14972" lon="6.87755">
        <ele>334.4</ele>
        <time>2013-10-23T07:27:20Z</time>
      </trkpt>
      <trkpt lat="49.14976" lon="6.87748">
        <ele>334.3</ele>
        <time>2013-10-23T07:27:25Z</time>
      </trkpt>
      <trkpt lat="49.1498" lon="6.87741">
        <ele>334.4</ele>
        <time>2013-10-23T07:27:30Z</time>
      </trkpt>
      <trkpt lat="49.14982" lon="6.87731">
        <ele>334.6</ele>
        <time>2013-10-23T07:27:35Z</time>
      </trkpt>
      <trkpt lat="49.14982" lon="6.87723">
        <ele>335</ele>
        <time>2013-10-23T07:27:40Z</time>
      </trkpt>
      <trkpt lat="49.14981" lon="6.87714">
        <ele>335.2</ele>
        <time>2013-10-23T07:27:45Z</time>
      </trkpt>
      <trkpt lat="49.14984" lon="6.87706">
        <ele>335.2</ele>
        <time>2013-10-23T07:27:50Z</time>
      </trkpt>
      <trkpt lat="49.14989" lon="6.87684">
        <ele>335.2</ele>
        <time>2013-10-23T07:28:00Z</time>
      </trkpt>
      <trkpt lat="49.14991" lon="6.87673">
        <ele>336.1</ele>
        <time>2013-10-23T07:28:05Z</time>
      </trkpt>
      <trkpt lat="49.14992" lon="6.87664">
        <ele>337.2</ele>
        <time>2013-10-23T07:28:10Z</time>
      </trkpt>
      <trkpt lat="49.14995" lon="6.87655">
        <ele>336</ele>
        <time>2013-10-23T07:28:15Z</time>
      </trkpt>
      <trkpt lat="49.14997" lon="6.87645">
        <ele>336.3</ele>
        <time>2013-10-23T07:28:20Z</time>
      </trkpt>
      <trkpt lat="49.15" lon="6.87637">
        <ele>336.6</ele>
        <time>2013-10-23T07:28:25Z</time>
      </trkpt>
      <trkpt lat="49.15003" lon="6.8763">
        <ele>336.6</ele>
        <time>2013-10-23T07:28:30Z</time>
      </trkpt>
      <trkpt lat="49.15005" lon="6.87622">
        <ele>336.4</ele>
        <time>2013-10-23T07:28:35Z</time>
      </trkpt>
      <trkpt lat="49.15006" lon="6.87614">
        <ele>336.5</ele>
        <time>2013-10-23T07:28:40Z</time>
      </trkpt>
      <trkpt lat="49.15007" lon="6.87606">
        <ele>336.3</ele>
        <time>2013-10-23T07:28:45Z</time>
      </trkpt>
      <trkpt lat="49.15009" lon="6.87597">
        <ele>337</ele>
        <time>2013-10-23T07:28:50Z</time>
      </trkpt>
      <trkpt lat="49.1501" lon="6.8759">
        <ele>337.4</ele>
        <time>2013-10-23T07:28:55Z</time>
      </trkpt>
      <trkpt lat="49.15014" lon="6.87572">
        <ele>337.3</ele>
        <time>2013-10-23T07:29:05Z</time>
      </trkpt>
      <trkpt lat="49.15016" lon="6.87563">
        <ele>336.6</ele>
        <time>2013-10-23T07:29:10Z</time>
      </trkpt>
      <trkpt lat="49.15017" lon="6.87552">
        <ele>337.8</ele>
        <time>2013-10-23T07:29:15Z</time>
      </trkpt>
      <trkpt lat="49.1502" lon="6.87543">
        <ele>336.7</ele>
        <time>2013-10-23T07:29:20Z</time>
      </trkpt>
      <trkpt lat="49.15024" lon="6.87532">
        <ele>337.4</ele>
        <time>2013-10-23T07:29:25Z</time>
      </trkpt>
      <trkpt lat="49.15028" lon="6.87523">
        <ele>337.3</ele>
        <time>2013-10-23T07:29:30Z</time>
      </trkpt>
      <trkpt lat="49.15032" lon="6.87513">
        <ele>337.3</ele>
        <time>2013-10-23T07:29:35Z</time>
      </trkpt>
      <trkpt lat="49.15036" lon="6.87506">
        <ele>336.6</ele>
        <time>2013-10-23T07:29:40Z</time>
      </trkpt>
      <trkpt lat="49.15037" lon="6.87496">
        <ele>337</ele>
        <time>2013-10-23T07:29:45Z</time>
      </trkpt>
      <trkpt lat="49.1504" lon="6.87489">
        <ele>337.1</ele>
        <time>2013-10-23T07:29:50Z</time>
      </trkpt>
      <trkpt lat="49.15041" lon="6.8748">
        <ele>337.4</ele>
        <time>2013-10-23T07:29:55Z</time>
      </trkpt>
      <trkpt lat="49.15044" lon="6.87474">
        <ele>337.7</ele>
        <time>2013-10-23T07:30:00Z</time>
      </trkpt>
      <trkpt lat="49.15048" lon="6.87455">
        <ele>338</ele>
        <time>2013-10-23T07:30:10Z</time>
      </trkpt>
      <trkpt lat="49.15051" lon="6.87447">
        <ele>338.1</ele>
        <time>2013-10-23T07:30:15Z</time>
      </trkpt>
      <trkpt lat="49.15053" lon="6.87436">
        <ele>338</ele>
        <time>2013-10-23T07:30:20Z</time>
      </trkpt>
      <trkpt lat="49.15054" lon="6.87428">
        <ele>337.9</ele>
        <time>2013-10-23T07:30:25Z</time>
      </trkpt>
      <trkpt lat="49.15055" lon="6.8742">
        <ele>338.4</ele>
        <time>2013-10-23T07:30:30Z</time>
      </trkpt>
      <trkpt lat="49.15057" lon="6.8741">
        <ele>338.7</ele>
        <time>2013-10-23T07:30:35Z</time>
      </trkpt>
      <trkpt lat="49.15061" lon="6.87402">
        <ele>339</ele>
        <time>2013-10-23T07:30:40Z</time>
      </trkpt>
      <trkpt lat="49.15063" lon="6.87394">
        <ele>338.9</ele>
        <time>2013-10-23T07:30:45Z</time>
      </trkpt>
      <trkpt lat="49.15065" lon="6.87385">
        <ele>339.1</ele>
        <time>2013-10-23T07:30:50Z</time>
      </trkpt>
      <trkpt lat="49.15068" lon="6.87376">
        <ele>339.5</ele>
        <time>2013-10-23T07:30:55Z</time>
      </trkpt>
      <trkpt lat="49.15072" lon="6.87366">
        <ele>339.3</ele>
        <time>2013-10-23T07:31:00Z</time>
      </trkpt>
      <trkpt lat="49.15076" lon="6.87358">
        <ele>340.3</ele>
        <time>2013-10-23T07:31:05Z</time>
      </trkpt>
      <trkpt lat="49.15079" lon="6.87343">
        <ele>338.4</ele>
        <time>2013-10-23T07:31:15Z</time>
      </trkpt>
      <trkpt lat="49.15081" lon="6.87336">
        <ele>339.5</ele>
        <time>2013-10-23T07:31:20Z</time>
      </trkpt>
      <trkpt lat="49.15083" lon="6.87326">
        <ele>340.1</ele>
        <time>2013-10-23T07:31:25Z</time>
      </trkpt>
      <trkpt lat="49.15084" lon="6.87317">
        <ele>340.2</ele>
        <time>2013-10-23T07:31:30Z</time>
      </trkpt>
      <trkpt lat="49.15086" lon="6.87309">
        <ele>340.1</ele>
        <time>2013-10-23T07:31:35Z</time>
      </trkpt>
      <trkpt lat="49.15088" lon="6.87299">
        <ele>339.8</ele>
        <time>2013-10-23T07:31:40Z</time>
      </trkpt>
      <trkpt lat="49.1509" lon="6.87291">
        <ele>339.1</ele>
        <time>2013-10-23T07:31:45Z</time>
      </trkpt>
      <trkpt lat="49.15093" lon="6.8728">
        <ele>339.5</ele>
        <time>2013-10-23T07:31:50Z</time>
      </trkpt>
      <trkpt lat="49.15096" lon="6.87271">
        <ele>340.6</ele>
        <time>2013-10-23T07:31:55Z</time>
      </trkpt>
      <trkpt lat="49.15099" lon="6.87262">
        <ele>340.8</ele>
        <time>2013-10-23T07:32:00Z</time>
      </trkpt>
      <trkpt lat="49.151" lon="6.87251">
        <ele>341.9</ele>
        <time>2013-10-23T07:32:05Z</time>
      </trkpt>
      <trkpt lat="49.15102" lon="6.87243">
        <ele>342</ele>
        <time>2013-10-23T07:32:10Z</time>
      </trkpt>
      <trkpt lat="49.15107" lon="6.87228">
        <ele>342.6</ele>
        <time>2013-10-23T07:32:20Z</time>
      </trkpt>
      <trkpt lat="49.1511" lon="6.87219">
        <ele>343.1</ele>
        <time>2013-10-23T07:32:25Z</time>
      </trkpt>
      <trkpt lat="49.15114" lon="6.8721">
        <ele>342.6</ele>
        <time>2013-10-23T07:32:30Z</time>
      </trkpt>
      <trkpt lat="49.15118" lon="6.87201">
        <ele>343.3</ele>
        <time>2013-10-23T07:32:35Z</time>
      </trkpt>
      <trkpt lat="49.1512" lon="6.87191">
        <ele>343.8</ele>
        <time>2013-10-23T07:32:40Z</time>
      </trkpt>
      <trkpt lat="49.15123" lon="6.87183">
        <ele>343.9</ele>
        <time>2013-10-23T07:32:45Z</time>
      </trkpt>
      <trkpt lat="49.15125" lon="6.87175">
        <ele>343.5</ele>
        <time>2013-10-23T07:32:50Z</time>
      </trkpt>
      <trkpt lat="49.15128" lon="6.87165">
        <ele>343.9</ele>
        <time>2013-10-23T07:32:55Z</time>
      </trkpt>
      <trkpt lat="49.1513" lon="6.87156">
        <ele>343.3</ele>
        <time>2013-10-23T07:33:00Z</time>
      </trkpt>
      <trkpt lat="49.15132" lon="6.87146">
        <ele>343.5</ele>
        <time>2013-10-23T07:33:05Z</time>
      </trkpt>
      <trkpt lat="49.15136" lon="6.87137">
        <ele>343.2</ele>
        <time>2013-10-23T07:33:10Z</time>
      </trkpt>
      <trkpt lat="49.15139" lon="6.87128">
        <ele>343.3</ele>
        <time>2013-10-23T07:33:15Z</time>
      </trkpt>
      <trkpt lat="49.15144" lon="6.8711">
        <ele>342.9</ele>
        <time>2013-10-23T07:33:25Z</time>
      </trkpt>
      <trkpt lat="49.15146" lon="6.87101">
        <ele>343.1</ele>
        <time>2013-10-23T07:33:30Z</time>
      </trkpt>
      <trkpt lat="49.15148" lon="6.87091">
        <ele>343.5</ele>
        <time>2013-10-23T07:33:35Z</time>
      </trkpt>
      <trkpt lat="49.1515" lon="6.8708">
        <ele>343.3</ele>
        <time>2013-10-23T07:33:40Z</time>
      </trkpt>
      <trkpt lat="49.15153" lon="6.87069">
        <ele>342.7</ele>
        <time>2013-10-23T07:33:45Z</time>
      </trkpt>
      <trkpt lat="49.15155" lon="6.8706">
        <ele>343.2</ele>
        <time>2013-10-23T07:33:50Z</time>
      </trkpt>
      <trkpt lat="49.15156" lon="6.87049">
        <ele>343.9</ele>
        <time>2013-10-23T07:33:55Z</time>
      </trkpt>
      <trkpt lat="49.15158" lon="6.8704">
        <ele>343.1</ele>
        <time>2013-10-23T07:34:00Z</time>
      </trkpt>
      <trkpt lat="49.1516" lon="6.8703">
        <ele>343.7</ele>
        <time>2013-10-23T07:34:05Z</time>
      </trkpt>
      <trkpt lat="49.1516" lon="6.8702">
        <ele>343.6</ele>
        <time>2013-10-23T07:34:10Z</time>
      </trkpt>
      <trkpt lat="49.15161" lon="6.8701">
        <ele>343.7</ele>
        <time>2013-10-23T07:34:15Z</time>
      </trkpt>
      <trkpt lat="49.15162" lon="6.86998">
        <ele>343.9</ele>
        <time>2013-10-23T07:34:20Z</time>
      </trkpt>
      <trkpt lat="49.15162" lon="6.86979">
        <ele>343.3</ele>
        <time>2013-10-23T07:34:30Z</time>
      </trkpt>
      <trkpt lat="49.15163" lon="6.86969">
        <ele>342.9</ele>
        <time>2013-10-23T07:34:35Z</time>
      </trkpt>
      <trkpt lat="49.15167" lon="6.86957">
        <ele>342.8</ele>
        <time>2013-10-23T07:34:40Z</time>
      </trkpt>
      <trkpt lat="49.15171" lon="6.86948">
        <ele>342.7</ele>
        <time>2013-10-23T07:34:45Z</time>
      </trkpt>
      <trkpt lat="49.15175" lon="6.86939">
        <ele>342.7</ele>
        <time>2013-10-23T07:34:50Z</time>
      </trkpt>
      <trkpt lat="49.1518" lon="6.8693">
        <ele>342.3</ele>
        <time>2013-10-23T07:34:55Z</time>
      </trkpt>
      <trkpt lat="49.15185" lon="6.86923">
        <ele>341.7</ele>
        <time>2013-10-23T07:35:00Z</time>
      </trkpt>
      <trkpt lat="49.15189" lon="6.86915">
        <ele>341.5</ele>
        <time>2013-10-23T07:35:05Z</time>
      </trkpt>
      <trkpt lat="49.15194" lon="6.86908">
        <ele>341.2</ele>
        <time>2013-10-23T07:35:10Z</time>
      </trkpt>
      <trkpt lat="49.15199" lon="6.86901">
        <ele>341.4</ele>
        <time>2013-10-23T07:35:15Z</time>
      </trkpt>
      <trkpt lat="49.15204" lon="6.86895">
        <ele>341.2</ele>
        <time>2013-10-23T07:35:20Z</time>
      </trkpt>
      <trkpt lat="49.15208" lon="6.86888">
        <ele>341</ele>
        <time>2013-10-23T07:35:25Z</time>
      </trkpt>
      <trkpt lat="49.15217" lon="6.86874">
        <ele>338.7</ele>
        <time>2013-10-23T07:35:35Z</time>
      </trkpt>
      <trkpt lat="49.15221" lon="6.86867">
        <ele>339</ele>
        <time>2013-10-23T07:35:40Z</time>
      </trkpt>
      <trkpt lat="49.15225" lon="6.86862">
        <ele>339</ele>
        <time>2013-10-23T07:35:45Z</time>
      </trkpt>
      <trkpt lat="49.15229" lon="6.86856">
        <ele>338</ele>
        <time>2013-10-23T07:35:50Z</time>
      </trkpt>
      <trkpt lat="49.15234" lon="6.86849">
        <ele>337</ele>
        <time>2013-10-23T07:35:55Z</time>
      </trkpt>
      <trkpt lat="49.15238" lon="6.86843">
        <ele>337</ele>
        <time>2013-10-23T07:36:00Z</time>
      </trkpt>
      <trkpt lat="49.15242" lon="6.86837">
        <ele>337.4</ele>
        <time>2013-10-23T07:36:05Z</time>
      </trkpt>
      <trkpt lat="49.15246" lon="6.8683">
        <ele>336.9</ele>
        <time>2013-10-23T07:36:10Z</time>
      </trkpt>
      <trkpt lat="49.1525" lon="6.86825">
        <ele>336.9</ele>
        <time>2013-10-23T07:36:15Z</time>
      </trkpt>
      <trkpt lat="49.15255" lon="6.86817">
        <ele>336</ele>
        <time>2013-10-23T07:36:20Z</time>
      </trkpt>
      <trkpt lat="49.1526" lon="6.86812">
        <ele>335.6</ele>
        <time>2013-10-23T07:36:25Z</time>
      </trkpt>
      <trkpt lat="49.15264" lon="6.86805">
        <ele>335.4</ele>
        <time>2013-10-23T07:36:30Z</time>
      </trkpt>
      <trkpt lat="49.15273" lon="6.86791">
        <ele>334.8</ele>
        <time>2013-10-23T07:36:40Z</time>
      </trkpt>
      <trkpt lat="49.15275" lon="6.86783">
        <ele>333.9</ele>
        <time>2013-10-23T07:36:45Z</time>
      </trkpt>
      <trkpt lat="49.15278" lon="6.86774">
        <ele>334.3</ele>
        <time>2013-10-23T07:36:50Z</time>
      </trkpt>
      <trkpt lat="49.1528" lon="6.86766">
        <ele>333.7</ele>
        <time>2013-10-23T07:36:55Z</time>
      </trkpt>
      <trkpt lat="49.15282" lon="6.86759">
        <ele>332.4</ele>
        <time>2013-10-23T07:37:00Z</time>
      </trkpt>
      <trkpt lat="49.15285" lon="6.86752">
        <ele>331.4</ele>
        <time>2013-10-23T07:37:05Z</time>
      </trkpt>
      <trkpt lat="49.15287" lon="6.86744">
        <ele>330.9</ele>
        <time>2013-10-23T07:37:10Z</time>
      </trkpt>
      <trkpt lat="49.1529" lon="6.86736">
        <ele>330.5</ele>
        <time>2013-10-23T07:37:15Z</time>
      </trkpt>
      <trkpt lat="49.15293" lon="6.86728">
        <ele>329.3</ele>
        <time>2013-10-23T07:37:20Z</time>
      </trkpt>
      <trkpt lat="49.15297" lon="6.86721">
        <ele>329.8</ele>
        <time>2013-10-23T07:37:25Z</time>
      </trkpt>
      <trkpt lat="49.15299" lon="6.86715">
        <ele>328.2</ele>
        <time>2013-10-23T07:37:30Z</time>
      </trkpt>
      <trkpt lat="49.15303" lon="6.86705">
        <ele>327.9</ele>
        <time>2013-10-23T07:37:35Z</time>
      </trkpt>
      <trkpt lat="49.15311" lon="6.86688">
        <ele>326.8</ele>
        <time>2013-10-23T07:37:45Z</time>
      </trkpt>
      <trkpt lat="49.15314" lon="6.8668">
        <ele>325.9</ele>
        <time>2013-10-23T07:37:50Z</time>
      </trkpt>
      <trkpt lat="49.15319" lon="6.86672">
        <ele>326.4</ele>
        <time>2013-10-23T07:37:55Z</time>
      </trkpt>
      <trkpt lat="49.15325" lon="6.86664">
        <ele>325.3</ele>
        <time>2013-10-23T07:38:00Z</time>
      </trkpt>
      <trkpt lat="49.15331" lon="6.86656">
        <ele>324.8</ele>
        <time>2013-10-23T07:38:05Z</time>
      </trkpt>
      <trkpt lat="49.15336" lon="6.86649">
        <ele>324.5</ele>
        <time>2013-10-23T07:38:10Z</time>
      </trkpt>
      <trkpt lat="49.15341" lon="6.86642">
        <ele>325.4</ele>
        <time>2013-10-23T07:38:15Z</time>
      </trkpt>
      <trkpt lat="49.15345" lon="6.86633">
        <ele>325.4</ele>
        <time>2013-10-23T07:38:20Z</time>
      </trkpt>
      <trkpt lat="49.1535" lon="6.86625">
        <ele>324.7</ele>
        <time>2013-10-23T07:38:25Z</time>
      </trkpt>
      <trkpt lat="49.15355" lon="6.86617">
        <ele>324.6</ele>
        <time>2013-10-23T07:38:30Z</time>
      </trkpt>
      <trkpt lat="49.15358" lon="6.86609">
        <ele>325</ele>
        <time>2013-10-23T07:38:35Z</time>
      </trkpt>
      <trkpt lat="49.15362" lon="6.86601">
        <ele>324.6</ele>
        <time>2013-10-23T07:38:40Z</time>
      </trkpt>
      <trkpt lat="49.15369" lon="6.86584">
        <ele>324.4</ele>
        <time>2013-10-23T07:38:50Z</time>
      </trkpt>
      <trkpt lat="49.15373" lon="6.86576">
        <ele>323.7</ele>
        <time>2013-10-23T07:38:55Z</time>
      </trkpt>
      <trkpt lat="49.15376" lon="6.86568">
        <ele>323.6</ele>
        <time>2013-10-23T07:39:00Z</time>
      </trkpt>
      <trkpt lat="49.15379" lon="6.86561">
        <ele>324</ele>
        <time>2013-10-23T07:39:05Z</time>
      </trkpt>
      <trkpt lat="49.15383" lon="6.86553">
        <ele>323.8</ele>
        <time>2013-10-23T07:39:10Z</time>
      </trkpt>
      <trkpt lat="49.15386" lon="6.86546">
        <ele>323.7</ele>
        <time>2013-10-23T07:39:15Z</time>
      </trkpt>
      <trkpt lat="49.1539" lon="6.8654">
        <ele>324.1</ele>
        <time>2013-10-23T07:39:20Z</time>
      </trkpt>
      <trkpt lat="49.15393" lon="6.86533">
        <ele>324.1</ele>
        <time>2013-10-23T07:39:25Z</time>
      </trkpt>
      <trkpt lat="49.15397" lon="6.86526">
        <ele>325</ele>
        <time>2013-10-23T07:39:30Z</time>
      </trkpt>
      <trkpt lat="49.15399" lon="6.86522">
        <ele>324.6</ele>
        <time>2013-10-23T07:39:35Z</time>
      </trkpt>
      <trkpt lat="49.15399" lon="6.86522">
        <ele>324.4</ele>
        <time>2013-10-23T07:39:40Z</time>
      </trkpt>
      <trkpt lat="49.15399" lon="6.86522">
        <ele>323.8</ele>
        <time>2013-10-23T07:39:45Z</time>
      </trkpt>
      <trkpt lat="49.15399" lon="6.86521">
        <ele>324</ele>
        <time>2013-10-23T07:39:55Z</time>
      </trkpt>
      <trkpt lat="49.15399" lon="6.86522">
        <ele>324</ele>
        <time>2013-10-23T07:40:00Z</time>
      </trkpt>
      <trkpt lat="49.15399" lon="6.86523">
        <ele>324.2</ele>
        <time>2013-10-23T07:40:05Z</time>
      </trkpt>
      <trkpt lat="49.15399" lon="6.86524">
        <ele>324.9</ele>
        <time>2013-10-23T07:40:10Z</time>
      </trkpt>
      <trkpt lat="49.15399" lon="6.86526">
        <ele>325.2</ele>
        <time>2013-10-23T07:40:15Z</time>
      </trkpt>
      <trkpt lat="49.154" lon="6.86527">
        <ele>324.6</ele>
        <time>2013-10-23T07:40:20Z</time>
      </trkpt>
      <trkpt lat="49.154" lon="6.86527">
        <ele>324.9</ele>
        <time>2013-10-23T07:40:25Z</time>
      </trkpt>
      <trkpt lat="49.15401" lon="6.86527">
        <ele>323.8</ele>
        <time>2013-10-23T07:40:30Z</time>
      </trkpt>
      <trkpt lat="49.15401" lon="6.86526">
        <ele>323.6</ele>
        <time>2013-10-23T07:40:35Z</time>
      </trkpt>
      <trkpt lat="49.15401" lon="6.86525">
        <ele>324.8</ele>
        <time>2013-10-23T07:40:40Z</time>
      </trkpt>
      <trkpt lat="49.15401" lon="6.86525">
        <ele>325.9</ele>
        <time>2013-10-23T07:40:45Z</time>
      </trkpt>
      <trkpt lat="49.154" lon="6.86525">
        <ele>326.5</ele>
        <time>2013-10-23T07:40:50Z</time>
      </trkpt>
      <trkpt lat="49.15401" lon="6.86524">
        <ele>325.7</ele>
        <time>2013-10-23T07:41:00Z</time>
      </trkpt>
      <trkpt lat="49.15401" lon="6.86523">
        <ele>324.9</ele>
        <time>2013-10-23T07:41:05Z</time>
      </trkpt>
      <trkpt lat="49.15401" lon="6.86523">
        <ele>325.8</ele>
        <time>2013-10-23T07:41:10Z</time>
      </trkpt>
      <trkpt lat="49.15401" lon="6.86523">
        <ele>325.7</ele>
        <time>2013-10-23T07:41:15Z</time>
      </trkpt>
      <trkpt lat="49.15401" lon="6.86522">
        <ele>326.6</ele>
        <time>2013-10-23T07:41:20Z</time>
      </trkpt>
      <trkpt lat="49.15401" lon="6.86522">
        <ele>326.2</ele>
        <time>2013-10-23T07:41:25Z</time>
      </trkpt>
      <trkpt lat="49.154" lon="6.8652">
        <ele>326.2</ele>
        <time>2013-10-23T07:41:30Z</time>
      </trkpt>
      <trkpt lat="49.154" lon="6.86513">
        <ele>326.1</ele>
        <time>2013-10-23T07:41:35Z</time>
      </trkpt>
      <trkpt lat="49.15401" lon="6.86505">
        <ele>326.7</ele>
        <time>2013-10-23T07:41:40Z</time>
      </trkpt>
      <trkpt lat="49.15401" lon="6.86502">
        <ele>325.6</ele>
        <time>2013-10-23T07:41:45Z</time>
      </trkpt>
      <trkpt lat="49.15403" lon="6.86501">
        <ele>325</ele>
        <time>2013-10-23T07:41:50Z</time>
      </trkpt>
      <trkpt lat="49.15403" lon="6.865">
        <ele>326</ele>
        <time>2013-10-23T07:41:55Z</time>
      </trkpt>
      <trkpt lat="49.15402" lon="6.865">
        <ele>326.7</ele>
        <time>2013-10-23T07:42:05Z</time>
      </trkpt>
      <trkpt lat="49.15402" lon="6.865">
        <ele>326.4</ele>
        <time>2013-10-23T07:42:10Z</time>
      </trkpt>
      <trkpt lat="49.15403" lon="6.865">
        <ele>326.7</ele>
        <time>2013-10-23T07:42:15Z</time>
      </trkpt>
      <trkpt lat="49.15404" lon="6.865">
        <ele>326.3</ele>
        <time>2013-10-23T07:42:20Z</time>
      </trkpt>
      <trkpt lat="49.15404" lon="6.865">
        <ele>325.9</ele>
        <time>2013-10-23T07:42:25Z</time>
      </trkpt>
      <trkpt lat="49.15405" lon="6.865">
        <ele>326.1</ele>
        <time>2013-10-23T07:42:30Z</time>
      </trkpt>
      <trkpt lat="49.15404" lon="6.865">
        <ele>326.2</ele>
        <time>2013-10-23T07:42:35Z</time>
      </trkpt>
      <trkpt lat="49.15402" lon="6.86499">
        <ele>325.9</ele>
        <time>2013-10-23T07:42:40Z</time>
      </trkpt>
      <trkpt lat="49.154" lon="6.86499">
        <ele>326.7</ele>
        <time>2013-10-23T07:42:45Z</time>
      </trkpt>
      <trkpt lat="49.15399" lon="6.86504">
        <ele>325.6</ele>
        <time>2013-10-23T07:42:50Z</time>
      </trkpt>
      <trkpt lat="49.15398" lon="6.86512">
        <ele>325</ele>
        <time>2013-10-23T07:42:55Z</time>
      </trkpt>
      <trkpt lat="49.15399" lon="6.86521">
        <ele>324.6</ele>
        <time>2013-10-23T07:43:00Z</time>
      </trkpt>
      <trkpt lat="49.15408" lon="6.86528">
        <ele>323.4</ele>
        <time>2013-10-23T07:43:10Z</time>
      </trkpt>
      <trkpt lat="49.15413" lon="6.86526">
        <ele>323.1</ele>
        <time>2013-10-23T07:43:15Z</time>
      </trkpt>
      <trkpt lat="49.15418" lon="6.86526">
        <ele>321.9</ele>
        <time>2013-10-23T07:43:20Z</time>
      </trkpt>
      <trkpt lat="49.15423" lon="6.86525">
        <ele>321.6</ele>
        <time>2013-10-23T07:43:25Z</time>
      </trkpt>
      <trkpt lat="49.15428" lon="6.86525">
        <ele>320.5</ele>
        <time>2013-10-23T07:43:30Z</time>
      </trkpt>
      <trkpt lat="49.15434" lon="6.86524">
        <ele>319.5</ele>
        <time>2013-10-23T07:43:35Z</time>
      </trkpt>
      <trkpt lat="49.15441" lon="6.86523">
        <ele>317.5</ele>
        <time>2013-10-23T07:43:40Z</time>
      </trkpt>
      <trkpt lat="49.15447" lon="6.86523">
        <ele>318.2</ele>
        <time>2013-10-23T07:43:45Z</time>
      </trkpt>
      <trkpt lat="49.15454" lon="6.86522">
        <ele>316.4</ele>
        <time>2013-10-23T07:43:50Z</time>
      </trkpt>
      <trkpt lat="49.15459" lon="6.86523">
        <ele>316</ele>
        <time>2013-10-23T07:43:55Z</time>
      </trkpt>
      <trkpt lat="49.15465" lon="6.86525">
        <ele>313.5</ele>
        <time>2013-10-23T07:44:00Z</time>
      </trkpt>
      <trkpt lat="49.1547" lon="6.86529">
        <ele>312.8</ele>
        <time>2013-10-23T07:44:05Z</time>
      </trkpt>
      <trkpt lat="49.1548" lon="6.86535">
        <ele>311.9</ele>
        <time>2013-10-23T07:44:15Z</time>
      </trkpt>
      <trkpt lat="49.15485" lon="6.8654">
        <ele>309.3</ele>
        <time>2013-10-23T07:44:20Z</time>
      </trkpt>
      <trkpt lat="49.15489" lon="6.86545">
        <ele>308.1</ele>
        <time>2013-10-23T07:44:25Z</time>
      </trkpt>
      <trkpt lat="49.15493" lon="6.86548">
        <ele>307.4</ele>
        <time>2013-10-23T07:44:30Z</time>
      </trkpt>
      <trkpt lat="49.15497" lon="6.86552">
        <ele>306.9</ele>
        <time>2013-10-23T07:44:35Z</time>
      </trkpt>
      <trkpt lat="49.15502" lon="6.86556">
        <ele>305.9</ele>
        <time>2013-10-23T07:44:40Z</time>
      </trkpt>
      <trkpt lat="49.15508" lon="6.86562">
        <ele>305.5</ele>
        <time>2013-10-23T07:44:45Z</time>
      </trkpt>
      <trkpt lat="49.15514" lon="6.86569">
        <ele>305.2</ele>
        <time>2013-10-23T07:44:50Z</time>
      </trkpt>
      <trkpt lat="49.15521" lon="6.86574">
        <ele>304.8</ele>
        <time>2013-10-23T07:44:55Z</time>
      </trkpt>
      <trkpt lat="49.15528" lon="6.86579">
        <ele>303.8</ele>
        <time>2013-10-23T07:45:00Z</time>
      </trkpt>
      <trkpt lat="49.15535" lon="6.86584">
        <ele>303.1</ele>
        <time>2013-10-23T07:45:05Z</time>
      </trkpt>
      <trkpt lat="49.15541" lon="6.86587">
        <ele>302.8</ele>
        <time>2013-10-23T07:45:10Z</time>
      </trkpt>
      <trkpt lat="49.15553" lon="6.86594">
        <ele>301.5</ele>
        <time>2013-10-23T07:45:20Z</time>
      </trkpt>
      <trkpt lat="49.15559" lon="6.86597">
        <ele>300.7</ele>
        <time>2013-10-23T07:45:25Z</time>
      </trkpt>
      <trkpt lat="49.15566" lon="6.86599">
        <ele>300.7</ele>
        <time>2013-10-23T07:45:30Z</time>
      </trkpt>
      <trkpt lat="49.15573" lon="6.86601">
        <ele>300.3</ele>
        <time>2013-10-23T07:45:35Z</time>
      </trkpt>
      <trkpt lat="49.15577" lon="6.86603">
        <ele>300.4</ele>
        <time>2013-10-23T07:45:40Z</time>
      </trkpt>
      <trkpt lat="49.15578" lon="6.86605">
        <ele>299.5</ele>
        <time>2013-10-23T07:45:45Z</time>
      </trkpt>
      <trkpt lat="49.15581" lon="6.86606">
        <ele>299.4</ele>
        <time>2013-10-23T07:45:50Z</time>
      </trkpt>
      <trkpt lat="49.15588" lon="6.86607">
        <ele>298.7</ele>
        <time>2013-10-23T07:45:55Z</time>
      </trkpt>
      <trkpt lat="49.15595" lon="6.86608">
        <ele>297.8</ele>
        <time>2013-10-23T07:46:00Z</time>
      </trkpt>
      <trkpt lat="49.15601" lon="6.8661">
        <ele>298.2</ele>
        <time>2013-10-23T07:46:05Z</time>
      </trkpt>
      <trkpt lat="49.15608" lon="6.8661">
        <ele>296.5</ele>
        <time>2013-10-23T07:46:10Z</time>
      </trkpt>
      <trkpt lat="49.15613" lon="6.86611">
        <ele>296.4</ele>
        <time>2013-10-23T07:46:15Z</time>
      </trkpt>
      <trkpt lat="49.15625" lon="6.86611">
        <ele>295.2</ele>
        <time>2013-10-23T07:46:25Z</time>
      </trkpt>
      <trkpt lat="49.1563" lon="6.86611">
        <ele>294.3</ele>
        <time>2013-10-23T07:46:30Z</time>
      </trkpt>
      <trkpt lat="49.15636" lon="6.8661">
        <ele>293.6</ele>
        <time>2013-10-23T07:46:35Z</time>
      </trkpt>
      <trkpt lat="49.15642" lon="6.86609">
        <ele>293.3</ele>
        <time>2013-10-23T07:46:40Z</time>
      </trkpt>
      <trkpt lat="49.15647" lon="6.86607">
        <ele>293.2</ele>
        <time>2013-10-23T07:46:45Z</time>
      </trkpt>
      <trkpt lat="49.15651" lon="6.86604">
        <ele>292.1</ele>
        <time>2013-10-23T07:46:50Z</time>
      </trkpt>
      <trkpt lat="49.15651" lon="6.86602">
        <ele>291.8</ele>
        <time>2013-10-23T07:46:55Z</time>
      </trkpt>
      <trkpt lat="49.15651" lon="6.86596">
        <ele>292.2</ele>
        <time>2013-10-23T07:47:00Z</time>
      </trkpt>
      <trkpt lat="49.15652" lon="6.86591">
        <ele>292.5</ele>
        <time>2013-10-23T07:47:05Z</time>
      </trkpt>
      <trkpt lat="49.15652" lon="6.86585">
        <ele>291.6</ele>
        <time>2013-10-23T07:47:10Z</time>
      </trkpt>
      <trkpt lat="49.15653" lon="6.8658">
        <ele>290.8</ele>
        <time>2013-10-23T07:47:15Z</time>
      </trkpt>
      <trkpt lat="49.15654" lon="6.86575">
        <ele>289.5</ele>
        <time>2013-10-23T07:47:20Z</time>
      </trkpt>
      <trkpt lat="49.15654" lon="6.86561">
        <ele>288</ele>
        <time>2013-10-23T07:47:30Z</time>
      </trkpt>
      <trkpt lat="49.15654" lon="6.86554">
        <ele>287.4</ele>
        <time>2013-10-23T07:47:35Z</time>
      </trkpt>
      <trkpt lat="49.15653" lon="6.86548">
        <ele>286.7</ele>
        <time>2013-10-23T07:47:40Z</time>
      </trkpt>
      <trkpt lat="49.15652" lon="6.86542">
        <ele>285.9</ele>
        <time>2013-10-23T07:47:45Z</time>
      </trkpt>
      <trkpt lat="49.15653" lon="6.86535">
        <ele>284.9</ele>
        <time>2013-10-23T07:47:50Z</time>
      </trkpt>
      <trkpt lat="49.15653" lon="6.86528">
        <ele>283.8</ele>
        <time>2013-10-23T07:47:55Z</time>
      </trkpt>
      <trkpt lat="49.15653" lon="6.86522">
        <ele>283.9</ele>
        <time>2013-10-23T07:48:00Z</time>
      </trkpt>
      <trkpt lat="49.15654" lon="6.86515">
        <ele>283.4</ele>
        <time>2013-10-23T07:48:05Z</time>
      </trkpt>
      <trkpt lat="49.15654" lon="6.86509">
        <ele>282.4</ele>
        <time>2013-10-23T07:48:10Z</time>
      </trkpt>
      <trkpt lat="49.15654" lon="6.86505">
        <ele>282.1</ele>
        <time>2013-10-23T07:48:15Z</time>
      </trkpt>
      <trkpt lat="49.15655" lon="6.86499">
        <ele>281</ele>
        <time>2013-10-23T07:48:20Z</time>
      </trkpt>
      <trkpt lat="49.15656" lon="6.86492">
        <ele>280</ele>
        <time>2013-10-23T07:48:25Z</time>
      </trkpt>
      <trkpt lat="49.15657" lon="6.86483">
        <ele>279.6</ele>
        <time>2013-10-23T07:48:35Z</time>
      </trkpt>
      <trkpt lat="49.15657" lon="6.86477">
        <ele>279.6</ele>
        <time>2013-10-23T07:48:40Z</time>
      </trkpt>
      <trkpt lat="49.15656" lon="6.86471">
        <ele>279</ele>
        <time>2013-10-23T07:48:45Z</time>
      </trkpt>
      <trkpt lat="49.15655" lon="6.86465">
        <ele>277.9</ele>
        <time>2013-10-23T07:48:50Z</time>
      </trkpt>
      <trkpt lat="49.15654" lon="6.86459">
        <ele>276.9</ele>
        <time>2013-10-23T07:48:55Z</time>
      </trkpt>
      <trkpt lat="49.15654" lon="6.86453">
        <ele>276.7</ele>
        <time>2013-10-23T07:49:00Z</time>
      </trkpt>
      <trkpt lat="49.15653" lon="6.8645">
        <ele>276</ele>
        <time>2013-10-23T07:49:05Z</time>
      </trkpt>
      <trkpt lat="49.15653" lon="6.86446">
        <ele>275.3</ele>
        <time>2013-10-23T07:49:10Z</time>
      </trkpt>
      <trkpt lat="49.15651" lon="6.86443">
        <ele>274.4</ele>
        <time>2013-10-23T07:49:15Z</time>
      </trkpt>
      <trkpt lat="49.15647" lon="6.86437">
        <ele>274.9</ele>
        <time>2013-10-23T07:49:20Z</time>
      </trkpt>
      <trkpt lat="49.15646" lon="6.8643">
        <ele>274.3</ele>
        <time>2013-10-23T07:49:25Z</time>
      </trkpt>
      <trkpt lat="49.15644" lon="6.86424">
        <ele>275</ele>
        <time>2013-10-23T07:49:30Z</time>
      </trkpt>
      <trkpt lat="49.15641" lon="6.86411">
        <ele>272.9</ele>
        <time>2013-10-23T07:49:40Z</time>
      </trkpt>
      <trkpt lat="49.1564" lon="6.86403">
        <ele>273</ele>
        <time>2013-10-23T07:49:45Z</time>
      </trkpt>
      <trkpt lat="49.15639" lon="6.86397">
        <ele>271.8</ele>
        <time>2013-10-23T07:49:50Z</time>
      </trkpt>
      <trkpt lat="49.15639" lon="6.86392">
        <ele>272.1</ele>
        <time>2013-10-23T07:49:55Z</time>
      </trkpt>
      <trkpt lat="49.15637" lon="6.86387">
        <ele>272.1</ele>
        <time>2013-10-23T07:50:00Z</time>
      </trkpt>
      <trkpt lat="49.15637" lon="6.86383">
        <ele>271.1</ele>
        <time>2013-10-23T07:50:05Z</time>
      </trkpt>
      <trkpt lat="49.15638" lon="6.8638">
        <ele>271.4</ele>
        <time>2013-10-23T07:50:10Z</time>
      </trkpt>
      <trkpt lat="49.15639" lon="6.86378">
        <ele>271</ele>
        <time>2013-10-23T07:50:15Z</time>
      </trkpt>
      <trkpt lat="49.15643" lon="6.86376">
        <ele>272.3</ele>
        <time>2013-10-23T07:50:20Z</time>
      </trkpt>
      <trkpt lat="49.15646" lon="6.86374">
        <ele>272.2</ele>
        <time>2013-10-23T07:50:25Z</time>
      </trkpt>
      <trkpt lat="49.15649" lon="6.86373">
        <ele>271.8</ele>
        <time>2013-10-23T07:50:30Z</time>
      </trkpt>
      <trkpt lat="49.1565" lon="6.86373">
        <ele>271.8</ele>
        <time>2013-10-23T07:50:35Z</time>
      </trkpt>
      <trkpt lat="49.15649" lon="6.86376">
        <ele>271.6</ele>
        <time>2013-10-23T07:50:45Z</time>
      </trkpt>
      <trkpt lat="49.15647" lon="6.86377">
        <ele>270.9</ele>
        <time>2013-10-23T07:50:50Z</time>
      </trkpt>
      <trkpt lat="49.15646" lon="6.86378">
        <ele>271.6</ele>
        <time>2013-10-23T07:50:55Z</time>
      </trkpt>
      <trkpt lat="49.15645" lon="6.86375">
        <ele>271.4</ele>
        <time>2013-10-23T07:51:00Z</time>
      </trkpt>
      <trkpt lat="49.15642" lon="6.86369">
        <ele>271.7</ele>
        <time>2013-10-23T07:51:05Z</time>
      </trkpt>
      <trkpt lat="49.1564" lon="6.86363">
        <ele>271</ele>
        <time>2013-10-23T07:51:10Z</time>
      </trkpt>
      <trkpt lat="49.15638" lon="6.86357">
        <ele>269.4</ele>
        <time>2013-10-23T07:51:15Z</time>
      </trkpt>
      <trkpt lat="49.15636" lon="6.86352">
        <ele>269.3</ele>
        <time>2013-10-23T07:51:20Z</time>
      </trkpt>
      <trkpt lat="49.15635" lon="6.86346">
        <ele>268.6</ele>
        <time>2013-10-23T07:51:25Z</time>
      </trkpt>
      <trkpt lat="49.15634" lon="6.8634">
        <ele>268.1</ele>
        <time>2013-10-23T07:51:30Z</time>
      </trkpt>
      <trkpt lat="49.15634" lon="6.86335">
        <ele>267.9</ele>
        <time>2013-10-23T07:51:35Z</time>
      </trkpt>
      <trkpt lat="49.15636" lon="6.8633">
        <ele>267.6</ele>
        <time>2013-10-23T07:51:40Z</time>
      </trkpt>
      <trkpt lat="49.15642" lon="6.86319">
        <ele>265.9</ele>
        <time>2013-10-23T07:51:50Z</time>
      </trkpt>
      <trkpt lat="49.15645" lon="6.86313">
        <ele>265.5</ele>
        <time>2013-10-23T07:51:55Z</time>
      </trkpt>
      <trkpt lat="49.15648" lon="6.86307">
        <ele>264.3</ele>
        <time>2013-10-23T07:52:00Z</time>
      </trkpt>
      <trkpt lat="49.15651" lon="6.86302">
        <ele>263.9</ele>
        <time>2013-10-23T07:52:05Z</time>
      </trkpt>
      <trkpt lat="49.15655" lon="6.86299">
        <ele>262.8</ele>
        <time>2013-10-23T07:52:10Z</time>
      </trkpt>
      <trkpt lat="49.15656" lon="6.86295">
        <ele>261.9</ele>
        <time>2013-10-23T07:52:15Z</time>
      </trkpt>
      <trkpt lat="49.15658" lon="6.86295">
        <ele>261</ele>
        <time>2013-10-23T07:52:20Z</time>
      </trkpt>
      <trkpt lat="49.15662" lon="6.8629">
        <ele>259.8</ele>
        <time>2013-10-23T07:52:25Z</time>
      </trkpt>
      <trkpt lat="49.15665" lon="6.86285">
        <ele>259.6</ele>
        <time>2013-10-23T07:52:30Z</time>
      </trkpt>
      <trkpt lat="49.15667" lon="6.86279">
        <ele>259.2</ele>
        <time>2013-10-23T07:52:35Z</time>
      </trkpt>
      <trkpt lat="49.1567" lon="6.86274">
        <ele>258.6</ele>
        <time>2013-10-23T07:52:40Z</time>
      </trkpt>
      <trkpt lat="49.15675" lon="6.86271">
        <ele>258.2</ele>
        <time>2013-10-23T07:52:45Z</time>
      </trkpt>
      <trkpt lat="49.1568" lon="6.86267">
        <ele>257</ele>
        <time>2013-10-23T07:52:55Z</time>
      </trkpt>
      <trkpt lat="49.15685" lon="6.86264">
        <ele>256.5</ele>
        <time>2013-10-23T07:53:00Z</time>
      </trkpt>
      <trkpt lat="49.15691" lon="6.86261">
        <ele>256.4</ele>
        <time>2013-10-23T07:53:05Z</time>
      </trkpt>
      <trkpt lat="49.15695" lon="6.86258">
        <ele>256.2</ele>
        <time>2013-10-23T07:53:10Z</time>
      </trkpt>
      <trkpt lat="49.15699" lon="6.86257">
        <ele>255.4</ele>
        <time>2013-10-23T07:53:15Z</time>
      </trkpt>
      <trkpt lat="49.15703" lon="6.86259">
        <ele>255.4</ele>
        <time>2013-10-23T07:53:20Z</time>
      </trkpt>
      <trkpt lat="49.15705" lon="6.8626">
        <ele>254.4</ele>
        <time>2013-10-23T07:53:25Z</time>
      </trkpt>
      <trkpt lat="49.15706" lon="6.86262">
        <ele>254.5</ele>
        <time>2013-10-23T07:53:30Z</time>
      </trkpt>
      <trkpt lat="49.15707" lon="6.86259">
        <ele>254.7</ele>
        <time>2013-10-23T07:53:35Z</time>
      </trkpt>
      <trkpt lat="49.15709" lon="6.86255">
        <ele>254.6</ele>
        <time>2013-10-23T07:53:40Z</time>
      </trkpt>
      <trkpt lat="49.15712" lon="6.86254">
        <ele>254.7</ele>
        <time>2013-10-23T07:53:45Z</time>
      </trkpt>
      <trkpt lat="49.15712" lon="6.86255">
        <ele>255.1</ele>
        <time>2013-10-23T07:53:50Z</time>
      </trkpt>
      <trkpt lat="49.15717" lon="6.86259">
        <ele>254.8</ele>
        <time>2013-10-23T07:54:00Z</time>
      </trkpt>
      <trkpt lat="49.15721" lon="6.86259">
        <ele>254.6</ele>
        <time>2013-10-23T07:54:05Z</time>
      </trkpt>
      <trkpt lat="49.15723" lon="6.86256">
        <ele>253.9</ele>
        <time>2013-10-23T07:54:10Z</time>
      </trkpt>
      <trkpt lat="49.15725" lon="6.86255">
        <ele>253</ele>
        <time>2013-10-23T07:54:15Z</time>
      </trkpt>
      <trkpt lat="49.15728" lon="6.86252">
        <ele>252.3</ele>
        <time>2013-10-23T07:54:20Z</time>
      </trkpt>
      <trkpt lat="49.15731" lon="6.86251">
        <ele>252.3</ele>
        <time>2013-10-23T07:54:25Z</time>
      </trkpt>
      <trkpt lat="49.15732" lon="6.86246">
        <ele>251.1</ele>
        <time>2013-10-23T07:54:30Z</time>
      </trkpt>
      <trkpt lat="49.15735" lon="6.86244">
        <ele>250.4</ele>
        <time>2013-10-23T07:54:35Z</time>
      </trkpt>
      <trkpt lat="49.15739" lon="6.86243">
        <ele>250.2</ele>
        <time>2013-10-23T07:54:40Z</time>
      </trkpt>
      <trkpt lat="49.15744" lon="6.86243">
        <ele>250.2</ele>
        <time>2013-10-23T07:54:45Z</time>
      </trkpt>
      <trkpt lat="49.1575" lon="6.86239">
        <ele>248.9</ele>
        <time>2013-10-23T07:54:50Z</time>
      </trkpt>
      <trkpt lat="49.15755" lon="6.86234">
        <ele>248</ele>
        <time>2013-10-23T07:54:55Z</time>
      </trkpt>
      <trkpt lat="49.15767" lon="6.8623">
        <ele>247.6</ele>
        <time>2013-10-23T07:55:05Z</time>
      </trkpt>
      <trkpt lat="49.15771" lon="6.86227">
        <ele>248</ele>
        <time>2013-10-23T07:55:10Z</time>
      </trkpt>
      <trkpt lat="49.15775" lon="6.86224">
        <ele>246.8</ele>
        <time>2013-10-23T07:55:15Z</time>
      </trkpt>
      <trkpt lat="49.15778" lon="6.86221">
        <ele>246</ele>
        <time>2013-10-23T07:55:20Z</time>
      </trkpt>
      <trkpt lat="49.15783" lon="6.86217">
        <ele>246.3</ele>
        <time>2013-10-23T07:55:25Z</time>
      </trkpt>
      <trkpt lat="49.15788" lon="6.86212">
        <ele>246.3</ele>
        <time>2013-10-23T07:55:30Z</time>
      </trkpt>
      <trkpt lat="49.15792" lon="6.86209">
        <ele>245.7</ele>
        <time>2013-10-23T07:55:35Z</time>
      </trkpt>
      <trkpt lat="49.15796" lon="6.86207">
        <ele>245.5</ele>
        <time>2013-10-23T07:55:40Z</time>
      </trkpt>
      <trkpt lat="49.15799" lon="6.86206">
        <ele>244.6</ele>
        <time>2013-10-23T07:55:45Z</time>
      </trkpt>
      <trkpt lat="49.15802" lon="6.86201">
        <ele>243.7</ele>
        <time>2013-10-23T07:55:50Z</time>
      </trkpt>
      <trkpt lat="49.15806" lon="6.86196">
        <ele>243.8</ele>
        <time>2013-10-23T07:55:55Z</time>
      </trkpt>
      <trkpt lat="49.15811" lon="6.86191">
        <ele>243.3</ele>
        <time>2013-10-23T07:56:00Z</time>
      </trkpt>
      <trkpt lat="49.15819" lon="6.86185">
        <ele>241.5</ele>
        <time>2013-10-23T07:56:10Z</time>
      </trkpt>
      <trkpt lat="49.15823" lon="6.8618">
        <ele>240.9</ele>
        <time>2013-10-23T07:56:15Z</time>
      </trkpt>
      <trkpt lat="49.15827" lon="6.86174">
        <ele>240.6</ele>
        <time>2013-10-23T07:56:20Z</time>
      </trkpt>
      <trkpt lat="49.15831" lon="6.86169">
        <ele>240.7</ele>
        <time>2013-10-23T07:56:25Z</time>
      </trkpt>
      <trkpt lat="49.15835" lon="6.86164">
        <ele>240</ele>
        <time>2013-10-23T07:56:30Z</time>
      </trkpt>
      <trkpt lat="49.15838" lon="6.8616">
        <ele>239.7</ele>
        <time>2013-10-23T07:56:35Z</time>
      </trkpt>
      <trkpt lat="49.15842" lon="6.86155">
        <ele>239.8</ele>
        <time>2013-10-23T07:56:40Z</time>
      </trkpt>
      <trkpt lat="49.15844" lon="6.86147">
        <ele>238.6</ele>
        <time>2013-10-23T07:56:45Z</time>
      </trkpt>
      <trkpt lat="49.15847" lon="6.8614">
        <ele>238.6</ele>
        <time>2013-10-23T07:56:50Z</time>
      </trkpt>
      <trkpt lat="49.1585" lon="6.86133">
        <ele>237.2</ele>
        <time>2013-10-23T07:56:55Z</time>
      </trkpt>
      <trkpt lat="49.15852" lon="6.86127">
        <ele>236.6</ele>
        <time>2013-10-23T07:57:00Z</time>
      </trkpt>
      <trkpt lat="49.15856" lon="6.86121">
        <ele>237</ele>
        <time>2013-10-23T07:57:05Z</time>
      </trkpt>
      <trkpt lat="49.1586" lon="6.86111">
        <ele>235.4</ele>
        <time>2013-10-23T07:57:15Z</time>
      </trkpt>
      <trkpt lat="49.15863" lon="6.86107">
        <ele>235.3</ele>
        <time>2013-10-23T07:57:20Z</time>
      </trkpt>
      <trkpt lat="49.15864" lon="6.86099">
        <ele>236.4</ele>
        <time>2013-10-23T07:57:25Z</time>
      </trkpt>
      <trkpt lat="49.15867" lon="6.86091">
        <ele>235.5</ele>
        <time>2013-10-23T07:57:30Z</time>
      </trkpt>
      <trkpt lat="49.1587" lon="6.86083">
        <ele>235</ele>
        <time>2013-10-23T07:57:35Z</time>
      </trkpt>
      <trkpt lat="49.15873" lon="6.86074">
        <ele>234.6</ele>
        <time>2013-10-23T07:57:40Z</time>
      </trkpt>
      <trkpt lat="49.15876" lon="6.86067">
        <ele>233.3</ele>
        <time>2013-10-23T07:57:45Z</time>
      </trkpt>
      <trkpt lat="49.15878" lon="6.8606">
        <ele>232.5</ele>
        <time>2013-10-23T07:57:50Z</time>
      </trkpt>
      <trkpt lat="49.15882" lon="6.86052">
        <ele>232.7</ele>
        <time>2013-10-23T07:57:55Z</time>
      </trkpt>
      <trkpt lat="49.15885" lon="6.86044">
        <ele>231.7</ele>
        <time>2013-10-23T07:58:00Z</time>
      </trkpt>
      <trkpt lat="49.15888" lon="6.86035">
        <ele>230.6</ele>
        <time>2013-10-23T07:58:05Z</time>
      </trkpt>
      <trkpt lat="49.15892" lon="6.86026">
        <ele>230.3</ele>
        <time>2013-10-23T07:58:10Z</time>
      </trkpt>
      <trkpt lat="49.15897" lon="6.86005">
        <ele>228.8</ele>
        <time>2013-10-23T07:58:20Z</time>
      </trkpt>
      <trkpt lat="49.15899" lon="6.85995">
        <ele>227.3</ele>
        <time>2013-10-23T07:58:25Z</time>
      </trkpt>
      <trkpt lat="49.15902" lon="6.85986">
        <ele>226.6</ele>
        <time>2013-10-23T07:58:30Z</time>
      </trkpt>
      <trkpt lat="49.15906" lon="6.85977">
        <ele>226</ele>
        <time>2013-10-23T07:58:35Z</time>
      </trkpt>
      <trkpt lat="49.15909" lon="6.85968">
        <ele>225.1</ele>
        <time>2013-10-23T07:58:40Z</time>
      </trkpt>
      <trkpt lat="49.15911" lon="6.85961">
        <ele>224.7</ele>
        <time>2013-10-23T07:58:45Z</time>
      </trkpt>
      <trkpt lat="49.15912" lon="6.85956">
        <ele>223.5</ele>
        <time>2013-10-23T07:58:50Z</time>
      </trkpt>
      <trkpt lat="49.15914" lon="6.85949">
        <ele>223.4</ele>
        <time>2013-10-23T07:58:55Z</time>
      </trkpt>
      <trkpt lat="49.15916" lon="6.85941">
        <ele>223.5</ele>
        <time>2013-10-23T07:59:00Z</time>
      </trkpt>
      <trkpt lat="49.15918" lon="6.85933">
        <ele>221.6</ele>
        <time>2013-10-23T07:59:05Z</time>
      </trkpt>
      <trkpt lat="49.1592" lon="6.85924">
        <ele>221</ele>
        <time>2013-10-23T07:59:10Z</time>
      </trkpt>
      <trkpt lat="49.15923" lon="6.85917">
        <ele>220.7</ele>
        <time>2013-10-23T07:59:15Z</time>
      </trkpt>
      <trkpt lat="49.15928" lon="6.85899">
        <ele>219.3</ele>
        <time>2013-10-23T07:59:25Z</time>
      </trkpt>
      <trkpt lat="49.1593" lon="6.85889">
        <ele>218</ele>
        <time>2013-10-23T07:59:30Z</time>
      </trkpt>
      <trkpt lat="49.15933" lon="6.85879">
        <ele>217.4</ele>
        <time>2013-10-23T07:59:35Z</time>
      </trkpt>
      <trkpt lat="49.15934" lon="6.85866">
        <ele>217.4</ele>
        <time>2013-10-23T07:59:40Z</time>
      </trkpt>
      <trkpt lat="49.15935" lon="6.85855">
        <ele>216.7</ele>
        <time>2013-10-23T07:59:45Z</time>
      </trkpt>
      <trkpt lat="49.15935" lon="6.85844">
        <ele>216.6</ele>
        <time>2013-10-23T07:59:50Z</time>
      </trkpt>
      <trkpt lat="49.15936" lon="6.85833">
        <ele>216.5</ele>
        <time>2013-10-23T07:59:55Z</time>
      </trkpt>
      <trkpt lat="49.15937" lon="6.85823">
        <ele>215.5</ele>
        <time>2013-10-23T08:00:00Z</time>
      </trkpt>
      <trkpt lat="49.15938" lon="6.85813">
        <ele>215</ele>
        <time>2013-10-23T08:00:05Z</time>
      </trkpt>
      <trkpt lat="49.1594" lon="6.85802">
        <ele>215.2</ele>
        <time>2013-10-23T08:00:10Z</time>
      </trkpt>
      <trkpt lat="49.15941" lon="6.85793">
        <ele>213.4</ele>
        <time>2013-10-23T08:00:15Z</time>
      </trkpt>
      <trkpt lat="49.15943" lon="6.85784">
        <ele>212.8</ele>
        <time>2013-10-23T08:00:20Z</time>
      </trkpt>
      <trkpt lat="49.15945" lon="6.85769">
        <ele>212.6</ele>
        <time>2013-10-23T08:00:30Z</time>
      </trkpt>
      <trkpt lat="49.15945" lon="6.85766">
        <ele>212.6</ele>
        <time>2013-10-23T08:00:35Z</time>
      </trkpt>
      <trkpt lat="49.15946" lon="6.85764">
        <ele>212.6</ele>
        <time>2013-10-23T08:00:40Z</time>
      </trkpt>
      <trkpt lat="49.15948" lon="6.85765">
        <ele>212.8</ele>
        <time>2013-10-23T08:00:45Z</time>
      </trkpt>
      <trkpt lat="49.1595" lon="6.85765">
        <ele>212.9</ele>
        <time>2013-10-23T08:00:50Z</time>
      </trkpt>
      <trkpt lat="49.15951" lon="6.85764">
        <ele>212.6</ele>
        <time>2013-10-23T08:00:55Z</time>
      </trkpt>
      <trkpt lat="49.1595" lon="6.85762">
        <ele>213.1</ele>
        <time>2013-10-23T08:01:00Z</time>
      </trkpt>
      <trkpt lat="49.1595" lon="6.85761">
        <ele>212.6</ele>
        <time>2013-10-23T08:01:05Z</time>
      </trkpt>
      <trkpt lat="49.15947" lon="6.85759">
        <ele>212.8</ele>
        <time>2013-10-23T08:01:10Z</time>
      </trkpt>
      <trkpt lat="49.15946" lon="6.85756">
        <ele>212.3</ele>
        <time>2013-10-23T08:01:15Z</time>
      </trkpt>
      <trkpt lat="49.15945" lon="6.85755">
        <ele>212</ele>
        <time>2013-10-23T08:01:20Z</time>
      </trkpt>
      <trkpt lat="49.15944" lon="6.85753">
        <ele>211.4</ele>
        <time>2013-10-23T08:01:25Z</time>
      </trkpt>
      <trkpt lat="49.15938" lon="6.85746">
        <ele>212.6</ele>
        <time>2013-10-23T08:01:35Z</time>
      </trkpt>
      <trkpt lat="49.15937" lon="6.85741">
        <ele>212.8</ele>
        <time>2013-10-23T08:01:40Z</time>
      </trkpt>
      <trkpt lat="49.15936" lon="6.85738">
        <ele>212.6</ele>
        <time>2013-10-23T08:01:45Z</time>
      </trkpt>
      <trkpt lat="49.15933" lon="6.85737">
        <ele>212.4</ele>
        <time>2013-10-23T08:01:50Z</time>
      </trkpt>
      <trkpt lat="49.15929" lon="6.85736">
        <ele>212.8</ele>
        <time>2013-10-23T08:01:55Z</time>
      </trkpt>
      <trkpt lat="49.15923" lon="6.85733">
        <ele>212.2</ele>
        <time>2013-10-23T08:02:00Z</time>
      </trkpt>
      <trkpt lat="49.15917" lon="6.85731">
        <ele>212.1</ele>
        <time>2013-10-23T08:02:05Z</time>
      </trkpt>
      <trkpt lat="49.1591" lon="6.85728">
        <ele>211.7</ele>
        <time>2013-10-23T08:02:10Z</time>
      </trkpt>
      <trkpt lat="49.15904" lon="6.85725">
        <ele>211.3</ele>
        <time>2013-10-23T08:02:15Z</time>
      </trkpt>
      <trkpt lat="49.15897" lon="6.85721">
        <ele>212.1</ele>
        <time>2013-10-23T08:02:20Z</time>
      </trkpt>
      <trkpt lat="49.1589" lon="6.85714">
        <ele>212.3</ele>
        <time>2013-10-23T08:02:25Z</time>
      </trkpt>
      <trkpt lat="49.15883" lon="6.85707">
        <ele>211.8</ele>
        <time>2013-10-23T08:02:30Z</time>
      </trkpt>
      <trkpt lat="49.15872" lon="6.85693">
        <ele>212.7</ele>
        <time>2013-10-23T08:02:40Z</time>
      </trkpt>
      <trkpt lat="49.15869" lon="6.85685">
        <ele>212.6</ele>
        <time>2013-10-23T08:02:45Z</time>
      </trkpt>
      <trkpt lat="49.15866" lon="6.85678">
        <ele>211.7</ele>
        <time>2013-10-23T08:02:50Z</time>
      </trkpt>
      <trkpt lat="49.15861" lon="6.85675">
        <ele>211.6</ele>
        <time>2013-10-23T08:02:55Z</time>
      </trkpt>
      <trkpt lat="49.15855" lon="6.85671">
        <ele>211.9</ele>
        <time>2013-10-23T08:03:00Z</time>
      </trkpt>
      <trkpt lat="49.15848" lon="6.85668">
        <ele>212.7</ele>
        <time>2013-10-23T08:03:05Z</time>
      </trkpt>
      <trkpt lat="49.15843" lon="6.85666">
        <ele>212.2</ele>
        <time>2013-10-23T08:03:10Z</time>
      </trkpt>
      <trkpt lat="49.15838" lon="6.85664">
        <ele>211.6</ele>
        <time>2013-10-23T08:03:15Z</time>
      </trkpt>
      <trkpt lat="49.15832" lon="6.85663">
        <ele>212.3</ele>
        <time>2013-10-23T08:03:20Z</time>
      </trkpt>
      <trkpt lat="49.15827" lon="6.85661">
        <ele>211.8</ele>
        <time>2013-10-23T08:03:25Z</time>
      </trkpt>
      <trkpt lat="49.15822" lon="6.85659">
        <ele>212.4</ele>
        <time>2013-10-23T08:03:30Z</time>
      </trkpt>
      <trkpt lat="49.15817" lon="6.85657">
        <ele>212.4</ele>
        <time>2013-10-23T08:03:35Z</time>
      </trkpt>
      <trkpt lat="49.15806" lon="6.85654">
        <ele>211.7</ele>
        <time>2013-10-23T08:03:45Z</time>
      </trkpt>
      <trkpt lat="49.158" lon="6.85652">
        <ele>211.1</ele>
        <time>2013-10-23T08:03:50Z</time>
      </trkpt>
      <trkpt lat="49.15795" lon="6.8565">
        <ele>211.8</ele>
        <time>2013-10-23T08:03:55Z</time>
      </trkpt>
      <trkpt lat="49.15789" lon="6.85647">
        <ele>212.1</ele>
        <time>2013-10-23T08:04:00Z</time>
      </trkpt>
      <trkpt lat="49.15784" lon="6.85645">
        <ele>213.2</ele>
        <time>2013-10-23T08:04:05Z</time>
      </trkpt>
      <trkpt lat="49.1578" lon="6.85646">
        <ele>211.9</ele>
        <time>2013-10-23T08:04:10Z</time>
      </trkpt>
      <trkpt lat="49.15773" lon="6.85644">
        <ele>212.3</ele>
        <time>2013-10-23T08:04:15Z</time>
      </trkpt>
      <trkpt lat="49.15768" lon="6.85644">
        <ele>212.4</ele>
        <time>2013-10-23T08:04:20Z</time>
      </trkpt>
      <trkpt lat="49.15762" lon="6.85642">
        <ele>211.8</ele>
        <time>2013-10-23T08:04:25Z</time>
      </trkpt>
      <trkpt lat="49.15757" lon="6.85641">
        <ele>210.8</ele>
        <time>2013-10-23T08:04:30Z</time>
      </trkpt>
      <trkpt lat="49.15752" lon="6.85641">
        <ele>212</ele>
        <time>2013-10-23T08:04:35Z</time>
      </trkpt>
      <trkpt lat="49.15747" lon="6.8564">
        <ele>212.2</ele>
        <time>2013-10-23T08:04:40Z</time>
      </trkpt>
      <trkpt lat="49.15735" lon="6.85634">
        <ele>212.6</ele>
        <time>2013-10-23T08:04:50Z</time>
      </trkpt>
      <trkpt lat="49.15729" lon="6.85633">
        <ele>211.1</ele>
        <time>2013-10-23T08:04:55Z</time>
      </trkpt>
      <trkpt lat="49.15723" lon="6.8563">
        <ele>212</ele>
        <time>2013-10-23T08:05:00Z</time>
      </trkpt>
      <trkpt lat="49.15717" lon="6.85626">
        <ele>212</ele>
        <time>2013-10-23T08:05:05Z</time>
      </trkpt>
      <trkpt lat="49.15711" lon="6.85621">
        <ele>211.7</ele>
        <time>2013-10-23T08:05:10Z</time>
      </trkpt>
      <trkpt lat="49.15704" lon="6.85619">
        <ele>211.3</ele>
        <time>2013-10-23T08:05:15Z</time>
      </trkpt>
      <trkpt lat="49.15697" lon="6.85615">
        <ele>211.6</ele>
        <time>2013-10-23T08:05:20Z</time>
      </trkpt>
      <trkpt lat="49.15691" lon="6.85612">
        <ele>212.2</ele>
        <time>2013-10-23T08:05:25Z</time>
      </trkpt>
      <trkpt lat="49.15685" lon="6.85612">
        <ele>212.2</ele>
        <time>2013-10-23T08:05:30Z</time>
      </trkpt>
      <trkpt lat="49.15678" lon="6.85611">
        <ele>212.1</ele>
        <time>2013-10-23T08:05:35Z</time>
      </trkpt>
      <trkpt lat="49.15672" lon="6.85611">
        <ele>212</ele>
        <time>2013-10-23T08:05:40Z</time>
      </trkpt>
      <trkpt lat="49.15664" lon="6.85612">
        <ele>212.5</ele>
        <time>2013-10-23T08:05:45Z</time>
      </trkpt>
      <trkpt lat="49.1565" lon="6.85615">
        <ele>211.6</ele>
        <time>2013-10-23T08:05:55Z</time>
      </trkpt>
      <trkpt lat="49.15643" lon="6.85614">
        <ele>211.2</ele>
        <time>2013-10-23T08:06:00Z</time>
      </trkpt>
      <trkpt lat="49.15636" lon="6.85614">
        <ele>211.2</ele>
        <time>2013-10-23T08:06:05Z</time>
      </trkpt>
      <trkpt lat="49.15629" lon="6.85612">
        <ele>211.4</ele>
        <time>2013-10-23T08:06:10Z</time>
      </trkpt>
      <trkpt lat="49.15624" lon="6.85609">
        <ele>211.3</ele>
        <time>2013-10-23T08:06:15Z</time>
      </trkpt>
      <trkpt lat="49.15617" lon="6.85607">
        <ele>211</ele>
        <time>2013-10-23T08:06:20Z</time>
      </trkpt>
      <trkpt lat="49.15611" lon="6.85605">
        <ele>210.4</ele>
        <time>2013-10-23T08:06:25Z</time>
      </trkpt>
      <trkpt lat="49.15605" lon="6.85604">
        <ele>211.4</ele>
        <time>2013-10-23T08:06:30Z</time>
      </trkpt>
      <trkpt lat="49.156" lon="6.85604">
        <ele>210.8</ele>
        <time>2013-10-23T08:06:35Z</time>
      </trkpt>
      <trkpt lat="49.15594" lon="6.85604">
        <ele>209.9</ele>
        <time>2013-10-23T08:06:40Z</time>
      </trkpt>
      <trkpt lat="49.15588" lon="6.85602">
        <ele>210.5</ele>
        <time>2013-10-23T08:06:45Z</time>
      </trkpt>
      <trkpt lat="49.15582" lon="6.85601">
        <ele>210.8</ele>
        <time>2013-10-23T08:06:50Z</time>
      </trkpt>
      <trkpt lat="49.15571" lon="6.85601">
        <ele>210.7</ele>
        <time>2013-10-23T08:07:00Z</time>
      </trkpt>
      <trkpt lat="49.15564" lon="6.85601">
        <ele>210.5</ele>
        <time>2013-10-23T08:07:05Z</time>
      </trkpt>
      <trkpt lat="49.15558" lon="6.856">
        <ele>211.7</ele>
        <time>2013-10-23T08:07:10Z</time>
      </trkpt>
      <trkpt lat="49.15552" lon="6.856">
        <ele>211.1</ele>
        <time>2013-10-23T08:07:15Z</time>
      </trkpt>
      <trkpt lat="49.15545" lon="6.856">
        <ele>209.8</ele>
        <time>2013-10-23T08:07:20Z</time>
      </trkpt>
      <trkpt lat="49.15539" lon="6.85599">
        <ele>210.2</ele>
        <time>2013-10-23T08:07:25Z</time>
      </trkpt>
      <trkpt lat="49.15534" lon="6.85597">
        <ele>211</ele>
        <time>2013-10-23T08:07:30Z</time>
      </trkpt>
      <trkpt lat="49.15527" lon="6.85596">
        <ele>210.7</ele>
        <time>2013-10-23T08:07:35Z</time>
      </trkpt>
      <trkpt lat="49.1552" lon="6.85594">
        <ele>211.1</ele>
        <time>2013-10-23T08:07:40Z</time>
      </trkpt>
      <trkpt lat="49.15513" lon="6.85592">
        <ele>211.2</ele>
        <time>2013-10-23T08:07:45Z</time>
      </trkpt>
      <trkpt lat="49.15507" lon="6.85589">
        <ele>210.8</ele>
        <time>2013-10-23T08:07:50Z</time>
      </trkpt>
      <trkpt lat="49.15501" lon="6.85588">
        <ele>210.8</ele>
        <time>2013-10-23T08:07:55Z</time>
      </trkpt>
      <trkpt lat="49.15486" lon="6.85584">
        <ele>211.4</ele>
        <time>2013-10-23T08:08:07Z</time>
      </trkpt>
      <trkpt lat="49.15479" lon="6.85581">
        <ele>211.9</ele>
        <time>2013-10-23T08:08:12Z</time>
      </trkpt>
      <trkpt lat="49.15472" lon="6.85578">
        <ele>211.1</ele>
        <time>2013-10-23T08:08:17Z</time>
      </trkpt>
      <trkpt lat="49.15464" lon="6.85576">
        <ele>211</ele>
        <time>2013-10-23T08:08:22Z</time>
      </trkpt>
      <trkpt lat="49.15457" lon="6.85575">
        <ele>212</ele>
        <time>2013-10-23T08:08:27Z</time>
      </trkpt>
      <trkpt lat="49.1545" lon="6.85573">
        <ele>211</ele>
        <time>2013-10-23T08:08:32Z</time>
      </trkpt>
      <trkpt lat="49.15444" lon="6.85572">
        <ele>210.7</ele>
        <time>2013-10-23T08:08:37Z</time>
      </trkpt>
      <trkpt lat="49.1544" lon="6.8557">
        <ele>211</ele>
        <time>2013-10-23T08:08:42Z</time>
      </trkpt>
      <trkpt lat="49.15439" lon="6.85569">
        <ele>210.8</ele>
        <time>2013-10-23T08:08:47Z</time>
      </trkpt>
      <trkpt lat="49.15435" lon="6.85569">
        <ele>210.6</ele>
        <time>2013-10-23T08:08:52Z</time>
      </trkpt>
      <trkpt lat="49.1543" lon="6.85568">
        <ele>210.1</ele>
        <time>2013-10-23T08:08:57Z</time>
      </trkpt>
      <trkpt lat="49.15419" lon="6.85567">
        <ele>209.6</ele>
        <time>2013-10-23T08:09:07Z</time>
      </trkpt>
      <trkpt lat="49.15413" lon="6.85569">
        <ele>209.9</ele>
        <time>2013-10-23T08:09:12Z</time>
      </trkpt>
      <trkpt lat="49.15407" lon="6.85569">
        <ele>211</ele>
        <time>2013-10-23T08:09:17Z</time>
      </trkpt>
      <trkpt lat="49.15401" lon="6.85567">
        <ele>210.7</ele>
        <time>2013-10-23T08:09:22Z</time>
      </trkpt>
      <trkpt lat="49.15395" lon="6.85564">
        <ele>210.2</ele>
        <time>2013-10-23T08:09:27Z</time>
      </trkpt>
      <trkpt lat="49.15389" lon="6.85562">
        <ele>210.7</ele>
        <time>2013-10-23T08:09:32Z</time>
      </trkpt>
      <trkpt lat="49.15382" lon="6.85559">
        <ele>210.3</ele>
        <time>2013-10-23T08:09:37Z</time>
      </trkpt>
      <trkpt lat="49.15376" lon="6.85556">
        <ele>210.2</ele>
        <time>2013-10-23T08:09:42Z</time>
      </trkpt>
      <trkpt lat="49.15369" lon="6.85552">
        <ele>209.7</ele>
        <time>2013-10-23T08:09:47Z</time>
      </trkpt>
      <trkpt lat="49.15362" lon="6.85551">
        <ele>210</ele>
        <time>2013-10-23T08:09:52Z</time>
      </trkpt>
      <trkpt lat="49.15355" lon="6.85551">
        <ele>210.4</ele>
        <time>2013-10-23T08:09:57Z</time>
      </trkpt>
      <trkpt lat="49.15349" lon="6.85549">
        <ele>210.3</ele>
        <time>2013-10-23T08:10:02Z</time>
      </trkpt>
      <trkpt lat="49.15338" lon="6.8555">
        <ele>210.8</ele>
        <time>2013-10-23T08:10:12Z</time>
      </trkpt>
      <trkpt lat="49.15332" lon="6.85552">
        <ele>210.7</ele>
        <time>2013-10-23T08:10:17Z</time>
      </trkpt>
      <trkpt lat="49.15326" lon="6.85552">
        <ele>210.3</ele>
        <time>2013-10-23T08:10:22Z</time>
      </trkpt>
      <trkpt lat="49.15321" lon="6.8555">
        <ele>210.6</ele>
        <time>2013-10-23T08:10:27Z</time>
      </trkpt>
      <trkpt lat="49.15316" lon="6.85546">
        <ele>211.3</ele>
        <time>2013-10-23T08:10:32Z</time>
      </trkpt>
      <trkpt lat="49.15311" lon="6.85541">
        <ele>210.5</ele>
        <time>2013-10-23T08:10:37Z</time>
      </trkpt>
      <trkpt lat="49.15307" lon="6.85535">
        <ele>210.8</ele>
        <time>2013-10-23T08:10:42Z</time>
      </trkpt>
      <trkpt lat="49.15301" lon="6.85533">
        <ele>211</ele>
        <time>2013-10-23T08:10:47Z</time>
      </trkpt>
      <trkpt lat="49.15295" lon="6.85532">
        <ele>210.4</ele>
        <time>2013-10-23T08:10:52Z</time>
      </trkpt>
      <trkpt lat="49.15289" lon="6.85532">
        <ele>210.9</ele>
        <time>2013-10-23T08:10:57Z</time>
      </trkpt>
      <trkpt lat="49.15282" lon="6.8553">
        <ele>209.4</ele>
        <time>2013-10-23T08:11:02Z</time>
      </trkpt>
      <trkpt lat="49.15276" lon="6.85529">
        <ele>210.6</ele>
        <time>2013-10-23T08:11:07Z</time>
      </trkpt>
      <trkpt lat="49.15263" lon="6.85525">
        <ele>210.5</ele>
        <time>2013-10-23T08:11:17Z</time>
      </trkpt>
      <trkpt lat="49.15256" lon="6.85523">
        <ele>210.3</ele>
        <time>2013-10-23T08:11:22Z</time>
      </trkpt>
      <trkpt lat="49.15249" lon="6.85521">
        <ele>210.7</ele>
        <time>2013-10-23T08:11:27Z</time>
      </trkpt>
      <trkpt lat="49.15241" lon="6.85518">
        <ele>210.5</ele>
        <time>2013-10-23T08:11:32Z</time>
      </trkpt>
      <trkpt lat="49.15234" lon="6.85515">
        <ele>210.9</ele>
        <time>2013-10-23T08:11:37Z</time>
      </trkpt>
      <trkpt lat="49.15228" lon="6.85512">
        <ele>210.9</ele>
        <time>2013-10-23T08:11:42Z</time>
      </trkpt>
      <trkpt lat="49.15224" lon="6.85508">
        <ele>210</ele>
        <time>2013-10-23T08:11:47Z</time>
      </trkpt>
      <trkpt lat="49.15221" lon="6.85505">
        <ele>210.5</ele>
        <time>2013-10-23T08:11:52Z</time>
      </trkpt>
      <trkpt lat="49.1522" lon="6.85499">
        <ele>210.9</ele>
        <time>2013-10-23T08:11:57Z</time>
      </trkpt>
      <trkpt lat="49.15218" lon="6.85492">
        <ele>210.1</ele>
        <time>2013-10-23T08:12:02Z</time>
      </trkpt>
      <trkpt lat="49.15217" lon="6.85484">
        <ele>211</ele>
        <time>2013-10-23T08:12:07Z</time>
      </trkpt>
      <trkpt lat="49.15217" lon="6.85475">
        <ele>210.2</ele>
        <time>2013-10-23T08:12:12Z</time>
      </trkpt>
      <trkpt lat="49.15217" lon="6.85459">
        <ele>209.1</ele>
        <time>2013-10-23T08:12:22Z</time>
      </trkpt>
      <trkpt lat="49.15216" lon="6.8545">
        <ele>208.2</ele>
        <time>2013-10-23T08:12:27Z</time>
      </trkpt>
      <trkpt lat="49.15216" lon="6.85441">
        <ele>208</ele>
        <time>2013-10-23T08:12:32Z</time>
      </trkpt>
      <trkpt lat="49.15216" lon="6.85431">
        <ele>207.6</ele>
        <time>2013-10-23T08:12:37Z</time>
      </trkpt>
      <trkpt lat="49.15216" lon="6.85419">
        <ele>207.7</ele>
        <time>2013-10-23T08:12:42Z</time>
      </trkpt>
      <trkpt lat="49.15216" lon="6.8541">
        <ele>207.2</ele>
        <time>2013-10-23T08:12:47Z</time>
      </trkpt>
      <trkpt lat="49.15216" lon="6.854">
        <ele>207.6</ele>
        <time>2013-10-23T08:12:52Z</time>
      </trkpt>
      <trkpt lat="49.15218" lon="6.85393">
        <ele>207.1</ele>
        <time>2013-10-23T08:12:57Z</time>
      </trkpt>
      <trkpt lat="49.15218" lon="6.85383">
        <ele>207.4</ele>
        <time>2013-10-23T08:13:02Z</time>
      </trkpt>
      <trkpt lat="49.15219" lon="6.85374">
        <ele>206.4</ele>
        <time>2013-10-23T08:13:07Z</time>
      </trkpt>
      <trkpt lat="49.15219" lon="6.85367">
        <ele>207</ele>
        <time>2013-10-23T08:13:12Z</time>
      </trkpt>
      <trkpt lat="49.15219" lon="6.85361">
        <ele>207.7</ele>
        <time>2013-10-23T08:13:17Z</time>
      </trkpt>
      <trkpt lat="49.1522" lon="6.85346">
        <ele>206.8</ele>
        <time>2013-10-23T08:13:27Z</time>
      </trkpt>
      <trkpt lat="49.15219" lon="6.85339">
        <ele>206.5</ele>
        <time>2013-10-23T08:13:32Z</time>
      </trkpt>
      <trkpt lat="49.1522" lon="6.85336">
        <ele>207.6</ele>
        <time>2013-10-23T08:13:37Z</time>
      </trkpt>
      <trkpt lat="49.15222" lon="6.85329">
        <ele>207.5</ele>
        <time>2013-10-23T08:13:42Z</time>
      </trkpt>
      <trkpt lat="49.15222" lon="6.85323">
        <ele>207.3</ele>
        <time>2013-10-23T08:13:47Z</time>
      </trkpt>
      <trkpt lat="49.15223" lon="6.85317">
        <ele>207</ele>
        <time>2013-10-23T08:13:52Z</time>
      </trkpt>
      <trkpt lat="49.15223" lon="6.85312">
        <ele>207</ele>
        <time>2013-10-23T08:13:57Z</time>
      </trkpt>
      <trkpt lat="49.15223" lon="6.85306">
        <ele>206.5</ele>
        <time>2013-10-23T08:14:02Z</time>
      </trkpt>
      <trkpt lat="49.15223" lon="6.85299">
        <ele>207.1</ele>
        <time>2013-10-23T08:14:07Z</time>
      </trkpt>
      <trkpt lat="49.15221" lon="6.85295">
        <ele>206.8</ele>
        <time>2013-10-23T08:14:12Z</time>
      </trkpt>
      <trkpt lat="49.15216" lon="6.85292">
        <ele>207.1</ele>
        <time>2013-10-23T08:14:17Z</time>
      </trkpt>
      <trkpt lat="49.15214" lon="6.85291">
        <ele>206.7</ele>
        <time>2013-10-23T08:14:22Z</time>
      </trkpt>
      <trkpt lat="49.15212" lon="6.8529">
        <ele>207.8</ele>
        <time>2013-10-23T08:14:32Z</time>
      </trkpt>
      <trkpt lat="49.15209" lon="6.85291">
        <ele>207.5</ele>
        <time>2013-10-23T08:14:37Z</time>
      </trkpt>
      <trkpt lat="49.15204" lon="6.85292">
        <ele>207</ele>
        <time>2013-10-23T08:14:42Z</time>
      </trkpt>
      <trkpt lat="49.152" lon="6.8529">
        <ele>207.3</ele>
        <time>2013-10-23T08:14:47Z</time>
      </trkpt>
      <trkpt lat="49.15196" lon="6.85288">
        <ele>207.1</ele>
        <time>2013-10-23T08:14:52Z</time>
      </trkpt>
      <trkpt lat="49.15192" lon="6.85287">
        <ele>206.6</ele>
        <time>2013-10-23T08:14:57Z</time>
      </trkpt>
      <trkpt lat="49.15188" lon="6.85284">
        <ele>206.8</ele>
        <time>2013-10-23T08:15:02Z</time>
      </trkpt>
      <trkpt lat="49.15183" lon="6.85279">
        <ele>207.2</ele>
        <time>2013-10-23T08:15:07Z</time>
      </trkpt>
      <trkpt lat="49.15178" lon="6.85274">
        <ele>206.3</ele>
        <time>2013-10-23T08:15:12Z</time>
      </trkpt>
      <trkpt lat="49.15171" lon="6.85271">
        <ele>207.5</ele>
        <time>2013-10-23T08:15:17Z</time>
      </trkpt>
      <trkpt lat="49.15165" lon="6.85271">
        <ele>207.2</ele>
        <time>2013-10-23T08:15:22Z</time>
      </trkpt>
      <trkpt lat="49.15159" lon="6.8527">
        <ele>207.1</ele>
        <time>2013-10-23T08:15:27Z</time>
      </trkpt>
      <trkpt lat="49.15148" lon="6.85267">
        <ele>207.7</ele>
        <time>2013-10-23T08:15:37Z</time>
      </trkpt>
      <trkpt lat="49.15143" lon="6.85264">
        <ele>207.6</ele>
        <time>2013-10-23T08:15:42Z</time>
      </trkpt>
      <trkpt lat="49.15138" lon="6.85259">
        <ele>207.1</ele>
        <time>2013-10-23T08:15:47Z</time>
      </trkpt>
      <trkpt lat="49.15133" lon="6.85255">
        <ele>206.3</ele>
        <time>2013-10-23T08:15:52Z</time>
      </trkpt>
      <trkpt lat="49.15128" lon="6.85249">
        <ele>207.2</ele>
        <time>2013-10-23T08:15:57Z</time>
      </trkpt>
      <trkpt lat="49.15124" lon="6.85244">
        <ele>207.5</ele>
        <time>2013-10-23T08:16:02Z</time>
      </trkpt>
      <trkpt lat="49.15121" lon="6.85242">
        <ele>207.5</ele>
        <time>2013-10-23T08:16:07Z</time>
      </trkpt>
      <trkpt lat="49.1512" lon="6.85239">
        <ele>207</ele>
        <time>2013-10-23T08:16:12Z</time>
      </trkpt>
      <trkpt lat="49.15117" lon="6.85235">
        <ele>207</ele>
        <time>2013-10-23T08:16:17Z</time>
      </trkpt>
      <trkpt lat="49.15114" lon="6.85229">
        <ele>207.1</ele>
        <time>2013-10-23T08:16:22Z</time>
      </trkpt>
      <trkpt lat="49.15111" lon="6.85222">
        <ele>207.6</ele>
        <time>2013-10-23T08:16:27Z</time>
      </trkpt>
      <trkpt lat="49.15108" lon="6.85215">
        <ele>208.7</ele>
        <time>2013-10-23T08:16:32Z</time>
      </trkpt>
      <trkpt lat="49.15102" lon="6.85199">
        <ele>208</ele>
        <time>2013-10-23T08:16:42Z</time>
      </trkpt>
      <trkpt lat="49.151" lon="6.85192">
        <ele>207.4</ele>
        <time>2013-10-23T08:16:47Z</time>
      </trkpt>
      <trkpt lat="49.15097" lon="6.85185">
        <ele>206.9</ele>
        <time>2013-10-23T08:16:52Z</time>
      </trkpt>
      <trkpt lat="49.15094" lon="6.85177">
        <ele>207.5</ele>
        <time>2013-10-23T08:16:57Z</time>
      </trkpt>
      <trkpt lat="49.1509" lon="6.85168">
        <ele>207.6</ele>
        <time>2013-10-23T08:17:02Z</time>
      </trkpt>
      <trkpt lat="49.15086" lon="6.85159">
        <ele>207.1</ele>
        <time>2013-10-23T08:17:07Z</time>
      </trkpt>
      <trkpt lat="49.15083" lon="6.8515">
        <ele>206.7</ele>
        <time>2013-10-23T08:17:12Z</time>
      </trkpt>
      <trkpt lat="49.1508" lon="6.85144">
        <ele>206.3</ele>
        <time>2013-10-23T08:17:17Z</time>
      </trkpt>
      <trkpt lat="49.15078" lon="6.85134">
        <ele>206.8</ele>
        <time>2013-10-23T08:17:22Z</time>
      </trkpt>
      <trkpt lat="49.15076" lon="6.85125">
        <ele>207.8</ele>
        <time>2013-10-23T08:17:27Z</time>
      </trkpt>
      <trkpt lat="49.15072" lon="6.85119">
        <ele>206.9</ele>
        <time>2013-10-23T08:17:32Z</time>
      </trkpt>
      <trkpt lat="49.15069" lon="6.85113">
        <ele>207.7</ele>
        <time>2013-10-23T08:17:37Z</time>
      </trkpt>
      <trkpt lat="49.15065" lon="6.85098">
        <ele>207.3</ele>
        <time>2013-10-23T08:17:47Z</time>
      </trkpt>
      <trkpt lat="49.15064" lon="6.8509">
        <ele>207.1</ele>
        <time>2013-10-23T08:17:52Z</time>
      </trkpt>
      <trkpt lat="49.15063" lon="6.8508">
        <ele>206.8</ele>
        <time>2013-10-23T08:17:57Z</time>
      </trkpt>
      <trkpt lat="49.15062" lon="6.85071">
        <ele>206.7</ele>
        <time>2013-10-23T08:18:02Z</time>
      </trkpt>
      <trkpt lat="49.15062" lon="6.85064">
        <ele>207.9</ele>
        <time>2013-10-23T08:18:07Z</time>
      </trkpt>
      <trkpt lat="49.15061" lon="6.85053">
        <ele>207.3</ele>
        <time>2013-10-23T08:18:12Z</time>
      </trkpt>
      <trkpt lat="49.15058" lon="6.85046">
        <ele>207.3</ele>
        <time>2013-10-23T08:18:17Z</time>
      </trkpt>
      <trkpt lat="49.15056" lon="6.85037">
        <ele>207.4</ele>
        <time>2013-10-23T08:18:22Z</time>
      </trkpt>
      <trkpt lat="49.15053" lon="6.85027">
        <ele>207.8</ele>
        <time>2013-10-23T08:18:27Z</time>
      </trkpt>
      <trkpt lat="49.1505" lon="6.85018">
        <ele>207.1</ele>
        <time>2013-10-23T08:18:32Z</time>
      </trkpt>
      <trkpt lat="49.15047" lon="6.85009">
        <ele>207.1</ele>
        <time>2013-10-23T08:18:37Z</time>
      </trkpt>
      <trkpt lat="49.15043" lon="6.85001">
        <ele>206.2</ele>
        <time>2013-10-23T08:18:42Z</time>
      </trkpt>
      <trkpt lat="49.15035" lon="6.84988">
        <ele>206.5</ele>
        <time>2013-10-23T08:18:52Z</time>
      </trkpt>
      <trkpt lat="49.15031" lon="6.84981">
        <ele>207.2</ele>
        <time>2013-10-23T08:18:57Z</time>
      </trkpt>
      <trkpt lat="49.15027" lon="6.84972">
        <ele>207.1</ele>
        <time>2013-10-23T08:19:02Z</time>
      </trkpt>
      <trkpt lat="49.15025" lon="6.84964">
        <ele>206.8</ele>
        <time>2013-10-23T08:19:07Z</time>
      </trkpt>
      <trkpt lat="49.15022" lon="6.84957">
        <ele>205.9</ele>
        <time>2013-10-23T08:19:12Z</time>
      </trkpt>
      <trkpt lat="49.15017" lon="6.84949">
        <ele>206.3</ele>
        <time>2013-10-23T08:19:17Z</time>
      </trkpt>
      <trkpt lat="49.15012" lon="6.84941">
        <ele>206.1</ele>
        <time>2013-10-23T08:19:22Z</time>
      </trkpt>
      <trkpt lat="49.15006" lon="6.84933">
        <ele>206.9</ele>
        <time>2013-10-23T08:19:27Z</time>
      </trkpt>
      <trkpt lat="49.14999" lon="6.84927">
        <ele>207.5</ele>
        <time>2013-10-23T08:19:32Z</time>
      </trkpt>
      <trkpt lat="49.14995" lon="6.8492">
        <ele>206.7</ele>
        <time>2013-10-23T08:19:37Z</time>
      </trkpt>
      <trkpt lat="49.14991" lon="6.84912">
        <ele>207.8</ele>
        <time>2013-10-23T08:19:42Z</time>
      </trkpt>
      <trkpt lat="49.14986" lon="6.84904">
        <ele>206.2</ele>
        <time>2013-10-23T08:19:47Z</time>
      </trkpt>
      <trkpt lat="49.14975" lon="6.84888">
        <ele>206.8</ele>
        <time>2013-10-23T08:19:57Z</time>
      </trkpt>
      <trkpt lat="49.14971" lon="6.84881">
        <ele>206.8</ele>
        <time>2013-10-23T08:20:02Z</time>
      </trkpt>
      <trkpt lat="49.14966" lon="6.84875">
        <ele>206.3</ele>
        <time>2013-10-23T08:20:07Z</time>
      </trkpt>
      <trkpt lat="49.14962" lon="6.84869">
        <ele>205.9</ele>
        <time>2013-10-23T08:20:12Z</time>
      </trkpt>
      <trkpt lat="49.14958" lon="6.84862">
        <ele>205.7</ele>
        <time>2013-10-23T08:20:17Z</time>
      </trkpt>
      <trkpt lat="49.14953" lon="6.84856">
        <ele>206.6</ele>
        <time>2013-10-23T08:20:22Z</time>
      </trkpt>
      <trkpt lat="49.14949" lon="6.84848">
        <ele>206.7</ele>
        <time>2013-10-23T08:20:27Z</time>
      </trkpt>
      <trkpt lat="49.14944" lon="6.8484">
        <ele>207.2</ele>
        <time>2013-10-23T08:20:32Z</time>
      </trkpt>
      <trkpt lat="49.14939" lon="6.84833">
        <ele>207.7</ele>
        <time>2013-10-23T08:20:37Z</time>
      </trkpt>
      <trkpt lat="49.14935" lon="6.84825">
        <ele>208</ele>
        <time>2013-10-23T08:20:42Z</time>
      </trkpt>
      <trkpt lat="49.1493" lon="6.84818">
        <ele>206.9</ele>
        <time>2013-10-23T08:20:47Z</time>
      </trkpt>
      <trkpt lat="49.14925" lon="6.84811">
        <ele>207.3</ele>
        <time>2013-10-23T08:20:52Z</time>
      </trkpt>
      <trkpt lat="49.14917" lon="6.84802">
        <ele>207.1</ele>
        <time>2013-10-23T08:21:02Z</time>
      </trkpt>
      <trkpt lat="49.14913" lon="6.84798">
        <ele>206.8</ele>
        <time>2013-10-23T08:21:07Z</time>
      </trkpt>
      <trkpt lat="49.14909" lon="6.84793">
        <ele>206.7</ele>
        <time>2013-10-23T08:21:12Z</time>
      </trkpt>
      <trkpt lat="49.14904" lon="6.84787">
        <ele>206.4</ele>
        <time>2013-10-23T08:21:17Z</time>
      </trkpt>
      <trkpt lat="49.14898" lon="6.84781">
        <ele>206.8</ele>
        <time>2013-10-23T08:21:22Z</time>
      </trkpt>
      <trkpt lat="49.14893" lon="6.84775">
        <ele>206.8</ele>
        <time>2013-10-23T08:21:27Z</time>
      </trkpt>
      <trkpt lat="49.14888" lon="6.84768">
        <ele>205.8</ele>
        <time>2013-10-23T08:21:32Z</time>
      </trkpt>
      <trkpt lat="49.14883" lon="6.84761">
        <ele>206.5</ele>
        <time>2013-10-23T08:21:37Z</time>
      </trkpt>
      <trkpt lat="49.14879" lon="6.84755">
        <ele>207</ele>
        <time>2013-10-23T08:21:42Z</time>
      </trkpt>
      <trkpt lat="49.14874" lon="6.84749">
        <ele>206.9</ele>
        <time>2013-10-23T08:21:47Z</time>
      </trkpt>
      <trkpt lat="49.14869" lon="6.84743">
        <ele>206.7</ele>
        <time>2013-10-23T08:21:52Z</time>
      </trkpt>
      <trkpt lat="49.14864" lon="6.84737">
        <ele>206.5</ele>
        <time>2013-10-23T08:21:57Z</time>
      </trkpt>
      <trkpt lat="49.14857" lon="6.84723">
        <ele>206.7</ele>
        <time>2013-10-23T08:22:07Z</time>
      </trkpt>
      <trkpt lat="49.14854" lon="6.84715">
        <ele>206.6</ele>
        <time>2013-10-23T08:22:12Z</time>
      </trkpt>
      <trkpt lat="49.14852" lon="6.84708">
        <ele>206.3</ele>
        <time>2013-10-23T08:22:17Z</time>
      </trkpt>
      <trkpt lat="49.1485" lon="6.84699">
        <ele>206</ele>
        <time>2013-10-23T08:22:22Z</time>
      </trkpt>
      <trkpt lat="49.14847" lon="6.84693">
        <ele>207.1</ele>
        <time>2013-10-23T08:22:27Z</time>
      </trkpt>
      <trkpt lat="49.14843" lon="6.84686">
        <ele>206.4</ele>
        <time>2013-10-23T08:22:32Z</time>
      </trkpt>
      <trkpt lat="49.14838" lon="6.84679">
        <ele>207.1</ele>
        <time>2013-10-23T08:22:37Z</time>
      </trkpt>
      <trkpt lat="49.14832" lon="6.8467">
        <ele>206.3</ele>
        <time>2013-10-23T08:22:42Z</time>
      </trkpt>
      <trkpt lat="49.14827" lon="6.84664">
        <ele>207.2</ele>
        <time>2013-10-23T08:22:47Z</time>
      </trkpt>
      <trkpt lat="49.14823" lon="6.84658">
        <ele>207.3</ele>
        <time>2013-10-23T08:22:52Z</time>
      </trkpt>
      <trkpt lat="49.1482" lon="6.84652">
        <ele>207.9</ele>
        <time>2013-10-23T08:22:57Z</time>
      </trkpt>
      <trkpt lat="49.14817" lon="6.84643">
        <ele>206.9</ele>
        <time>2013-10-23T08:23:02Z</time>
      </trkpt>
      <trkpt lat="49.1481" lon="6.84624">
        <ele>207.7</ele>
        <time>2013-10-23T08:23:12Z</time>
      </trkpt>
      <trkpt lat="49.14806" lon="6.84617">
        <ele>207</ele>
        <time>2013-10-23T08:23:17Z</time>
      </trkpt>
      <trkpt lat="49.14803" lon="6.8461">
        <ele>207.5</ele>
        <time>2013-10-23T08:23:22Z</time>
      </trkpt>
      <trkpt lat="49.148" lon="6.84604">
        <ele>206.8</ele>
        <time>2013-10-23T08:23:27Z</time>
      </trkpt>
      <trkpt lat="49.14797" lon="6.84595">
        <ele>207.5</ele>
        <time>2013-10-23T08:23:32Z</time>
      </trkpt>
      <trkpt lat="49.14796" lon="6.84584">
        <ele>207.5</ele>
        <time>2013-10-23T08:23:37Z</time>
      </trkpt>
      <trkpt lat="49.14793" lon="6.84575">
        <ele>207</ele>
        <time>2013-10-23T08:23:42Z</time>
      </trkpt>
      <trkpt lat="49.14791" lon="6.84566">
        <ele>206.9</ele>
        <time>2013-10-23T08:23:47Z</time>
      </trkpt>
      <trkpt lat="49.14787" lon="6.84556">
        <ele>206.8</ele>
        <time>2013-10-23T08:23:52Z</time>
      </trkpt>
      <trkpt lat="49.14784" lon="6.84547">
        <ele>207.3</ele>
        <time>2013-10-23T08:23:57Z</time>
      </trkpt>
      <trkpt lat="49.1478" lon="6.84538">
        <ele>207.4</ele>
        <time>2013-10-23T08:24:02Z</time>
      </trkpt>
      <trkpt lat="49.14776" lon="6.8453">
        <ele>207.2</ele>
        <time>2013-10-23T08:24:07Z</time>
      </trkpt>
      <trkpt lat="49.1477" lon="6.84513">
        <ele>206.3</ele>
        <time>2013-10-23T08:24:17Z</time>
      </trkpt>
      <trkpt lat="49.14766" lon="6.84505">
        <ele>206.9</ele>
        <time>2013-10-23T08:24:22Z</time>
      </trkpt>
      <trkpt lat="49.14762" lon="6.84496">
        <ele>206.8</ele>
        <time>2013-10-23T08:24:27Z</time>
      </trkpt>
      <trkpt lat="49.14758" lon="6.84489">
        <ele>208</ele>
        <time>2013-10-23T08:24:32Z</time>
      </trkpt>
      <trkpt lat="49.14755" lon="6.84481">
        <ele>207.8</ele>
        <time>2013-10-23T08:24:37Z</time>
      </trkpt>
      <trkpt lat="49.14752" lon="6.84473">
        <ele>206.4</ele>
        <time>2013-10-23T08:24:42Z</time>
      </trkpt>
      <trkpt lat="49.1475" lon="6.84464">
        <ele>207.5</ele>
        <time>2013-10-23T08:24:47Z</time>
      </trkpt>
      <trkpt lat="49.14747" lon="6.84455">
        <ele>207.5</ele>
        <time>2013-10-23T08:24:52Z</time>
      </trkpt>
      <trkpt lat="49.14744" lon="6.84445">
        <ele>206.8</ele>
        <time>2013-10-23T08:24:57Z</time>
      </trkpt>
      <trkpt lat="49.14743" lon="6.84436">
        <ele>207</ele>
        <time>2013-10-23T08:25:02Z</time>
      </trkpt>
      <trkpt lat="49.1474" lon="6.84428">
        <ele>207.6</ele>
        <time>2013-10-23T08:25:07Z</time>
      </trkpt>
      <trkpt lat="49.14736" lon="6.84419">
        <ele>207.6</ele>
        <time>2013-10-23T08:25:12Z</time>
      </trkpt>
      <trkpt lat="49.1473" lon="6.844">
        <ele>207.7</ele>
        <time>2013-10-23T08:25:22Z</time>
      </trkpt>
      <trkpt lat="49.14727" lon="6.84391">
        <ele>207.7</ele>
        <time>2013-10-23T08:25:27Z</time>
      </trkpt>
      <trkpt lat="49.14727" lon="6.84383">
        <ele>207.7</ele>
        <time>2013-10-23T08:25:32Z</time>
      </trkpt>
      <trkpt lat="49.14724" lon="6.84376">
        <ele>207.9</ele>
        <time>2013-10-23T08:25:37Z</time>
      </trkpt>
      <trkpt lat="49.14721" lon="6.84365">
        <ele>207.7</ele>
        <time>2013-10-23T08:25:42Z</time>
      </trkpt>
      <trkpt lat="49.1472" lon="6.84356">
        <ele>207.3</ele>
        <time>2013-10-23T08:25:47Z</time>
      </trkpt>
      <trkpt lat="49.14719" lon="6.84347">
        <ele>208.1</ele>
        <time>2013-10-23T08:25:52Z</time>
      </trkpt>
      <trkpt lat="49.14718" lon="6.84338">
        <ele>208.4</ele>
        <time>2013-10-23T08:25:57Z</time>
      </trkpt>
      <trkpt lat="49.14717" lon="6.84327">
        <ele>208.6</ele>
        <time>2013-10-23T08:26:02Z</time>
      </trkpt>
      <trkpt lat="49.14718" lon="6.84319">
        <ele>207.5</ele>
        <time>2013-10-23T08:26:07Z</time>
      </trkpt>
      <trkpt lat="49.14717" lon="6.84309">
        <ele>208.2</ele>
        <time>2013-10-23T08:26:12Z</time>
      </trkpt>
      <trkpt lat="49.14715" lon="6.84299">
        <ele>207.6</ele>
        <time>2013-10-23T08:26:17Z</time>
      </trkpt>
      <trkpt lat="49.14713" lon="6.84281">
        <ele>208</ele>
        <time>2013-10-23T08:26:27Z</time>
      </trkpt>
      <trkpt lat="49.1471" lon="6.84272">
        <ele>208.1</ele>
        <time>2013-10-23T08:26:32Z</time>
      </trkpt>
      <trkpt lat="49.14707" lon="6.84265">
        <ele>208</ele>
        <time>2013-10-23T08:26:37Z</time>
      </trkpt>
      <trkpt lat="49.14703" lon="6.8426">
        <ele>207.8</ele>
        <time>2013-10-23T08:26:42Z</time>
      </trkpt>
      <trkpt lat="49.14697" lon="6.84253">
        <ele>208.1</ele>
        <time>2013-10-23T08:26:47Z</time>
      </trkpt>
      <trkpt lat="49.1469" lon="6.84246">
        <ele>208.5</ele>
        <time>2013-10-23T08:26:52Z</time>
      </trkpt>
      <trkpt lat="49.14682" lon="6.84238">
        <ele>207.3</ele>
        <time>2013-10-23T08:26:57Z</time>
      </trkpt>
      <trkpt lat="49.14676" lon="6.84231">
        <ele>207.1</ele>
        <time>2013-10-23T08:27:02Z</time>
      </trkpt>
      <trkpt lat="49.1467" lon="6.84223">
        <ele>209</ele>
        <time>2013-10-23T08:27:07Z</time>
      </trkpt>
      <trkpt lat="49.14666" lon="6.84215">
        <ele>207.7</ele>
        <time>2013-10-23T08:27:12Z</time>
      </trkpt>
      <trkpt lat="49.14663" lon="6.84206">
        <ele>208.2</ele>
        <time>2013-10-23T08:27:17Z</time>
      </trkpt>
      <trkpt lat="49.1466" lon="6.84196">
        <ele>207.9</ele>
        <time>2013-10-23T08:27:22Z</time>
      </trkpt>
      <trkpt lat="49.14656" lon="6.84174">
        <ele>208.2</ele>
        <time>2013-10-23T08:27:32Z</time>
      </trkpt>
      <trkpt lat="49.14654" lon="6.84166">
        <ele>208.6</ele>
        <time>2013-10-23T08:27:37Z</time>
      </trkpt>
      <trkpt lat="49.1465" lon="6.84159">
        <ele>207.9</ele>
        <time>2013-10-23T08:27:42Z</time>
      </trkpt>
      <trkpt lat="49.14647" lon="6.84151">
        <ele>208.2</ele>
        <time>2013-10-23T08:27:47Z</time>
      </trkpt>
      <trkpt lat="49.14643" lon="6.84143">
        <ele>208</ele>
        <time>2013-10-23T08:27:52Z</time>
      </trkpt>
      <trkpt lat="49.14639" lon="6.84135">
        <ele>208.3</ele>
        <time>2013-10-23T08:27:57Z</time>
      </trkpt>
      <trkpt lat="49.14636" lon="6.84126">
        <ele>208</ele>
        <time>2013-10-23T08:28:02Z</time>
      </trkpt>
      <trkpt lat="49.14633" lon="6.84118">
        <ele>208.3</ele>
        <time>2013-10-23T08:28:07Z</time>
      </trkpt>
      <trkpt lat="49.14629" lon="6.84111">
        <ele>209</ele>
        <time>2013-10-23T08:28:12Z</time>
      </trkpt>
      <trkpt lat="49.14626" lon="6.84101">
        <ele>207.7</ele>
        <time>2013-10-23T08:28:17Z</time>
      </trkpt>
      <trkpt lat="49.14623" lon="6.84091">
        <ele>208.7</ele>
        <time>2013-10-23T08:28:22Z</time>
      </trkpt>
      <trkpt lat="49.14619" lon="6.84083">
        <ele>208</ele>
        <time>2013-10-23T08:28:27Z</time>
      </trkpt>
      <trkpt lat="49.14613" lon="6.84065">
        <ele>208.2</ele>
        <time>2013-10-23T08:28:37Z</time>
      </trkpt>
      <trkpt lat="49.14612" lon="6.84057">
        <ele>207.8</ele>
        <time>2013-10-23T08:28:42Z</time>
      </trkpt>
      <trkpt lat="49.14609" lon="6.84048">
        <ele>208.1</ele>
        <time>2013-10-23T08:28:47Z</time>
      </trkpt>
      <trkpt lat="49.14607" lon="6.84039">
        <ele>207.3</ele>
        <time>2013-10-23T08:28:52Z</time>
      </trkpt>
      <trkpt lat="49.14606" lon="6.84028">
        <ele>206.9</ele>
        <time>2013-10-23T08:28:57Z</time>
      </trkpt>
      <trkpt lat="49.14606" lon="6.84021">
        <ele>206.7</ele>
        <time>2013-10-23T08:29:02Z</time>
      </trkpt>
      <trkpt lat="49.14605" lon="6.84013">
        <ele>208</ele>
        <time>2013-10-23T08:29:07Z</time>
      </trkpt>
      <trkpt lat="49.14604" lon="6.84004">
        <ele>207.9</ele>
        <time>2013-10-23T08:29:12Z</time>
      </trkpt>
      <trkpt lat="49.14602" lon="6.83994">
        <ele>207.5</ele>
        <time>2013-10-23T08:29:17Z</time>
      </trkpt>
      <trkpt lat="49.14599" lon="6.83985">
        <ele>208.8</ele>
        <time>2013-10-23T08:29:22Z</time>
      </trkpt>
      <trkpt lat="49.14598" lon="6.83977">
        <ele>208.7</ele>
        <time>2013-10-23T08:29:27Z</time>
      </trkpt>
      <trkpt lat="49.14596" lon="6.83969">
        <ele>210.3</ele>
        <time>2013-10-23T08:29:32Z</time>
      </trkpt>
      <trkpt lat="49.14592" lon="6.83949">
        <ele>209.6</ele>
        <time>2013-10-23T08:29:42Z</time>
      </trkpt>
      <trkpt lat="49.1459" lon="6.8394">
        <ele>210.4</ele>
        <time>2013-10-23T08:29:47Z</time>
      </trkpt>
      <trkpt lat="49.14587" lon="6.8393">
        <ele>210.8</ele>
        <time>2013-10-23T08:29:52Z</time>
      </trkpt>
      <trkpt lat="49.14584" lon="6.83921">
        <ele>212.4</ele>
        <time>2013-10-23T08:29:57Z</time>
      </trkpt>
      <trkpt lat="49.1458" lon="6.83911">
        <ele>211.7</ele>
        <time>2013-10-23T08:30:02Z</time>
      </trkpt>
      <trkpt lat="49.14576" lon="6.83901">
        <ele>212.8</ele>
        <time>2013-10-23T08:30:07Z</time>
      </trkpt>
      <trkpt lat="49.14572" lon="6.83891">
        <ele>213.8</ele>
        <time>2013-10-23T08:30:12Z</time>
      </trkpt>
      <trkpt lat="49.14566" lon="6.83882">
        <ele>213</ele>
        <time>2013-10-23T08:30:17Z</time>
      </trkpt>
      <trkpt lat="49.14561" lon="6.83874">
        <ele>212.9</ele>
        <time>2013-10-23T08:30:22Z</time>
      </trkpt>
      <trkpt lat="49.14558" lon="6.83864">
        <ele>211.9</ele>
        <time>2013-10-23T08:30:27Z</time>
      </trkpt>
      <trkpt lat="49.14553" lon="6.83856">
        <ele>211.2</ele>
        <time>2013-10-23T08:30:32Z</time>
      </trkpt>
      <trkpt lat="49.14549" lon="6.83847">
        <ele>211.5</ele>
        <time>2013-10-23T08:30:37Z</time>
      </trkpt>
      <trkpt lat="49.14544" lon="6.83831">
        <ele>211.4</ele>
        <time>2013-10-23T08:30:47Z</time>
      </trkpt>
      <trkpt lat="49.14541" lon="6.8383">
        <ele>210.9</ele>
        <time>2013-10-23T08:30:52Z</time>
      </trkpt>
      <trkpt lat="49.14539" lon="6.83826">
        <ele>210.9</ele>
        <time>2013-10-23T08:30:57Z</time>
      </trkpt>
      <trkpt lat="49.14536" lon="6.83818">
        <ele>210.4</ele>
        <time>2013-10-23T08:31:02Z</time>
      </trkpt>
      <trkpt lat="49.14535" lon="6.8381">
        <ele>210.2</ele>
        <time>2013-10-23T08:31:07Z</time>
      </trkpt>
      <trkpt lat="49.14533" lon="6.83801">
        <ele>209.4</ele>
        <time>2013-10-23T08:31:12Z</time>
      </trkpt>
      <trkpt lat="49.14532" lon="6.83795">
        <ele>209.2</ele>
        <time>2013-10-23T08:31:17Z</time>
      </trkpt>
      <trkpt lat="49.1453" lon="6.83786">
        <ele>208.9</ele>
        <time>2013-10-23T08:31:22Z</time>
      </trkpt>
      <trkpt lat="49.14528" lon="6.83777">
        <ele>209.7</ele>
        <time>2013-10-23T08:31:27Z</time>
      </trkpt>
      <trkpt lat="49.14524" lon="6.8377">
        <ele>210.4</ele>
        <time>2013-10-23T08:31:32Z</time>
      </trkpt>
      <trkpt lat="49.14519" lon="6.83764">
        <ele>210.3</ele>
        <time>2013-10-23T08:31:37Z</time>
      </trkpt>
      <trkpt lat="49.14514" lon="6.83758">
        <ele>210</ele>
        <time>2013-10-23T08:31:42Z</time>
      </trkpt>
      <trkpt lat="49.14503" lon="6.83747">
        <ele>209.4</ele>
        <time>2013-10-23T08:31:52Z</time>
      </trkpt>
      <trkpt lat="49.14497" lon="6.8374">
        <ele>210.2</ele>
        <time>2013-10-23T08:31:57Z</time>
      </trkpt>
      <trkpt lat="49.1449" lon="6.83733">
        <ele>210.8</ele>
        <time>2013-10-23T08:32:02Z</time>
      </trkpt>
      <trkpt lat="49.14483" lon="6.83726">
        <ele>210.6</ele>
        <time>2013-10-23T08:32:07Z</time>
      </trkpt>
      <trkpt lat="49.14477" lon="6.83718">
        <ele>210.6</ele>
        <time>2013-10-23T08:32:12Z</time>
      </trkpt>
      <trkpt lat="49.14471" lon="6.83712">
        <ele>211.7</ele>
        <time>2013-10-23T08:32:17Z</time>
      </trkpt>
      <trkpt lat="49.14464" lon="6.83706">
        <ele>212</ele>
        <time>2013-10-23T08:32:22Z</time>
      </trkpt>
      <trkpt lat="49.14457" lon="6.83698">
        <ele>211.2</ele>
        <time>2013-10-23T08:32:27Z</time>
      </trkpt>
      <trkpt lat="49.14451" lon="6.8369">
        <ele>212</ele>
        <time>2013-10-23T08:32:32Z</time>
      </trkpt>
      <trkpt lat="49.14447" lon="6.83684">
        <ele>212.6</ele>
        <time>2013-10-23T08:32:37Z</time>
      </trkpt>
      <trkpt lat="49.14442" lon="6.83677">
        <ele>212.7</ele>
        <time>2013-10-23T08:32:42Z</time>
      </trkpt>
      <trkpt lat="49.14437" lon="6.83669">
        <ele>213</ele>
        <time>2013-10-23T08:32:47Z</time>
      </trkpt>
      <trkpt lat="49.14427" lon="6.83657">
        <ele>214.9</ele>
        <time>2013-10-23T08:32:57Z</time>
      </trkpt>
      <trkpt lat="49.14423" lon="6.83651">
        <ele>214.9</ele>
        <time>2013-10-23T08:33:02Z</time>
      </trkpt>
      <trkpt lat="49.14418" lon="6.83645">
        <ele>213.1</ele>
        <time>2013-10-23T08:33:07Z</time>
      </trkpt>
      <trkpt lat="49.14413" lon="6.8364">
        <ele>213.4</ele>
        <time>2013-10-23T08:33:12Z</time>
      </trkpt>
      <trkpt lat="49.14409" lon="6.83634">
        <ele>213.3</ele>
        <time>2013-10-23T08:33:17Z</time>
      </trkpt>
      <trkpt lat="49.14403" lon="6.83629">
        <ele>214.8</ele>
        <time>2013-10-23T08:33:22Z</time>
      </trkpt>
      <trkpt lat="49.14398" lon="6.83622">
        <ele>213.3</ele>
        <time>2013-10-23T08:33:27Z</time>
      </trkpt>
      <trkpt lat="49.14393" lon="6.83617">
        <ele>212.5</ele>
        <time>2013-10-23T08:33:32Z</time>
      </trkpt>
      <trkpt lat="49.14386" lon="6.83613">
        <ele>213.4</ele>
        <time>2013-10-23T08:33:37Z</time>
      </trkpt>
      <trkpt lat="49.14379" lon="6.83608">
        <ele>212.5</ele>
        <time>2013-10-23T08:33:42Z</time>
      </trkpt>
      <trkpt lat="49.14372" lon="6.83602">
        <ele>212.2</ele>
        <time>2013-10-23T08:33:47Z</time>
      </trkpt>
      <trkpt lat="49.14367" lon="6.83597">
        <ele>212.4</ele>
        <time>2013-10-23T08:33:52Z</time>
      </trkpt>
      <trkpt lat="49.14354" lon="6.83585">
        <ele>210.8</ele>
        <time>2013-10-23T08:34:02Z</time>
      </trkpt>
      <trkpt lat="49.14349" lon="6.8358">
        <ele>210.1</ele>
        <time>2013-10-23T08:34:07Z</time>
      </trkpt>
      <trkpt lat="49.14344" lon="6.83573">
        <ele>210.4</ele>
        <time>2013-10-23T08:34:12Z</time>
      </trkpt>
      <trkpt lat="49.14339" lon="6.83566">
        <ele>210</ele>
        <time>2013-10-23T08:34:17Z</time>
      </trkpt>
      <trkpt lat="49.14334" lon="6.83561">
        <ele>209.9</ele>
        <time>2013-10-23T08:34:22Z</time>
      </trkpt>
      <trkpt lat="49.14328" lon="6.83555">
        <ele>209.2</ele>
        <time>2013-10-23T08:34:27Z</time>
      </trkpt>
      <trkpt lat="49.14322" lon="6.8355">
        <ele>209</ele>
        <time>2013-10-23T08:34:32Z</time>
      </trkpt>
      <trkpt lat="49.14316" lon="6.83545">
        <ele>209.3</ele>
        <time>2013-10-23T08:34:37Z</time>
      </trkpt>
      <trkpt lat="49.14311" lon="6.83539">
        <ele>209.1</ele>
        <time>2013-10-23T08:34:42Z</time>
      </trkpt>
      <trkpt lat="49.14308" lon="6.83532">
        <ele>209.1</ele>
        <time>2013-10-23T08:34:47Z</time>
      </trkpt>
      <trkpt lat="49.14302" lon="6.83526">
        <ele>208</ele>
        <time>2013-10-23T08:34:52Z</time>
      </trkpt>
      <trkpt lat="49.14298" lon="6.83519">
        <ele>208.2</ele>
        <time>2013-10-23T08:34:57Z</time>
      </trkpt>
      <trkpt lat="49.14293" lon="6.83504">
        <ele>209.4</ele>
        <time>2013-10-23T08:35:07Z</time>
      </trkpt>
      <trkpt lat="49.14288" lon="6.83497">
        <ele>207.6</ele>
        <time>2013-10-23T08:35:12Z</time>
      </trkpt>
      <trkpt lat="49.14286" lon="6.8349">
        <ele>208.1</ele>
        <time>2013-10-23T08:35:17Z</time>
      </trkpt>
      <trkpt lat="49.14282" lon="6.83483">
        <ele>207.2</ele>
        <time>2013-10-23T08:35:22Z</time>
      </trkpt>
      <trkpt lat="49.14278" lon="6.83476">
        <ele>207.8</ele>
        <time>2013-10-23T08:35:27Z</time>
      </trkpt>
      <trkpt lat="49.14271" lon="6.8347">
        <ele>206.9</ele>
        <time>2013-10-23T08:35:32Z</time>
      </trkpt>
      <trkpt lat="49.14265" lon="6.83464">
        <ele>207.7</ele>
        <time>2013-10-23T08:35:37Z</time>
      </trkpt>
      <trkpt lat="49.14259" lon="6.83457">
        <ele>207.2</ele>
        <time>2013-10-23T08:35:42Z</time>
      </trkpt>
      <trkpt lat="49.14253" lon="6.83451">
        <ele>207.7</ele>
        <time>2013-10-23T08:35:47Z</time>
      </trkpt>
      <trkpt lat="49.14247" lon="6.83443">
        <ele>207.8</ele>
        <time>2013-10-23T08:35:52Z</time>
      </trkpt>
      <trkpt lat="49.14242" lon="6.83436">
        <ele>207.7</ele>
        <time>2013-10-23T08:35:57Z</time>
      </trkpt>
      <trkpt lat="49.14238" lon="6.83429">
        <ele>206.8</ele>
        <time>2013-10-23T08:36:02Z</time>
      </trkpt>
      <trkpt lat="49.14228" lon="6.83413">
        <ele>207.6</ele>
        <time>2013-10-23T08:36:12Z</time>
      </trkpt>
      <trkpt lat="49.14222" lon="6.83405">
        <ele>208.3</ele>
        <time>2013-10-23T08:36:17Z</time>
      </trkpt>
      <trkpt lat="49.14218" lon="6.83398">
        <ele>208.3</ele>
        <time>2013-10-23T08:36:22Z</time>
      </trkpt>
      <trkpt lat="49.14214" lon="6.8339">
        <ele>208.8</ele>
        <time>2013-10-23T08:36:27Z</time>
      </trkpt>
      <trkpt lat="49.14211" lon="6.83385">
        <ele>208.2</ele>
        <time>2013-10-23T08:36:32Z</time>
      </trkpt>
      <trkpt lat="49.14205" lon="6.83377">
        <ele>207.6</ele>
        <time>2013-10-23T08:36:37Z</time>
      </trkpt>
      <trkpt lat="49.14199" lon="6.83371">
        <ele>208</ele>
        <time>2013-10-23T08:36:42Z</time>
      </trkpt>
      <trkpt lat="49.14194" lon="6.83372">
        <ele>208.3</ele>
        <time>2013-10-23T08:36:47Z</time>
      </trkpt>
      <trkpt lat="49.14192" lon="6.83373">
        <ele>207.5</ele>
        <time>2013-10-23T08:36:52Z</time>
      </trkpt>
      <trkpt lat="49.1419" lon="6.83375">
        <ele>208.2</ele>
        <time>2013-10-23T08:36:57Z</time>
      </trkpt>
      <trkpt lat="49.14188" lon="6.83379">
        <ele>208.5</ele>
        <time>2013-10-23T08:37:02Z</time>
      </trkpt>
      <trkpt lat="49.14187" lon="6.83383">
        <ele>208.6</ele>
        <time>2013-10-23T08:37:07Z</time>
      </trkpt>
      <trkpt lat="49.14186" lon="6.83387">
        <ele>207.9</ele>
        <time>2013-10-23T08:37:17Z</time>
      </trkpt>
      <trkpt lat="49.14185" lon="6.8339">
        <ele>208.5</ele>
        <time>2013-10-23T08:37:22Z</time>
      </trkpt>
      <trkpt lat="49.14184" lon="6.83393">
        <ele>208.2</ele>
        <time>2013-10-23T08:37:27Z</time>
      </trkpt>
      <trkpt lat="49.14183" lon="6.83394">
        <ele>207.9</ele>
        <time>2013-10-23T08:37:32Z</time>
      </trkpt>
      <trkpt lat="49.1418" lon="6.83396">
        <ele>208.7</ele>
        <time>2013-10-23T08:37:37Z</time>
      </trkpt>
      <trkpt lat="49.14179" lon="6.83397">
        <ele>208.6</ele>
        <time>2013-10-23T08:37:42Z</time>
      </trkpt>
      <trkpt lat="49.14177" lon="6.83398">
        <ele>209.1</ele>
        <time>2013-10-23T08:37:47Z</time>
      </trkpt>
      <trkpt lat="49.14176" lon="6.83398">
        <ele>208.3</ele>
        <time>2013-10-23T08:37:52Z</time>
      </trkpt>
      <trkpt lat="49.14175" lon="6.83399">
        <ele>208.9</ele>
        <time>2013-10-23T08:37:57Z</time>
      </trkpt>
      <trkpt lat="49.14174" lon="6.83403">
        <ele>207.7</ele>
        <time>2013-10-23T08:38:02Z</time>
      </trkpt>
      <trkpt lat="49.14174" lon="6.83411">
        <ele>207.3</ele>
        <time>2013-10-23T08:38:07Z</time>
      </trkpt>
      <trkpt lat="49.14176" lon="6.83418">
        <ele>208.2</ele>
        <time>2013-10-23T08:38:12Z</time>
      </trkpt>
      <trkpt lat="49.14183" lon="6.83433">
        <ele>207.6</ele>
        <time>2013-10-23T08:38:22Z</time>
      </trkpt>
      <trkpt lat="49.14189" lon="6.8344">
        <ele>207.7</ele>
        <time>2013-10-23T08:38:27Z</time>
      </trkpt>
      <trkpt lat="49.14194" lon="6.83447">
        <ele>207.2</ele>
        <time>2013-10-23T08:38:32Z</time>
      </trkpt>
      <trkpt lat="49.14201" lon="6.83453">
        <ele>207.7</ele>
        <time>2013-10-23T08:38:37Z</time>
      </trkpt>
      <trkpt lat="49.14208" lon="6.83458">
        <ele>206.6</ele>
        <time>2013-10-23T08:38:42Z</time>
      </trkpt>
      <trkpt lat="49.14213" lon="6.83464">
        <ele>207.2</ele>
        <time>2013-10-23T08:38:47Z</time>
      </trkpt>
      <trkpt lat="49.14215" lon="6.83473">
        <ele>207.5</ele>
        <time>2013-10-23T08:38:52Z</time>
      </trkpt>
      <trkpt lat="49.14214" lon="6.83482">
        <ele>206.8</ele>
        <time>2013-10-23T08:38:57Z</time>
      </trkpt>
      <trkpt lat="49.14211" lon="6.8349">
        <ele>206.1</ele>
        <time>2013-10-23T08:39:02Z</time>
      </trkpt>
      <trkpt lat="49.14209" lon="6.83493">
        <ele>206</ele>
        <time>2013-10-23T08:39:07Z</time>
      </trkpt>
      <trkpt lat="49.14205" lon="6.835">
        <ele>206.8</ele>
        <time>2013-10-23T08:39:12Z</time>
      </trkpt>
      <trkpt lat="49.14202" lon="6.83504">
        <ele>207.1</ele>
        <time>2013-10-23T08:39:17Z</time>
      </trkpt>
      <trkpt lat="49.14192" lon="6.83515">
        <ele>207.8</ele>
        <time>2013-10-23T08:39:27Z</time>
      </trkpt>
      <trkpt lat="49.14186" lon="6.83523">
        <ele>208.4</ele>
        <time>2013-10-23T08:39:32Z</time>
      </trkpt>
      <trkpt lat="49.14182" lon="6.83528">
        <ele>207.8</ele>
        <time>2013-10-23T08:39:37Z</time>
      </trkpt>
      <trkpt lat="49.14179" lon="6.83534">
        <ele>206.7</ele>
        <time>2013-10-23T08:39:42Z</time>
      </trkpt>
      <trkpt lat="49.14175" lon="6.8354">
        <ele>206.3</ele>
        <time>2013-10-23T08:39:47Z</time>
      </trkpt>
      <trkpt lat="49.14169" lon="6.83547">
        <ele>207.1</ele>
        <time>2013-10-23T08:39:52Z</time>
      </trkpt>
      <trkpt lat="49.14164" lon="6.83554">
        <ele>207</ele>
        <time>2013-10-23T08:39:57Z</time>
      </trkpt>
      <trkpt lat="49.1416" lon="6.83559">
        <ele>207.1</ele>
        <time>2013-10-23T08:40:02Z</time>
      </trkpt>
      <trkpt lat="49.14155" lon="6.83566">
        <ele>206.6</ele>
        <time>2013-10-23T08:40:07Z</time>
      </trkpt>
      <trkpt lat="49.14151" lon="6.83571">
        <ele>207</ele>
        <time>2013-10-23T08:40:12Z</time>
      </trkpt>
      <trkpt lat="49.14146" lon="6.83577">
        <ele>207.6</ele>
        <time>2013-10-23T08:40:17Z</time>
      </trkpt>
      <trkpt lat="49.14141" lon="6.83582">
        <ele>206.9</ele>
        <time>2013-10-23T08:40:22Z</time>
      </trkpt>
      <trkpt lat="49.1413" lon="6.83591">
        <ele>207.5</ele>
        <time>2013-10-23T08:40:32Z</time>
      </trkpt>
      <trkpt lat="49.14124" lon="6.83598">
        <ele>207.5</ele>
        <time>2013-10-23T08:40:37Z</time>
      </trkpt>
      <trkpt lat="49.14118" lon="6.83607">
        <ele>207.5</ele>
        <time>2013-10-23T08:40:42Z</time>
      </trkpt>
      <trkpt lat="49.14113" lon="6.83614">
        <ele>207</ele>
        <time>2013-10-23T08:40:47Z</time>
      </trkpt>
      <trkpt lat="49.14106" lon="6.83621">
        <ele>207.3</ele>
        <time>2013-10-23T08:40:52Z</time>
      </trkpt>
      <trkpt lat="49.141" lon="6.83626">
        <ele>207.1</ele>
        <time>2013-10-23T08:40:57Z</time>
      </trkpt>
      <trkpt lat="49.14093" lon="6.83633">
        <ele>207</ele>
        <time>2013-10-23T08:41:02Z</time>
      </trkpt>
      <trkpt lat="49.14087" lon="6.83639">
        <ele>207.6</ele>
        <time>2013-10-23T08:41:07Z</time>
      </trkpt>
      <trkpt lat="49.1408" lon="6.83644">
        <ele>207.3</ele>
        <time>2013-10-23T08:41:12Z</time>
      </trkpt>
      <trkpt lat="49.14074" lon="6.83649">
        <ele>207.6</ele>
        <time>2013-10-23T08:41:17Z</time>
      </trkpt>
      <trkpt lat="49.14068" lon="6.83654">
        <ele>207.8</ele>
        <time>2013-10-23T08:41:22Z</time>
      </trkpt>
      <trkpt lat="49.14062" lon="6.83659">
        <ele>208</ele>
        <time>2013-10-23T08:41:27Z</time>
      </trkpt>
      <trkpt lat="49.14054" lon="6.83664">
        <ele>208</ele>
        <time>2013-10-23T08:41:41Z</time>
      </trkpt>
      <trkpt lat="49.14043" lon="6.83683">
        <ele>208</ele>
        <time>2013-10-23T08:41:51Z</time>
      </trkpt>
      <trkpt lat="49.13985" lon="6.83776">
        <ele>209</ele>
        <time>2013-10-23T08:42:37Z</time>
      </trkpt>
      <trkpt lat="49.13991" lon="6.83786">
        <ele>210.4</ele>
        <time>2013-10-23T08:42:47Z</time>
      </trkpt>
      <trkpt lat="49.13997" lon="6.83793">
        <ele>209.6</ele>
        <time>2013-10-23T08:42:52Z</time>
      </trkpt>
      <trkpt lat="49.14003" lon="6.83799">
        <ele>208.9</ele>
        <time>2013-10-23T08:42:57Z</time>
      </trkpt>
      <trkpt lat="49.14009" lon="6.83807">
        <ele>209</ele>
        <time>2013-10-23T08:43:02Z</time>
      </trkpt>
      <trkpt lat="49.14013" lon="6.83815">
        <ele>208.3</ele>
        <time>2013-10-23T08:43:07Z</time>
      </trkpt>
      <trkpt lat="49.14019" lon="6.83821">
        <ele>208.7</ele>
        <time>2013-10-23T08:43:12Z</time>
      </trkpt>
      <trkpt lat="49.14024" lon="6.83828">
        <ele>209.4</ele>
        <time>2013-10-23T08:43:17Z</time>
      </trkpt>
      <trkpt lat="49.14029" lon="6.83835">
        <ele>209.5</ele>
        <time>2013-10-23T08:43:22Z</time>
      </trkpt>
      <trkpt lat="49.14034" lon="6.83841">
        <ele>209.5</ele>
        <time>2013-10-23T08:43:27Z</time>
      </trkpt>
      <trkpt lat="49.14038" lon="6.83848">
        <ele>209.7</ele>
        <time>2013-10-23T08:43:32Z</time>
      </trkpt>
      <trkpt lat="49.14044" lon="6.83854">
        <ele>209.1</ele>
        <time>2013-10-23T08:43:37Z</time>
      </trkpt>
      <trkpt lat="49.14048" lon="6.83861">
        <ele>209.3</ele>
        <time>2013-10-23T08:43:42Z</time>
      </trkpt>
      <trkpt lat="49.14053" lon="6.83869">
        <ele>208.8</ele>
        <time>2013-10-23T08:43:47Z</time>
      </trkpt>
      <trkpt lat="49.14064" lon="6.83881">
        <ele>209</ele>
        <time>2013-10-23T08:43:57Z</time>
      </trkpt>
      <trkpt lat="49.14069" lon="6.83886">
        <ele>209.3</ele>
        <time>2013-10-23T08:44:02Z</time>
      </trkpt>
      <trkpt lat="49.14073" lon="6.83892">
        <ele>209.1</ele>
        <time>2013-10-23T08:44:07Z</time>
      </trkpt>
      <trkpt lat="49.14077" lon="6.83896">
        <ele>209.4</ele>
        <time>2013-10-23T08:44:12Z</time>
      </trkpt>
      <trkpt lat="49.14082" lon="6.83903">
        <ele>209.8</ele>
        <time>2013-10-23T08:44:17Z</time>
      </trkpt>
      <trkpt lat="49.14087" lon="6.8391">
        <ele>209.2</ele>
        <time>2013-10-23T08:44:22Z</time>
      </trkpt>
      <trkpt lat="49.14092" lon="6.83919">
        <ele>209</ele>
        <time>2013-10-23T08:44:27Z</time>
      </trkpt>
      <trkpt lat="49.14097" lon="6.83928">
        <ele>209.1</ele>
        <time>2013-10-23T08:44:32Z</time>
      </trkpt>
      <trkpt lat="49.14102" lon="6.83936">
        <ele>208.8</ele>
        <time>2013-10-23T08:44:37Z</time>
      </trkpt>
      <trkpt lat="49.14107" lon="6.83945">
        <ele>208.4</ele>
        <time>2013-10-23T08:44:42Z</time>
      </trkpt>
      <trkpt lat="49.14111" lon="6.83954">
        <ele>209</ele>
        <time>2013-10-23T08:44:47Z</time>
      </trkpt>
      <trkpt lat="49.14116" lon="6.83963">
        <ele>209.4</ele>
        <time>2013-10-23T08:44:52Z</time>
      </trkpt>
      <trkpt lat="49.14125" lon="6.8398">
        <ele>209.8</ele>
        <time>2013-10-23T08:45:02Z</time>
      </trkpt>
      <trkpt lat="49.14129" lon="6.83988">
        <ele>209.7</ele>
        <time>2013-10-23T08:45:07Z</time>
      </trkpt>
      <trkpt lat="49.1413" lon="6.8399">
        <ele>209.8</ele>
        <time>2013-10-23T08:45:12Z</time>
      </trkpt>
      <trkpt lat="49.14134" lon="6.84">
        <ele>209.2</ele>
        <time>2013-10-23T08:45:17Z</time>
      </trkpt>
      <trkpt lat="49.14138" lon="6.8401">
        <ele>208.7</ele>
        <time>2013-10-23T08:45:22Z</time>
      </trkpt>
      <trkpt lat="49.14141" lon="6.8402">
        <ele>208.8</ele>
        <time>2013-10-23T08:45:27Z</time>
      </trkpt>
      <trkpt lat="49.14144" lon="6.8403">
        <ele>209.5</ele>
        <time>2013-10-23T08:45:32Z</time>
      </trkpt>
      <trkpt lat="49.14147" lon="6.84039">
        <ele>209.5</ele>
        <time>2013-10-23T08:45:37Z</time>
      </trkpt>
      <trkpt lat="49.1415" lon="6.84048">
        <ele>209.8</ele>
        <time>2013-10-23T08:45:42Z</time>
      </trkpt>
      <trkpt lat="49.14153" lon="6.84059">
        <ele>210.1</ele>
        <time>2013-10-23T08:45:47Z</time>
      </trkpt>
      <trkpt lat="49.14156" lon="6.84068">
        <ele>209.6</ele>
        <time>2013-10-23T08:45:52Z</time>
      </trkpt>
      <trkpt lat="49.14159" lon="6.84076">
        <ele>210.5</ele>
        <time>2013-10-23T08:45:57Z</time>
      </trkpt>
      <trkpt lat="49.14164" lon="6.84096">
        <ele>210.4</ele>
        <time>2013-10-23T08:46:07Z</time>
      </trkpt>
      <trkpt lat="49.14167" lon="6.84107">
        <ele>210.8</ele>
        <time>2013-10-23T08:46:12Z</time>
      </trkpt>
      <trkpt lat="49.14169" lon="6.84118">
        <ele>210.9</ele>
        <time>2013-10-23T08:46:17Z</time>
      </trkpt>
      <trkpt lat="49.14171" lon="6.84128">
        <ele>211.1</ele>
        <time>2013-10-23T08:46:22Z</time>
      </trkpt>
      <trkpt lat="49.14173" lon="6.84137">
        <ele>211.1</ele>
        <time>2013-10-23T08:46:27Z</time>
      </trkpt>
      <trkpt lat="49.14176" lon="6.84147">
        <ele>211.8</ele>
        <time>2013-10-23T08:46:32Z</time>
      </trkpt>
      <trkpt lat="49.14179" lon="6.84158">
        <ele>212.4</ele>
        <time>2013-10-23T08:46:37Z</time>
      </trkpt>
      <trkpt lat="49.1418" lon="6.84168">
        <ele>212.6</ele>
        <time>2013-10-23T08:46:42Z</time>
      </trkpt>
      <trkpt lat="49.1418" lon="6.84177">
        <ele>212.8</ele>
        <time>2013-10-23T08:46:47Z</time>
      </trkpt>
      <trkpt lat="49.14179" lon="6.84186">
        <ele>213.3</ele>
        <time>2013-10-23T08:46:52Z</time>
      </trkpt>
      <trkpt lat="49.14174" lon="6.84194">
        <ele>214.8</ele>
        <time>2013-10-23T08:46:57Z</time>
      </trkpt>
      <trkpt lat="49.14168" lon="6.84199">
        <ele>216</ele>
        <time>2013-10-23T08:47:02Z</time>
      </trkpt>
      <trkpt lat="49.14158" lon="6.84205">
        <ele>216.8</ele>
        <time>2013-10-23T08:47:12Z</time>
      </trkpt>
      <trkpt lat="49.14151" lon="6.84207">
        <ele>216.6</ele>
        <time>2013-10-23T08:47:17Z</time>
      </trkpt>
      <trkpt lat="49.14144" lon="6.84209">
        <ele>215.8</ele>
        <time>2013-10-23T08:47:22Z</time>
      </trkpt>
      <trkpt lat="49.14138" lon="6.84212">
        <ele>215.6</ele>
        <time>2013-10-23T08:47:27Z</time>
      </trkpt>
      <trkpt lat="49.14131" lon="6.84214">
        <ele>215.4</ele>
        <time>2013-10-23T08:47:32Z</time>
      </trkpt>
      <trkpt lat="49.14125" lon="6.84215">
        <ele>215.2</ele>
        <time>2013-10-23T08:47:37Z</time>
      </trkpt>
      <trkpt lat="49.14119" lon="6.84214">
        <ele>214.7</ele>
        <time>2013-10-23T08:47:42Z</time>
      </trkpt>
      <trkpt lat="49.14114" lon="6.84215">
        <ele>215</ele>
        <time>2013-10-23T08:47:47Z</time>
      </trkpt>
      <trkpt lat="49.14107" lon="6.84217">
        <ele>215.3</ele>
        <time>2013-10-23T08:47:52Z</time>
      </trkpt>
      <trkpt lat="49.14102" lon="6.84219">
        <ele>214.5</ele>
        <time>2013-10-23T08:47:57Z</time>
      </trkpt>
      <trkpt lat="49.14094" lon="6.84221">
        <ele>215.1</ele>
        <time>2013-10-23T08:48:02Z</time>
      </trkpt>
      <trkpt lat="49.14086" lon="6.8422">
        <ele>215</ele>
        <time>2013-10-23T08:48:07Z</time>
      </trkpt>
      <trkpt lat="49.14071" lon="6.84215">
        <ele>215</ele>
        <time>2013-10-23T08:48:17Z</time>
      </trkpt>
      <trkpt lat="49.14064" lon="6.8421">
        <ele>215.1</ele>
        <time>2013-10-23T08:48:22Z</time>
      </trkpt>
      <trkpt lat="49.14058" lon="6.84205">
        <ele>215.1</ele>
        <time>2013-10-23T08:48:27Z</time>
      </trkpt>
      <trkpt lat="49.14052" lon="6.842">
        <ele>214.9</ele>
        <time>2013-10-23T08:48:32Z</time>
      </trkpt>
      <trkpt lat="49.14047" lon="6.84197">
        <ele>215.2</ele>
        <time>2013-10-23T08:48:37Z</time>
      </trkpt>
      <trkpt lat="49.14042" lon="6.84191">
        <ele>215.7</ele>
        <time>2013-10-23T08:48:42Z</time>
      </trkpt>
      <trkpt lat="49.14036" lon="6.84189">
        <ele>215.4</ele>
        <time>2013-10-23T08:48:47Z</time>
      </trkpt>
      <trkpt lat="49.14035" lon="6.8419">
        <ele>215.2</ele>
        <time>2013-10-23T08:48:52Z</time>
      </trkpt>
      <trkpt lat="49.14035" lon="6.84191">
        <ele>215.5</ele>
        <time>2013-10-23T08:48:57Z</time>
      </trkpt>
      <trkpt lat="49.14034" lon="6.84192">
        <ele>214.9</ele>
        <time>2013-10-23T08:49:02Z</time>
      </trkpt>
      <trkpt lat="49.14032" lon="6.8419">
        <ele>215</ele>
        <time>2013-10-23T08:49:07Z</time>
      </trkpt>
      <trkpt lat="49.1403" lon="6.84188">
        <ele>215.2</ele>
        <time>2013-10-23T08:49:12Z</time>
      </trkpt>
      <trkpt lat="49.14022" lon="6.84184">
        <ele>216.1</ele>
        <time>2013-10-23T08:49:22Z</time>
      </trkpt>
      <trkpt lat="49.14016" lon="6.84184">
        <ele>215.1</ele>
        <time>2013-10-23T08:49:27Z</time>
      </trkpt>
      <trkpt lat="49.14009" lon="6.84185">
        <ele>215.8</ele>
        <time>2013-10-23T08:49:32Z</time>
      </trkpt>
      <trkpt lat="49.14002" lon="6.84186">
        <ele>216.6</ele>
        <time>2013-10-23T08:49:37Z</time>
      </trkpt>
      <trkpt lat="49.13996" lon="6.84185">
        <ele>215.6</ele>
        <time>2013-10-23T08:49:42Z</time>
      </trkpt>
      <trkpt lat="49.13989" lon="6.84185">
        <ele>217</ele>
        <time>2013-10-23T08:49:47Z</time>
      </trkpt>
      <trkpt lat="49.13984" lon="6.84186">
        <ele>216.3</ele>
        <time>2013-10-23T08:49:52Z</time>
      </trkpt>
      <trkpt lat="49.1398" lon="6.84193">
        <ele>216.6</ele>
        <time>2013-10-23T08:49:57Z</time>
      </trkpt>
      <trkpt lat="49.13975" lon="6.84199">
        <ele>217.1</ele>
        <time>2013-10-23T08:50:02Z</time>
      </trkpt>
      <trkpt lat="49.1397" lon="6.84203">
        <ele>216.8</ele>
        <time>2013-10-23T08:50:07Z</time>
      </trkpt>
      <trkpt lat="49.13964" lon="6.84206">
        <ele>216.5</ele>
        <time>2013-10-23T08:50:12Z</time>
      </trkpt>
      <trkpt lat="49.1396" lon="6.8421">
        <ele>217.1</ele>
        <time>2013-10-23T08:50:17Z</time>
      </trkpt>
      <trkpt lat="49.13958" lon="6.84216">
        <ele>217.6</ele>
        <time>2013-10-23T08:50:27Z</time>
      </trkpt>
      <trkpt lat="49.13959" lon="6.84223">
        <ele>217.2</ele>
        <time>2013-10-23T08:50:32Z</time>
      </trkpt>
      <trkpt lat="49.13961" lon="6.84231">
        <ele>217.7</ele>
        <time>2013-10-23T08:50:37Z</time>
      </trkpt>
      <trkpt lat="49.13964" lon="6.84241">
        <ele>217.6</ele>
        <time>2013-10-23T08:50:42Z</time>
      </trkpt>
      <trkpt lat="49.13967" lon="6.84251">
        <ele>217.5</ele>
        <time>2013-10-23T08:50:47Z</time>
      </trkpt>
      <trkpt lat="49.13969" lon="6.84261">
        <ele>217.3</ele>
        <time>2013-10-23T08:50:52Z</time>
      </trkpt>
      <trkpt lat="49.13972" lon="6.8427">
        <ele>217.7</ele>
        <time>2013-10-23T08:50:57Z</time>
      </trkpt>
      <trkpt lat="49.13975" lon="6.84281">
        <ele>218.1</ele>
        <time>2013-10-23T08:51:02Z</time>
      </trkpt>
      <trkpt lat="49.13978" lon="6.84291">
        <ele>218.4</ele>
        <time>2013-10-23T08:51:07Z</time>
      </trkpt>
      <trkpt lat="49.13979" lon="6.843">
        <ele>218.9</ele>
        <time>2013-10-23T08:51:12Z</time>
      </trkpt>
      <trkpt lat="49.13982" lon="6.84308">
        <ele>219.1</ele>
        <time>2013-10-23T08:51:17Z</time>
      </trkpt>
      <trkpt lat="49.13983" lon="6.84319">
        <ele>219.8</ele>
        <time>2013-10-23T08:51:22Z</time>
      </trkpt>
      <trkpt lat="49.13987" lon="6.84339">
        <ele>220.9</ele>
        <time>2013-10-23T08:51:32Z</time>
      </trkpt>
      <trkpt lat="49.13989" lon="6.84348">
        <ele>220.4</ele>
        <time>2013-10-23T08:51:37Z</time>
      </trkpt>
      <trkpt lat="49.13991" lon="6.84356">
        <ele>221.9</ele>
        <time>2013-10-23T08:51:42Z</time>
      </trkpt>
      <trkpt lat="49.13992" lon="6.84365">
        <ele>222</ele>
        <time>2013-10-23T08:51:47Z</time>
      </trkpt>
      <trkpt lat="49.13994" lon="6.84375">
        <ele>222</ele>
        <time>2013-10-23T08:51:52Z</time>
      </trkpt>
      <trkpt lat="49.13995" lon="6.84384">
        <ele>224.1</ele>
        <time>2013-10-23T08:51:57Z</time>
      </trkpt>
      <trkpt lat="49.13997" lon="6.84393">
        <ele>224.5</ele>
        <time>2013-10-23T08:52:02Z</time>
      </trkpt>
      <trkpt lat="49.13998" lon="6.84402">
        <ele>224.2</ele>
        <time>2013-10-23T08:52:07Z</time>
      </trkpt>
      <trkpt lat="49.14" lon="6.84411">
        <ele>224.6</ele>
        <time>2013-10-23T08:52:12Z</time>
      </trkpt>
      <trkpt lat="49.14001" lon="6.84421">
        <ele>225.1</ele>
        <time>2013-10-23T08:52:17Z</time>
      </trkpt>
      <trkpt lat="49.14003" lon="6.84431">
        <ele>225.4</ele>
        <time>2013-10-23T08:52:22Z</time>
      </trkpt>
      <trkpt lat="49.14004" lon="6.84441">
        <ele>225.8</ele>
        <time>2013-10-23T08:52:27Z</time>
      </trkpt>
      <trkpt lat="49.14008" lon="6.8446">
        <ele>227</ele>
        <time>2013-10-23T08:52:37Z</time>
      </trkpt>
      <trkpt lat="49.14009" lon="6.8447">
        <ele>227.9</ele>
        <time>2013-10-23T08:52:42Z</time>
      </trkpt>
      <trkpt lat="49.14013" lon="6.84481">
        <ele>228.1</ele>
        <time>2013-10-23T08:52:47Z</time>
      </trkpt>
      <trkpt lat="49.14018" lon="6.84489">
        <ele>228.6</ele>
        <time>2013-10-23T08:52:52Z</time>
      </trkpt>
      <trkpt lat="49.14021" lon="6.84498">
        <ele>229.5</ele>
        <time>2013-10-23T08:52:57Z</time>
      </trkpt>
      <trkpt lat="49.14023" lon="6.84507">
        <ele>229.8</ele>
        <time>2013-10-23T08:53:02Z</time>
      </trkpt>
      <trkpt lat="49.14025" lon="6.84511">
        <ele>229.7</ele>
        <time>2013-10-23T08:53:07Z</time>
      </trkpt>
      <trkpt lat="49.14026" lon="6.84515">
        <ele>230.6</ele>
        <time>2013-10-23T08:53:12Z</time>
      </trkpt>
      <trkpt lat="49.1403" lon="6.84523">
        <ele>230.4</ele>
        <time>2013-10-23T08:53:17Z</time>
      </trkpt>
      <trkpt lat="49.14034" lon="6.84531">
        <ele>231.3</ele>
        <time>2013-10-23T08:53:22Z</time>
      </trkpt>
      <trkpt lat="49.14038" lon="6.84539">
        <ele>231.8</ele>
        <time>2013-10-23T08:53:27Z</time>
      </trkpt>
      <trkpt lat="49.14043" lon="6.84546">
        <ele>231.6</ele>
        <time>2013-10-23T08:53:32Z</time>
      </trkpt>
      <trkpt lat="49.14051" lon="6.8456">
        <ele>231.9</ele>
        <time>2013-10-23T08:53:42Z</time>
      </trkpt>
      <trkpt lat="49.14055" lon="6.84566">
        <ele>232.6</ele>
        <time>2013-10-23T08:53:47Z</time>
      </trkpt>
      <trkpt lat="49.14058" lon="6.84573">
        <ele>232.1</ele>
        <time>2013-10-23T08:53:52Z</time>
      </trkpt>
      <trkpt lat="49.14062" lon="6.84581">
        <ele>232.3</ele>
        <time>2013-10-23T08:53:57Z</time>
      </trkpt>
      <trkpt lat="49.14065" lon="6.8459">
        <ele>232.2</ele>
        <time>2013-10-23T08:54:02Z</time>
      </trkpt>
      <trkpt lat="49.14069" lon="6.84598">
        <ele>232.1</ele>
        <time>2013-10-23T08:54:07Z</time>
      </trkpt>
      <trkpt lat="49.14073" lon="6.84606">
        <ele>232.8</ele>
        <time>2013-10-23T08:54:12Z</time>
      </trkpt>
      <trkpt lat="49.14076" lon="6.84615">
        <ele>232.7</ele>
        <time>2013-10-23T08:54:17Z</time>
      </trkpt>
      <trkpt lat="49.14079" lon="6.84624">
        <ele>232.4</ele>
        <time>2013-10-23T08:54:22Z</time>
      </trkpt>
      <trkpt lat="49.14082" lon="6.84632">
        <ele>231.8</ele>
        <time>2013-10-23T08:54:27Z</time>
      </trkpt>
      <trkpt lat="49.14084" lon="6.84642">
        <ele>231</ele>
        <time>2013-10-23T08:54:32Z</time>
      </trkpt>
      <trkpt lat="49.14087" lon="6.84651">
        <ele>231</ele>
        <time>2013-10-23T08:54:37Z</time>
      </trkpt>
      <trkpt lat="49.1409" lon="6.8467">
        <ele>229.8</ele>
        <time>2013-10-23T08:54:47Z</time>
      </trkpt>
      <trkpt lat="49.14091" lon="6.84679">
        <ele>229.6</ele>
        <time>2013-10-23T08:54:52Z</time>
      </trkpt>
      <trkpt lat="49.14091" lon="6.84689">
        <ele>228.9</ele>
        <time>2013-10-23T08:54:57Z</time>
      </trkpt>
      <trkpt lat="49.14091" lon="6.84699">
        <ele>229.4</ele>
        <time>2013-10-23T08:55:02Z</time>
      </trkpt>
      <trkpt lat="49.1409" lon="6.84707">
        <ele>229.4</ele>
        <time>2013-10-23T08:55:07Z</time>
      </trkpt>
      <trkpt lat="49.1409" lon="6.84717">
        <ele>229.9</ele>
        <time>2013-10-23T08:55:12Z</time>
      </trkpt>
      <trkpt lat="49.14089" lon="6.84728">
        <ele>228.2</ele>
        <time>2013-10-23T08:55:17Z</time>
      </trkpt>
      <trkpt lat="49.14089" lon="6.84738">
        <ele>227.6</ele>
        <time>2013-10-23T08:55:22Z</time>
      </trkpt>
      <trkpt lat="49.14089" lon="6.84747">
        <ele>227.7</ele>
        <time>2013-10-23T08:55:27Z</time>
      </trkpt>
      <trkpt lat="49.14088" lon="6.84756">
        <ele>227.6</ele>
        <time>2013-10-23T08:55:32Z</time>
      </trkpt>
      <trkpt lat="49.14088" lon="6.84766">
        <ele>227</ele>
        <time>2013-10-23T08:55:37Z</time>
      </trkpt>
      <trkpt lat="49.14087" lon="6.84776">
        <ele>227.5</ele>
        <time>2013-10-23T08:55:42Z</time>
      </trkpt>
      <trkpt lat="49.14086" lon="6.84796">
        <ele>227</ele>
        <time>2013-10-23T08:55:52Z</time>
      </trkpt>
      <trkpt lat="49.14085" lon="6.84806">
        <ele>226.8</ele>
        <time>2013-10-23T08:55:57Z</time>
      </trkpt>
      <trkpt lat="49.14085" lon="6.84816">
        <ele>227.2</ele>
        <time>2013-10-23T08:56:02Z</time>
      </trkpt>
      <trkpt lat="49.14083" lon="6.84827">
        <ele>226.5</ele>
        <time>2013-10-23T08:56:07Z</time>
      </trkpt>
      <trkpt lat="49.14082" lon="6.84838">
        <ele>226.9</ele>
        <time>2013-10-23T08:56:12Z</time>
      </trkpt>
      <trkpt lat="49.14081" lon="6.84848">
        <ele>226.3</ele>
        <time>2013-10-23T08:56:17Z</time>
      </trkpt>
      <trkpt lat="49.1408" lon="6.84858">
        <ele>226.5</ele>
        <time>2013-10-23T08:56:22Z</time>
      </trkpt>
      <trkpt lat="49.14079" lon="6.84868">
        <ele>226.3</ele>
        <time>2013-10-23T08:56:27Z</time>
      </trkpt>
      <trkpt lat="49.14079" lon="6.84877">
        <ele>227</ele>
        <time>2013-10-23T08:56:32Z</time>
      </trkpt>
      <trkpt lat="49.14077" lon="6.84888">
        <ele>227</ele>
        <time>2013-10-23T08:56:37Z</time>
      </trkpt>
      <trkpt lat="49.14077" lon="6.84898">
        <ele>226.7</ele>
        <time>2013-10-23T08:56:42Z</time>
      </trkpt>
      <trkpt lat="49.14077" lon="6.84909">
        <ele>227.1</ele>
        <time>2013-10-23T08:56:47Z</time>
      </trkpt>
      <trkpt lat="49.14077" lon="6.84931">
        <ele>227.9</ele>
        <time>2013-10-23T08:56:57Z</time>
      </trkpt>
      <trkpt lat="49.14078" lon="6.84942">
        <ele>227.3</ele>
        <time>2013-10-23T08:57:02Z</time>
      </trkpt>
      <trkpt lat="49.14079" lon="6.84952">
        <ele>227.5</ele>
        <time>2013-10-23T08:57:07Z</time>
      </trkpt>
      <trkpt lat="49.1408" lon="6.84962">
        <ele>227.9</ele>
        <time>2013-10-23T08:57:12Z</time>
      </trkpt>
      <trkpt lat="49.14082" lon="6.84971">
        <ele>228.6</ele>
        <time>2013-10-23T08:57:17Z</time>
      </trkpt>
      <trkpt lat="49.14084" lon="6.8498">
        <ele>229.7</ele>
        <time>2013-10-23T08:57:22Z</time>
      </trkpt>
      <trkpt lat="49.14086" lon="6.84989">
        <ele>229.6</ele>
        <time>2013-10-23T08:57:27Z</time>
      </trkpt>
      <trkpt lat="49.14088" lon="6.84998">
        <ele>229</ele>
        <time>2013-10-23T08:57:32Z</time>
      </trkpt>
      <trkpt lat="49.1409" lon="6.85007">
        <ele>229.2</ele>
        <time>2013-10-23T08:57:37Z</time>
      </trkpt>
      <trkpt lat="49.14091" lon="6.85017">
        <ele>229.9</ele>
        <time>2013-10-23T08:57:42Z</time>
      </trkpt>
      <trkpt lat="49.14092" lon="6.85028">
        <ele>230.2</ele>
        <time>2013-10-23T08:57:47Z</time>
      </trkpt>
      <trkpt lat="49.14094" lon="6.8504">
        <ele>230.5</ele>
        <time>2013-10-23T08:57:52Z</time>
      </trkpt>
      <trkpt lat="49.14094" lon="6.8506">
        <ele>231</ele>
        <time>2013-10-23T08:58:02Z</time>
      </trkpt>
      <trkpt lat="49.14095" lon="6.85072">
        <ele>231.3</ele>
        <time>2013-10-23T08:58:07Z</time>
      </trkpt>
      <trkpt lat="49.14096" lon="6.85084">
        <ele>230.5</ele>
        <time>2013-10-23T08:58:12Z</time>
      </trkpt>
      <trkpt lat="49.14098" lon="6.85094">
        <ele>230.5</ele>
        <time>2013-10-23T08:58:17Z</time>
      </trkpt>
      <trkpt lat="49.141" lon="6.85103">
        <ele>230.8</ele>
        <time>2013-10-23T08:58:22Z</time>
      </trkpt>
      <trkpt lat="49.14102" lon="6.85113">
        <ele>230.6</ele>
        <time>2013-10-23T08:58:27Z</time>
      </trkpt>
      <trkpt lat="49.14101" lon="6.85122">
        <ele>230</ele>
        <time>2013-10-23T08:58:32Z</time>
      </trkpt>
      <trkpt lat="49.14101" lon="6.85133">
        <ele>230.1</ele>
        <time>2013-10-23T08:58:37Z</time>
      </trkpt>
      <trkpt lat="49.14102" lon="6.85142">
        <ele>229.5</ele>
        <time>2013-10-23T08:58:42Z</time>
      </trkpt>
      <trkpt lat="49.14104" lon="6.85151">
        <ele>229.4</ele>
        <time>2013-10-23T08:58:47Z</time>
      </trkpt>
      <trkpt lat="49.14105" lon="6.85161">
        <ele>228.8</ele>
        <time>2013-10-23T08:58:52Z</time>
      </trkpt>
      <trkpt lat="49.14106" lon="6.85171">
        <ele>228.5</ele>
        <time>2013-10-23T08:58:57Z</time>
      </trkpt>
      <trkpt lat="49.1411" lon="6.8519">
        <ele>227.5</ele>
        <time>2013-10-23T08:59:07Z</time>
      </trkpt>
      <trkpt lat="49.14112" lon="6.85199">
        <ele>226.9</ele>
        <time>2013-10-23T08:59:12Z</time>
      </trkpt>
      <trkpt lat="49.14114" lon="6.85208">
        <ele>226.5</ele>
        <time>2013-10-23T08:59:17Z</time>
      </trkpt>
      <trkpt lat="49.14116" lon="6.85218">
        <ele>225.5</ele>
        <time>2013-10-23T08:59:22Z</time>
      </trkpt>
      <trkpt lat="49.14119" lon="6.85225">
        <ele>225.1</ele>
        <time>2013-10-23T08:59:27Z</time>
      </trkpt>
      <trkpt lat="49.14122" lon="6.85233">
        <ele>224.7</ele>
        <time>2013-10-23T08:59:32Z</time>
      </trkpt>
      <trkpt lat="49.14126" lon="6.8524">
        <ele>224.3</ele>
        <time>2013-10-23T08:59:37Z</time>
      </trkpt>
      <trkpt lat="49.1413" lon="6.85246">
        <ele>223.1</ele>
        <time>2013-10-23T08:59:42Z</time>
      </trkpt>
      <trkpt lat="49.14136" lon="6.85249">
        <ele>223.2</ele>
        <time>2013-10-23T08:59:47Z</time>
      </trkpt>
      <trkpt lat="49.14143" lon="6.8525">
        <ele>222.8</ele>
        <time>2013-10-23T08:59:52Z</time>
      </trkpt>
      <trkpt lat="49.14148" lon="6.85257">
        <ele>222.3</ele>
        <time>2013-10-23T08:59:57Z</time>
      </trkpt>
      <trkpt lat="49.14152" lon="6.85269">
        <ele>221.5</ele>
        <time>2013-10-23T09:00:02Z</time>
      </trkpt>
      <trkpt lat="49.14158" lon="6.85292">
        <ele>220.2</ele>
        <time>2013-10-23T09:00:12Z</time>
      </trkpt>
      <trkpt lat="49.14162" lon="6.85302">
        <ele>220</ele>
        <time>2013-10-23T09:00:17Z</time>
      </trkpt>
      <trkpt lat="49.14165" lon="6.85312">
        <ele>219.4</ele>
        <time>2013-10-23T09:00:22Z</time>
      </trkpt>
      <trkpt lat="49.14169" lon="6.85322">
        <ele>219.4</ele>
        <time>2013-10-23T09:00:27Z</time>
      </trkpt>
      <trkpt lat="49.14172" lon="6.85332">
        <ele>219.3</ele>
        <time>2013-10-23T09:00:32Z</time>
      </trkpt>
      <trkpt lat="49.14174" lon="6.85341">
        <ele>218.9</ele>
        <time>2013-10-23T09:00:37Z</time>
      </trkpt>
      <trkpt lat="49.14178" lon="6.85349">
        <ele>217.9</ele>
        <time>2013-10-23T09:00:42Z</time>
      </trkpt>
      <trkpt lat="49.14182" lon="6.85357">
        <ele>217.4</ele>
        <time>2013-10-23T09:00:47Z</time>
      </trkpt>
      <trkpt lat="49.14185" lon="6.85366">
        <ele>216.9</ele>
        <time>2013-10-23T09:00:52Z</time>
      </trkpt>
      <trkpt lat="49.14188" lon="6.85375">
        <ele>217</ele>
        <time>2013-10-23T09:00:57Z</time>
      </trkpt>
      <trkpt lat="49.14191" lon="6.85384">
        <ele>215.9</ele>
        <time>2013-10-23T09:01:02Z</time>
      </trkpt>
      <trkpt lat="49.14194" lon="6.85389">
        <ele>215.9</ele>
        <time>2013-10-23T09:01:07Z</time>
      </trkpt>
      <trkpt lat="49.14201" lon="6.85403">
        <ele>215</ele>
        <time>2013-10-23T09:01:17Z</time>
      </trkpt>
      <trkpt lat="49.14204" lon="6.85412">
        <ele>214.2</ele>
        <time>2013-10-23T09:01:22Z</time>
      </trkpt>
      <trkpt lat="49.14207" lon="6.85421">
        <ele>214.3</ele>
        <time>2013-10-23T09:01:27Z</time>
      </trkpt>
      <trkpt lat="49.14208" lon="6.8543">
        <ele>213.9</ele>
        <time>2013-10-23T09:01:32Z</time>
      </trkpt>
      <trkpt lat="49.14212" lon="6.85439">
        <ele>213.2</ele>
        <time>2013-10-23T09:01:37Z</time>
      </trkpt>
      <trkpt lat="49.14214" lon="6.85448">
        <ele>213.3</ele>
        <time>2013-10-23T09:01:42Z</time>
      </trkpt>
      <trkpt lat="49.14216" lon="6.85457">
        <ele>213.1</ele>
        <time>2013-10-23T09:01:47Z</time>
      </trkpt>
      <trkpt lat="49.14219" lon="6.85466">
        <ele>213.3</ele>
        <time>2013-10-23T09:01:52Z</time>
      </trkpt>
      <trkpt lat="49.14222" lon="6.85473">
        <ele>213.4</ele>
        <time>2013-10-23T09:01:57Z</time>
      </trkpt>
      <trkpt lat="49.14225" lon="6.85484">
        <ele>212.2</ele>
        <time>2013-10-23T09:02:02Z</time>
      </trkpt>
      <trkpt lat="49.14228" lon="6.85491">
        <ele>211.7</ele>
        <time>2013-10-23T09:02:07Z</time>
      </trkpt>
      <trkpt lat="49.14232" lon="6.85498">
        <ele>211.3</ele>
        <time>2013-10-23T09:02:12Z</time>
      </trkpt>
      <trkpt lat="49.14237" lon="6.85508">
        <ele>211.3</ele>
        <time>2013-10-23T09:02:22Z</time>
      </trkpt>
      <trkpt lat="49.14241" lon="6.85514">
        <ele>211</ele>
        <time>2013-10-23T09:02:27Z</time>
      </trkpt>
      <trkpt lat="49.14246" lon="6.8552">
        <ele>211.7</ele>
        <time>2013-10-23T09:02:32Z</time>
      </trkpt>
      <trkpt lat="49.1425" lon="6.85528">
        <ele>210.6</ele>
        <time>2013-10-23T09:02:37Z</time>
      </trkpt>
      <trkpt lat="49.14256" lon="6.85534">
        <ele>209.8</ele>
        <time>2013-10-23T09:02:42Z</time>
      </trkpt>
      <trkpt lat="49.1426" lon="6.85541">
        <ele>209.5</ele>
        <time>2013-10-23T09:02:47Z</time>
      </trkpt>
      <trkpt lat="49.14265" lon="6.85549">
        <ele>210.5</ele>
        <time>2013-10-23T09:02:52Z</time>
      </trkpt>
      <trkpt lat="49.14269" lon="6.85556">
        <ele>209.9</ele>
        <time>2013-10-23T09:02:57Z</time>
      </trkpt>
      <trkpt lat="49.14272" lon="6.85563">
        <ele>209.5</ele>
        <time>2013-10-23T09:03:02Z</time>
      </trkpt>
      <trkpt lat="49.14273" lon="6.85572">
        <ele>209.3</ele>
        <time>2013-10-23T09:03:07Z</time>
      </trkpt>
      <trkpt lat="49.14276" lon="6.85581">
        <ele>208.8</ele>
        <time>2013-10-23T09:03:12Z</time>
      </trkpt>
      <trkpt lat="49.14279" lon="6.8559">
        <ele>209.2</ele>
        <time>2013-10-23T09:03:17Z</time>
      </trkpt>
      <trkpt lat="49.14286" lon="6.85603">
        <ele>209.4</ele>
        <time>2013-10-23T09:03:27Z</time>
      </trkpt>
      <trkpt lat="49.14288" lon="6.85611">
        <ele>209.3</ele>
        <time>2013-10-23T09:03:32Z</time>
      </trkpt>
      <trkpt lat="49.1429" lon="6.8562">
        <ele>209.1</ele>
        <time>2013-10-23T09:03:37Z</time>
      </trkpt>
      <trkpt lat="49.14291" lon="6.85628">
        <ele>209.2</ele>
        <time>2013-10-23T09:03:42Z</time>
      </trkpt>
      <trkpt lat="49.14294" lon="6.85635">
        <ele>208.9</ele>
        <time>2013-10-23T09:03:47Z</time>
      </trkpt>
      <trkpt lat="49.14297" lon="6.85644">
        <ele>208.8</ele>
        <time>2013-10-23T09:03:52Z</time>
      </trkpt>
      <trkpt lat="49.14298" lon="6.85654">
        <ele>209</ele>
        <time>2013-10-23T09:03:57Z</time>
      </trkpt>
      <trkpt lat="49.143" lon="6.85662">
        <ele>208.4</ele>
        <time>2013-10-23T09:04:02Z</time>
      </trkpt>
      <trkpt lat="49.143" lon="6.85671">
        <ele>208</ele>
        <time>2013-10-23T09:04:07Z</time>
      </trkpt>
      <trkpt lat="49.14298" lon="6.8568">
        <ele>208.5</ele>
        <time>2013-10-23T09:04:12Z</time>
      </trkpt>
      <trkpt lat="49.14296" lon="6.85688">
        <ele>208.4</ele>
        <time>2013-10-23T09:04:17Z</time>
      </trkpt>
      <trkpt lat="49.14293" lon="6.85695">
        <ele>207.5</ele>
        <time>2013-10-23T09:04:22Z</time>
      </trkpt>
      <trkpt lat="49.14288" lon="6.85711">
        <ele>208.9</ele>
        <time>2013-10-23T09:04:32Z</time>
      </trkpt>
      <trkpt lat="49.14286" lon="6.85718">
        <ele>209.1</ele>
        <time>2013-10-23T09:04:37Z</time>
      </trkpt>
      <trkpt lat="49.14278" lon="6.85721">
        <ele>208.7</ele>
        <time>2013-10-23T09:04:42Z</time>
      </trkpt>
      <trkpt lat="49.14269" lon="6.85723">
        <ele>208.6</ele>
        <time>2013-10-23T09:04:49Z</time>
      </trkpt>
      <trkpt lat="49.14259" lon="6.85722">
        <ele>207.9</ele>
        <time>2013-10-23T09:04:54Z</time>
      </trkpt>
      <trkpt lat="49.14249" lon="6.8572">
        <ele>208</ele>
        <time>2013-10-23T09:04:59Z</time>
      </trkpt>
      <trkpt lat="49.1424" lon="6.8572">
        <ele>208.4</ele>
        <time>2013-10-23T09:05:04Z</time>
      </trkpt>
      <trkpt lat="49.14233" lon="6.85719">
        <ele>208.5</ele>
        <time>2013-10-23T09:05:09Z</time>
      </trkpt>
      <trkpt lat="49.14227" lon="6.85722">
        <ele>208.9</ele>
        <time>2013-10-23T09:05:14Z</time>
      </trkpt>
      <trkpt lat="49.14222" lon="6.85723">
        <ele>208.1</ele>
        <time>2013-10-23T09:05:19Z</time>
      </trkpt>
      <trkpt lat="49.14215" lon="6.85723">
        <ele>208.8</ele>
        <time>2013-10-23T09:05:24Z</time>
      </trkpt>
      <trkpt lat="49.14199" lon="6.85721">
        <ele>208.6</ele>
        <time>2013-10-23T09:05:34Z</time>
      </trkpt>
      <trkpt lat="49.14192" lon="6.85723">
        <ele>209</ele>
        <time>2013-10-23T09:05:39Z</time>
      </trkpt>
      <trkpt lat="49.14185" lon="6.85727">
        <ele>208.6</ele>
        <time>2013-10-23T09:05:44Z</time>
      </trkpt>
      <trkpt lat="49.14177" lon="6.85731">
        <ele>209.2</ele>
        <time>2013-10-23T09:05:49Z</time>
      </trkpt>
      <trkpt lat="49.14171" lon="6.85735">
        <ele>209.7</ele>
        <time>2013-10-23T09:05:54Z</time>
      </trkpt>
      <trkpt lat="49.14166" lon="6.85739">
        <ele>210.2</ele>
        <time>2013-10-23T09:05:59Z</time>
      </trkpt>
      <trkpt lat="49.14161" lon="6.85745">
        <ele>210.3</ele>
        <time>2013-10-23T09:06:04Z</time>
      </trkpt>
      <trkpt lat="49.14156" lon="6.85749">
        <ele>210</ele>
        <time>2013-10-23T09:06:09Z</time>
      </trkpt>
      <trkpt lat="49.1415" lon="6.85753">
        <ele>210.1</ele>
        <time>2013-10-23T09:06:14Z</time>
      </trkpt>
      <trkpt lat="49.14144" lon="6.85759">
        <ele>210.5</ele>
        <time>2013-10-23T09:06:19Z</time>
      </trkpt>
      <trkpt lat="49.14137" lon="6.85764">
        <ele>210.3</ele>
        <time>2013-10-23T09:06:24Z</time>
      </trkpt>
      <trkpt lat="49.1413" lon="6.85769">
        <ele>211.1</ele>
        <time>2013-10-23T09:06:29Z</time>
      </trkpt>
      <trkpt lat="49.1412" lon="6.85781">
        <ele>211.3</ele>
        <time>2013-10-23T09:06:39Z</time>
      </trkpt>
      <trkpt lat="49.14116" lon="6.85789">
        <ele>211.7</ele>
        <time>2013-10-23T09:06:44Z</time>
      </trkpt>
      <trkpt lat="49.14111" lon="6.85796">
        <ele>211.1</ele>
        <time>2013-10-23T09:06:49Z</time>
      </trkpt>
      <trkpt lat="49.14104" lon="6.858">
        <ele>211.1</ele>
        <time>2013-10-23T09:06:54Z</time>
      </trkpt>
      <trkpt lat="49.14097" lon="6.85806">
        <ele>212.1</ele>
        <time>2013-10-23T09:06:59Z</time>
      </trkpt>
      <trkpt lat="49.1409" lon="6.85813">
        <ele>212.2</ele>
        <time>2013-10-23T09:07:04Z</time>
      </trkpt>
      <trkpt lat="49.14085" lon="6.85821">
        <ele>212.7</ele>
        <time>2013-10-23T09:07:09Z</time>
      </trkpt>
      <trkpt lat="49.1408" lon="6.85829">
        <ele>212.2</ele>
        <time>2013-10-23T09:07:14Z</time>
      </trkpt>
      <trkpt lat="49.14077" lon="6.85837">
        <ele>211.5</ele>
        <time>2013-10-23T09:07:19Z</time>
      </trkpt>
      <trkpt lat="49.14074" lon="6.85845">
        <ele>211.4</ele>
        <time>2013-10-23T09:07:24Z</time>
      </trkpt>
      <trkpt lat="49.14071" lon="6.85853">
        <ele>211.8</ele>
        <time>2013-10-23T09:07:29Z</time>
      </trkpt>
      <trkpt lat="49.14068" lon="6.85862">
        <ele>211.7</ele>
        <time>2013-10-23T09:07:34Z</time>
      </trkpt>
      <trkpt lat="49.14061" lon="6.8588">
        <ele>212.2</ele>
        <time>2013-10-23T09:07:44Z</time>
      </trkpt>
      <trkpt lat="49.14059" lon="6.85888">
        <ele>212.7</ele>
        <time>2013-10-23T09:07:49Z</time>
      </trkpt>
      <trkpt lat="49.14054" lon="6.85895">
        <ele>212.8</ele>
        <time>2013-10-23T09:07:54Z</time>
      </trkpt>
      <trkpt lat="49.1405" lon="6.85903">
        <ele>213.1</ele>
        <time>2013-10-23T09:07:59Z</time>
      </trkpt>
      <trkpt lat="49.14047" lon="6.85911">
        <ele>213.3</ele>
        <time>2013-10-23T09:08:04Z</time>
      </trkpt>
      <trkpt lat="49.14044" lon="6.85919">
        <ele>214.1</ele>
        <time>2013-10-23T09:08:09Z</time>
      </trkpt>
      <trkpt lat="49.14042" lon="6.85926">
        <ele>214.1</ele>
        <time>2013-10-23T09:08:14Z</time>
      </trkpt>
      <trkpt lat="49.14041" lon="6.85935">
        <ele>214.2</ele>
        <time>2013-10-23T09:08:19Z</time>
      </trkpt>
      <trkpt lat="49.14041" lon="6.85946">
        <ele>214.2</ele>
        <time>2013-10-23T09:08:24Z</time>
      </trkpt>
      <trkpt lat="49.14038" lon="6.85955">
        <ele>214.9</ele>
        <time>2013-10-23T09:08:29Z</time>
      </trkpt>
      <trkpt lat="49.14038" lon="6.85962">
        <ele>215.3</ele>
        <time>2013-10-23T09:08:34Z</time>
      </trkpt>
      <trkpt lat="49.14034" lon="6.8597">
        <ele>215.9</ele>
        <time>2013-10-23T09:08:39Z</time>
      </trkpt>
      <trkpt lat="49.1403" lon="6.85988">
        <ele>217.5</ele>
        <time>2013-10-23T09:08:49Z</time>
      </trkpt>
      <trkpt lat="49.14028" lon="6.85996">
        <ele>218.2</ele>
        <time>2013-10-23T09:08:54Z</time>
      </trkpt>
      <trkpt lat="49.14025" lon="6.86004">
        <ele>218.7</ele>
        <time>2013-10-23T09:08:59Z</time>
      </trkpt>
      <trkpt lat="49.14024" lon="6.86012">
        <ele>218.5</ele>
        <time>2013-10-23T09:09:04Z</time>
      </trkpt>
      <trkpt lat="49.14022" lon="6.86022">
        <ele>219.6</ele>
        <time>2013-10-23T09:09:09Z</time>
      </trkpt>
      <trkpt lat="49.14021" lon="6.86032">
        <ele>219.8</ele>
        <time>2013-10-23T09:09:14Z</time>
      </trkpt>
      <trkpt lat="49.14019" lon="6.8604">
        <ele>219.7</ele>
        <time>2013-10-23T09:09:19Z</time>
      </trkpt>
      <trkpt lat="49.14017" lon="6.86048">
        <ele>219.1</ele>
        <time>2013-10-23T09:09:24Z</time>
      </trkpt>
      <trkpt lat="49.14016" lon="6.86055">
        <ele>219.8</ele>
        <time>2013-10-23T09:09:29Z</time>
      </trkpt>
      <trkpt lat="49.14014" lon="6.86062">
        <ele>220.2</ele>
        <time>2013-10-23T09:09:34Z</time>
      </trkpt>
      <trkpt lat="49.14012" lon="6.8607">
        <ele>220.1</ele>
        <time>2013-10-23T09:09:39Z</time>
      </trkpt>
      <trkpt lat="49.14011" lon="6.86078">
        <ele>220.3</ele>
        <time>2013-10-23T09:09:44Z</time>
      </trkpt>
      <trkpt lat="49.14007" lon="6.86094">
        <ele>220.8</ele>
        <time>2013-10-23T09:09:54Z</time>
      </trkpt>
      <trkpt lat="49.14004" lon="6.86104">
        <ele>220.9</ele>
        <time>2013-10-23T09:09:59Z</time>
      </trkpt>
      <trkpt lat="49.14002" lon="6.86114">
        <ele>220.8</ele>
        <time>2013-10-23T09:10:04Z</time>
      </trkpt>
      <trkpt lat="49.13999" lon="6.86123">
        <ele>219.6</ele>
        <time>2013-10-23T09:10:09Z</time>
      </trkpt>
      <trkpt lat="49.13997" lon="6.86131">
        <ele>219.4</ele>
        <time>2013-10-23T09:10:14Z</time>
      </trkpt>
      <trkpt lat="49.13996" lon="6.8614">
        <ele>219.3</ele>
        <time>2013-10-23T09:10:19Z</time>
      </trkpt>
      <trkpt lat="49.13994" lon="6.8615">
        <ele>219.2</ele>
        <time>2013-10-23T09:10:24Z</time>
      </trkpt>
      <trkpt lat="49.13994" lon="6.86159">
        <ele>218.3</ele>
        <time>2013-10-23T09:10:29Z</time>
      </trkpt>
      <trkpt lat="49.13992" lon="6.86168">
        <ele>218.8</ele>
        <time>2013-10-23T09:10:34Z</time>
      </trkpt>
      <trkpt lat="49.1399" lon="6.86177">
        <ele>219.8</ele>
        <time>2013-10-23T09:10:39Z</time>
      </trkpt>
      <trkpt lat="49.13987" lon="6.86185">
        <ele>219.8</ele>
        <time>2013-10-23T09:10:44Z</time>
      </trkpt>
      <trkpt lat="49.13986" lon="6.86194">
        <ele>220.2</ele>
        <time>2013-10-23T09:10:49Z</time>
      </trkpt>
      <trkpt lat="49.13981" lon="6.8621">
        <ele>219.6</ele>
        <time>2013-10-23T09:10:59Z</time>
      </trkpt>
      <trkpt lat="49.13978" lon="6.86219">
        <ele>219.4</ele>
        <time>2013-10-23T09:11:04Z</time>
      </trkpt>
      <trkpt lat="49.13976" lon="6.86228">
        <ele>218.3</ele>
        <time>2013-10-23T09:11:09Z</time>
      </trkpt>
      <trkpt lat="49.13974" lon="6.86239">
        <ele>217.8</ele>
        <time>2013-10-23T09:11:14Z</time>
      </trkpt>
      <trkpt lat="49.13973" lon="6.86248">
        <ele>217.4</ele>
        <time>2013-10-23T09:11:19Z</time>
      </trkpt>
      <trkpt lat="49.13971" lon="6.86258">
        <ele>216.9</ele>
        <time>2013-10-23T09:11:24Z</time>
      </trkpt>
      <trkpt lat="49.13967" lon="6.86267">
        <ele>216.9</ele>
        <time>2013-10-23T09:11:29Z</time>
      </trkpt>
      <trkpt lat="49.13964" lon="6.86277">
        <ele>216.7</ele>
        <time>2013-10-23T09:11:34Z</time>
      </trkpt>
      <trkpt lat="49.13961" lon="6.86288">
        <ele>216.6</ele>
        <time>2013-10-23T09:11:39Z</time>
      </trkpt>
      <trkpt lat="49.13959" lon="6.86295">
        <ele>216.3</ele>
        <time>2013-10-23T09:11:44Z</time>
      </trkpt>
      <trkpt lat="49.1396" lon="6.86302">
        <ele>216.4</ele>
        <time>2013-10-23T09:11:49Z</time>
      </trkpt>
      <trkpt lat="49.13961" lon="6.86309">
        <ele>216.3</ele>
        <time>2013-10-23T09:11:54Z</time>
      </trkpt>
      <trkpt lat="49.13961" lon="6.86329">
        <ele>216.2</ele>
        <time>2013-10-23T09:12:04Z</time>
      </trkpt>
      <trkpt lat="49.1396" lon="6.8634">
        <ele>216.2</ele>
        <time>2013-10-23T09:12:09Z</time>
      </trkpt>
      <trkpt lat="49.13957" lon="6.86349">
        <ele>216.4</ele>
        <time>2013-10-23T09:12:14Z</time>
      </trkpt>
      <trkpt lat="49.13956" lon="6.8636">
        <ele>216.2</ele>
        <time>2013-10-23T09:12:19Z</time>
      </trkpt>
      <trkpt lat="49.13955" lon="6.86371">
        <ele>215.7</ele>
        <time>2013-10-23T09:12:24Z</time>
      </trkpt>
      <trkpt lat="49.13952" lon="6.86378">
        <ele>216</ele>
        <time>2013-10-23T09:12:29Z</time>
      </trkpt>
      <trkpt lat="49.13952" lon="6.86385">
        <ele>216</ele>
        <time>2013-10-23T09:12:34Z</time>
      </trkpt>
      <trkpt lat="49.13952" lon="6.86392">
        <ele>216.2</ele>
        <time>2013-10-23T09:12:39Z</time>
      </trkpt>
      <trkpt lat="49.13951" lon="6.86401">
        <ele>216</ele>
        <time>2013-10-23T09:12:44Z</time>
      </trkpt>
      <trkpt lat="49.1395" lon="6.86408">
        <ele>215.7</ele>
        <time>2013-10-23T09:12:49Z</time>
      </trkpt>
      <trkpt lat="49.13948" lon="6.86416">
        <ele>215.6</ele>
        <time>2013-10-23T09:12:54Z</time>
      </trkpt>
      <trkpt lat="49.13947" lon="6.86426">
        <ele>217</ele>
        <time>2013-10-23T09:12:59Z</time>
      </trkpt>
      <trkpt lat="49.13946" lon="6.86444">
        <ele>216.4</ele>
        <time>2013-10-23T09:13:09Z</time>
      </trkpt>
      <trkpt lat="49.13945" lon="6.86453">
        <ele>217.3</ele>
        <time>2013-10-23T09:13:14Z</time>
      </trkpt>
      <trkpt lat="49.13943" lon="6.86464">
        <ele>217</ele>
        <time>2013-10-23T09:13:19Z</time>
      </trkpt>
      <trkpt lat="49.13943" lon="6.86472">
        <ele>216.9</ele>
        <time>2013-10-23T09:13:24Z</time>
      </trkpt>
      <trkpt lat="49.13943" lon="6.86481">
        <ele>217.5</ele>
        <time>2013-10-23T09:13:29Z</time>
      </trkpt>
      <trkpt lat="49.13942" lon="6.86491">
        <ele>218.3</ele>
        <time>2013-10-23T09:13:34Z</time>
      </trkpt>
      <trkpt lat="49.1394" lon="6.865">
        <ele>217.9</ele>
        <time>2013-10-23T09:13:39Z</time>
      </trkpt>
      <trkpt lat="49.13938" lon="6.86506">
        <ele>218.7</ele>
        <time>2013-10-23T09:13:44Z</time>
      </trkpt>
      <trkpt lat="49.13935" lon="6.86516">
        <ele>219.2</ele>
        <time>2013-10-23T09:13:49Z</time>
      </trkpt>
      <trkpt lat="49.13932" lon="6.86525">
        <ele>218.5</ele>
        <time>2013-10-23T09:13:54Z</time>
      </trkpt>
      <trkpt lat="49.13927" lon="6.86535">
        <ele>218.5</ele>
        <time>2013-10-23T09:13:59Z</time>
      </trkpt>
      <trkpt lat="49.13925" lon="6.86546">
        <ele>219</ele>
        <time>2013-10-23T09:14:04Z</time>
      </trkpt>
      <trkpt lat="49.13922" lon="6.86563">
        <ele>218</ele>
        <time>2013-10-23T09:14:14Z</time>
      </trkpt>
      <trkpt lat="49.13923" lon="6.86572">
        <ele>217.7</ele>
        <time>2013-10-23T09:14:19Z</time>
      </trkpt>
      <trkpt lat="49.13922" lon="6.8658">
        <ele>218.6</ele>
        <time>2013-10-23T09:14:24Z</time>
      </trkpt>
      <trkpt lat="49.13923" lon="6.86588">
        <ele>218.7</ele>
        <time>2013-10-23T09:14:29Z</time>
      </trkpt>
      <trkpt lat="49.13924" lon="6.86597">
        <ele>219.2</ele>
        <time>2013-10-23T09:14:34Z</time>
      </trkpt>
      <trkpt lat="49.13926" lon="6.86607">
        <ele>220.4</ele>
        <time>2013-10-23T09:14:39Z</time>
      </trkpt>
      <trkpt lat="49.13927" lon="6.86618">
        <ele>220.5</ele>
        <time>2013-10-23T09:14:44Z</time>
      </trkpt>
      <trkpt lat="49.13927" lon="6.86628">
        <ele>221</ele>
        <time>2013-10-23T09:14:49Z</time>
      </trkpt>
      <trkpt lat="49.13927" lon="6.86638">
        <ele>220.7</ele>
        <time>2013-10-23T09:14:54Z</time>
      </trkpt>
      <trkpt lat="49.13926" lon="6.86649">
        <ele>220.5</ele>
        <time>2013-10-23T09:14:59Z</time>
      </trkpt>
      <trkpt lat="49.13925" lon="6.86658">
        <ele>221.9</ele>
        <time>2013-10-23T09:15:04Z</time>
      </trkpt>
      <trkpt lat="49.13926" lon="6.86666">
        <ele>221.4</ele>
        <time>2013-10-23T09:15:09Z</time>
      </trkpt>
      <trkpt lat="49.13929" lon="6.86683">
        <ele>220.4</ele>
        <time>2013-10-23T09:15:19Z</time>
      </trkpt>
      <trkpt lat="49.13929" lon="6.86691">
        <ele>220.5</ele>
        <time>2013-10-23T09:15:24Z</time>
      </trkpt>
      <trkpt lat="49.13928" lon="6.86698">
        <ele>220.5</ele>
        <time>2013-10-23T09:15:29Z</time>
      </trkpt>
      <trkpt lat="49.13927" lon="6.86701">
        <ele>221.1</ele>
        <time>2013-10-23T09:15:34Z</time>
      </trkpt>
      <trkpt lat="49.13925" lon="6.86705">
        <ele>220.7</ele>
        <time>2013-10-23T09:15:39Z</time>
      </trkpt>
      <trkpt lat="49.13924" lon="6.86708">
        <ele>220.7</ele>
        <time>2013-10-23T09:15:44Z</time>
      </trkpt>
      <trkpt lat="49.13923" lon="6.8671">
        <ele>220.6</ele>
        <time>2013-10-23T09:15:49Z</time>
      </trkpt>
      <trkpt lat="49.13923" lon="6.86711">
        <ele>220.8</ele>
        <time>2013-10-23T09:15:54Z</time>
      </trkpt>
      <trkpt lat="49.13923" lon="6.86711">
        <ele>220.3</ele>
        <time>2013-10-23T09:15:59Z</time>
      </trkpt>
      <trkpt lat="49.13923" lon="6.86712">
        <ele>220.3</ele>
        <time>2013-10-23T09:16:04Z</time>
      </trkpt>
      <trkpt lat="49.13924" lon="6.86711">
        <ele>221</ele>
        <time>2013-10-23T09:16:09Z</time>
      </trkpt>
      <trkpt lat="49.13925" lon="6.8671">
        <ele>221</ele>
        <time>2013-10-23T09:16:14Z</time>
      </trkpt>
      <trkpt lat="49.13928" lon="6.86717">
        <ele>221.1</ele>
        <time>2013-10-23T09:16:24Z</time>
      </trkpt>
      <trkpt lat="49.1393" lon="6.86719">
        <ele>221.1</ele>
        <time>2013-10-23T09:16:29Z</time>
      </trkpt>
      <trkpt lat="49.13931" lon="6.86722">
        <ele>221</ele>
        <time>2013-10-23T09:16:34Z</time>
      </trkpt>
      <trkpt lat="49.13933" lon="6.86723">
        <ele>220.6</ele>
        <time>2013-10-23T09:16:39Z</time>
      </trkpt>
      <trkpt lat="49.13934" lon="6.86726">
        <ele>221.1</ele>
        <time>2013-10-23T09:16:44Z</time>
      </trkpt>
      <trkpt lat="49.13938" lon="6.86729">
        <ele>221.4</ele>
        <time>2013-10-23T09:16:49Z</time>
      </trkpt>
      <trkpt lat="49.13943" lon="6.86732">
        <ele>221.9</ele>
        <time>2013-10-23T09:16:54Z</time>
      </trkpt>
      <trkpt lat="49.13948" lon="6.86737">
        <ele>221.9</ele>
        <time>2013-10-23T09:16:59Z</time>
      </trkpt>
      <trkpt lat="49.13952" lon="6.86746">
        <ele>221.2</ele>
        <time>2013-10-23T09:17:04Z</time>
      </trkpt>
      <trkpt lat="49.13959" lon="6.86752">
        <ele>221</ele>
        <time>2013-10-23T09:17:09Z</time>
      </trkpt>
      <trkpt lat="49.13963" lon="6.86756">
        <ele>221.1</ele>
        <time>2013-10-23T09:17:14Z</time>
      </trkpt>
      <trkpt lat="49.13968" lon="6.86759">
        <ele>221.1</ele>
        <time>2013-10-23T09:17:19Z</time>
      </trkpt>
      <trkpt lat="49.13978" lon="6.86769">
        <ele>221.3</ele>
        <time>2013-10-23T09:17:29Z</time>
      </trkpt>
      <trkpt lat="49.13986" lon="6.86774">
        <ele>221.8</ele>
        <time>2013-10-23T09:17:34Z</time>
      </trkpt>
      <trkpt lat="49.1399" lon="6.86778">
        <ele>222.1</ele>
        <time>2013-10-23T09:17:39Z</time>
      </trkpt>
      <trkpt lat="49.13993" lon="6.86783">
        <ele>222.6</ele>
        <time>2013-10-23T09:17:44Z</time>
      </trkpt>
      <trkpt lat="49.13997" lon="6.86786">
        <ele>222.3</ele>
        <time>2013-10-23T09:17:49Z</time>
      </trkpt>
      <trkpt lat="49.13999" lon="6.86788">
        <ele>222.6</ele>
        <time>2013-10-23T09:17:54Z</time>
      </trkpt>
      <trkpt lat="49.14" lon="6.86792">
        <ele>222.8</ele>
        <time>2013-10-23T09:17:59Z</time>
      </trkpt>
      <trkpt lat="49.14" lon="6.86796">
        <ele>223.3</ele>
        <time>2013-10-23T09:18:04Z</time>
      </trkpt>
      <trkpt lat="49.14" lon="6.86799">
        <ele>223.3</ele>
        <time>2013-10-23T09:18:09Z</time>
      </trkpt>
      <trkpt lat="49.13999" lon="6.86801">
        <ele>223.2</ele>
        <time>2013-10-23T09:18:14Z</time>
      </trkpt>
      <trkpt lat="49.14" lon="6.86801">
        <ele>223.2</ele>
        <time>2013-10-23T09:18:19Z</time>
      </trkpt>
      <trkpt lat="49.14001" lon="6.86801">
        <ele>223.2</ele>
        <time>2013-10-23T09:18:24Z</time>
      </trkpt>
      <trkpt lat="49.14001" lon="6.86798">
        <ele>223.1</ele>
        <time>2013-10-23T09:18:34Z</time>
      </trkpt>
      <trkpt lat="49.14" lon="6.86796">
        <ele>223.4</ele>
        <time>2013-10-23T09:18:39Z</time>
      </trkpt>
      <trkpt lat="49.13999" lon="6.86794">
        <ele>223.5</ele>
        <time>2013-10-23T09:18:44Z</time>
      </trkpt>
      <trkpt lat="49.13998" lon="6.8679">
        <ele>223.4</ele>
        <time>2013-10-23T09:18:49Z</time>
      </trkpt>
      <trkpt lat="49.13999" lon="6.86787">
        <ele>223.2</ele>
        <time>2013-10-23T09:18:54Z</time>
      </trkpt>
      <trkpt lat="49.14" lon="6.86787">
        <ele>223.3</ele>
        <time>2013-10-23T09:18:59Z</time>
      </trkpt>
      <trkpt lat="49.14001" lon="6.86788">
        <ele>223.3</ele>
        <time>2013-10-23T09:19:04Z</time>
      </trkpt>
      <trkpt lat="49.14002" lon="6.86789">
        <ele>223.6</ele>
        <time>2013-10-23T09:19:09Z</time>
      </trkpt>
      <trkpt lat="49.14005" lon="6.86792">
        <ele>223.8</ele>
        <time>2013-10-23T09:19:14Z</time>
      </trkpt>
      <trkpt lat="49.1401" lon="6.86795">
        <ele>223.4</ele>
        <time>2013-10-23T09:19:19Z</time>
      </trkpt>
      <trkpt lat="49.14014" lon="6.86797">
        <ele>223.5</ele>
        <time>2013-10-23T09:19:24Z</time>
      </trkpt>
      <trkpt lat="49.14019" lon="6.868">
        <ele>224.6</ele>
        <time>2013-10-23T09:19:29Z</time>
      </trkpt>
      <trkpt lat="49.14028" lon="6.86809">
        <ele>224.4</ele>
        <time>2013-10-23T09:19:39Z</time>
      </trkpt>
      <trkpt lat="49.14034" lon="6.86815">
        <ele>224.7</ele>
        <time>2013-10-23T09:19:44Z</time>
      </trkpt>
      <trkpt lat="49.14038" lon="6.8682">
        <ele>224.2</ele>
        <time>2013-10-23T09:19:49Z</time>
      </trkpt>
      <trkpt lat="49.14042" lon="6.86824">
        <ele>224.3</ele>
        <time>2013-10-23T09:19:54Z</time>
      </trkpt>
      <trkpt lat="49.14044" lon="6.86828">
        <ele>224.6</ele>
        <time>2013-10-23T09:19:59Z</time>
      </trkpt>
      <trkpt lat="49.14045" lon="6.86832">
        <ele>224.7</ele>
        <time>2013-10-23T09:20:04Z</time>
      </trkpt>
      <trkpt lat="49.14047" lon="6.86837">
        <ele>224.7</ele>
        <time>2013-10-23T09:20:09Z</time>
      </trkpt>
      <trkpt lat="49.1405" lon="6.86844">
        <ele>224.1</ele>
        <time>2013-10-23T09:20:14Z</time>
      </trkpt>
      <trkpt lat="49.14053" lon="6.86848">
        <ele>224.4</ele>
        <time>2013-10-23T09:20:19Z</time>
      </trkpt>
      <trkpt lat="49.14056" lon="6.86854">
        <ele>224.2</ele>
        <time>2013-10-23T09:20:24Z</time>
      </trkpt>
      <trkpt lat="49.1406" lon="6.86857">
        <ele>224.7</ele>
        <time>2013-10-23T09:20:29Z</time>
      </trkpt>
      <trkpt lat="49.14065" lon="6.86863">
        <ele>225.4</ele>
        <time>2013-10-23T09:20:34Z</time>
      </trkpt>
      <trkpt lat="49.14075" lon="6.8687">
        <ele>224.9</ele>
        <time>2013-10-23T09:20:44Z</time>
      </trkpt>
      <trkpt lat="49.1408" lon="6.86873">
        <ele>224.9</ele>
        <time>2013-10-23T09:20:49Z</time>
      </trkpt>
      <trkpt lat="49.14084" lon="6.86878">
        <ele>225</ele>
        <time>2013-10-23T09:20:54Z</time>
      </trkpt>
      <trkpt lat="49.14088" lon="6.86883">
        <ele>226</ele>
        <time>2013-10-23T09:20:59Z</time>
      </trkpt>
      <trkpt lat="49.14092" lon="6.86888">
        <ele>226.2</ele>
        <time>2013-10-23T09:21:04Z</time>
      </trkpt>
      <trkpt lat="49.14096" lon="6.86893">
        <ele>226.9</ele>
        <time>2013-10-23T09:21:09Z</time>
      </trkpt>
      <trkpt lat="49.14099" lon="6.86896">
        <ele>227.6</ele>
        <time>2013-10-23T09:21:14Z</time>
      </trkpt>
      <trkpt lat="49.14102" lon="6.86902">
        <ele>228</ele>
        <time>2013-10-23T09:21:19Z</time>
      </trkpt>
      <trkpt lat="49.14107" lon="6.86908">
        <ele>228.3</ele>
        <time>2013-10-23T09:21:24Z</time>
      </trkpt>
      <trkpt lat="49.14111" lon="6.86917">
        <ele>229.2</ele>
        <time>2013-10-23T09:21:29Z</time>
      </trkpt>
      <trkpt lat="49.14113" lon="6.86921">
        <ele>228.6</ele>
        <time>2013-10-23T09:21:34Z</time>
      </trkpt>
      <trkpt lat="49.14117" lon="6.86923">
        <ele>227.9</ele>
        <time>2013-10-23T09:21:39Z</time>
      </trkpt>
      <trkpt lat="49.14123" lon="6.86931">
        <ele>228.6</ele>
        <time>2013-10-23T09:21:49Z</time>
      </trkpt>
      <trkpt lat="49.14126" lon="6.86935">
        <ele>229</ele>
        <time>2013-10-23T09:21:54Z</time>
      </trkpt>
      <trkpt lat="49.14131" lon="6.86937">
        <ele>229.4</ele>
        <time>2013-10-23T09:21:59Z</time>
      </trkpt>
      <trkpt lat="49.14137" lon="6.86939">
        <ele>230</ele>
        <time>2013-10-23T09:22:04Z</time>
      </trkpt>
      <trkpt lat="49.14141" lon="6.86943">
        <ele>230.7</ele>
        <time>2013-10-23T09:22:09Z</time>
      </trkpt>
      <trkpt lat="49.14147" lon="6.86946">
        <ele>231.5</ele>
        <time>2013-10-23T09:22:14Z</time>
      </trkpt>
      <trkpt lat="49.1415" lon="6.86948">
        <ele>231.9</ele>
        <time>2013-10-23T09:22:19Z</time>
      </trkpt>
      <trkpt lat="49.14151" lon="6.8695">
        <ele>231.9</ele>
        <time>2013-10-23T09:22:24Z</time>
      </trkpt>
      <trkpt lat="49.14154" lon="6.86953">
        <ele>231.4</ele>
        <time>2013-10-23T09:22:29Z</time>
      </trkpt>
      <trkpt lat="49.14159" lon="6.86957">
        <ele>232.1</ele>
        <time>2013-10-23T09:22:34Z</time>
      </trkpt>
      <trkpt lat="49.14162" lon="6.86958">
        <ele>232.9</ele>
        <time>2013-10-23T09:22:39Z</time>
      </trkpt>
      <trkpt lat="49.14165" lon="6.86958">
        <ele>233.6</ele>
        <time>2013-10-23T09:22:44Z</time>
      </trkpt>
      <trkpt lat="49.1417" lon="6.86964">
        <ele>236.2</ele>
        <time>2013-10-23T09:22:54Z</time>
      </trkpt>
      <trkpt lat="49.14175" lon="6.86966">
        <ele>236.4</ele>
        <time>2013-10-23T09:22:59Z</time>
      </trkpt>
      <trkpt lat="49.14181" lon="6.86969">
        <ele>237</ele>
        <time>2013-10-23T09:23:04Z</time>
      </trkpt>
      <trkpt lat="49.14186" lon="6.86973">
        <ele>236.1</ele>
        <time>2013-10-23T09:23:09Z</time>
      </trkpt>
      <trkpt lat="49.14192" lon="6.86975">
        <ele>238</ele>
        <time>2013-10-23T09:23:14Z</time>
      </trkpt>
      <trkpt lat="49.14198" lon="6.86977">
        <ele>238.2</ele>
        <time>2013-10-23T09:23:19Z</time>
      </trkpt>
      <trkpt lat="49.14204" lon="6.86982">
        <ele>237.8</ele>
        <time>2013-10-23T09:23:24Z</time>
      </trkpt>
      <trkpt lat="49.14208" lon="6.86986">
        <ele>238</ele>
        <time>2013-10-23T09:23:29Z</time>
      </trkpt>
      <trkpt lat="49.14214" lon="6.86991">
        <ele>238.3</ele>
        <time>2013-10-23T09:23:34Z</time>
      </trkpt>
      <trkpt lat="49.14218" lon="6.86996">
        <ele>238.3</ele>
        <time>2013-10-23T09:23:39Z</time>
      </trkpt>
      <trkpt lat="49.14223" lon="6.87002">
        <ele>239.7</ele>
        <time>2013-10-23T09:23:44Z</time>
      </trkpt>
      <trkpt lat="49.14227" lon="6.87005">
        <ele>240.9</ele>
        <time>2013-10-23T09:23:49Z</time>
      </trkpt>
      <trkpt lat="49.14235" lon="6.87013">
        <ele>241.3</ele>
        <time>2013-10-23T09:23:59Z</time>
      </trkpt>
      <trkpt lat="49.14238" lon="6.87016">
        <ele>241.6</ele>
        <time>2013-10-23T09:24:04Z</time>
      </trkpt>
      <trkpt lat="49.14241" lon="6.87021">
        <ele>243.2</ele>
        <time>2013-10-23T09:24:09Z</time>
      </trkpt>
      <trkpt lat="49.14245" lon="6.87025">
        <ele>243.1</ele>
        <time>2013-10-23T09:24:14Z</time>
      </trkpt>
      <trkpt lat="49.14251" lon="6.8703">
        <ele>243.6</ele>
        <time>2013-10-23T09:24:19Z</time>
      </trkpt>
      <trkpt lat="49.14256" lon="6.87034">
        <ele>243.5</ele>
        <time>2013-10-23T09:24:24Z</time>
      </trkpt>
      <trkpt lat="49.14261" lon="6.87038">
        <ele>243.4</ele>
        <time>2013-10-23T09:24:29Z</time>
      </trkpt>
      <trkpt lat="49.14266" lon="6.87042">
        <ele>243.9</ele>
        <time>2013-10-23T09:24:34Z</time>
      </trkpt>
      <trkpt lat="49.14271" lon="6.87046">
        <ele>243.9</ele>
        <time>2013-10-23T09:24:39Z</time>
      </trkpt>
      <trkpt lat="49.14277" lon="6.87049">
        <ele>244.7</ele>
        <time>2013-10-23T09:24:44Z</time>
      </trkpt>
      <trkpt lat="49.14283" lon="6.87054">
        <ele>244.8</ele>
        <time>2013-10-23T09:24:49Z</time>
      </trkpt>
      <trkpt lat="49.14288" lon="6.87057">
        <ele>244.7</ele>
        <time>2013-10-23T09:24:54Z</time>
      </trkpt>
      <trkpt lat="49.14295" lon="6.87061">
        <ele>246.6</ele>
        <time>2013-10-23T09:25:04Z</time>
      </trkpt>
      <trkpt lat="49.14298" lon="6.87063">
        <ele>247.2</ele>
        <time>2013-10-23T09:25:09Z</time>
      </trkpt>
      <trkpt lat="49.14301" lon="6.87066">
        <ele>247.5</ele>
        <time>2013-10-23T09:25:14Z</time>
      </trkpt>
      <trkpt lat="49.14304" lon="6.87072">
        <ele>247.7</ele>
        <time>2013-10-23T09:25:19Z</time>
      </trkpt>
      <trkpt lat="49.14307" lon="6.87077">
        <ele>248.7</ele>
        <time>2013-10-23T09:25:24Z</time>
      </trkpt>
      <trkpt lat="49.14311" lon="6.8708">
        <ele>248.6</ele>
        <time>2013-10-23T09:25:29Z</time>
      </trkpt>
      <trkpt lat="49.14315" lon="6.87083">
        <ele>250.1</ele>
        <time>2013-10-23T09:25:34Z</time>
      </trkpt>
      <trkpt lat="49.1432" lon="6.87085">
        <ele>250.5</ele>
        <time>2013-10-23T09:25:39Z</time>
      </trkpt>
      <trkpt lat="49.14325" lon="6.87087">
        <ele>251.7</ele>
        <time>2013-10-23T09:25:44Z</time>
      </trkpt>
      <trkpt lat="49.1433" lon="6.87086">
        <ele>252.8</ele>
        <time>2013-10-23T09:25:49Z</time>
      </trkpt>
      <trkpt lat="49.14336" lon="6.87086">
        <ele>253.8</ele>
        <time>2013-10-23T09:25:54Z</time>
      </trkpt>
      <trkpt lat="49.1434" lon="6.87086">
        <ele>254.2</ele>
        <time>2013-10-23T09:25:59Z</time>
      </trkpt>
      <trkpt lat="49.14347" lon="6.87093">
        <ele>256.2</ele>
        <time>2013-10-23T09:26:09Z</time>
      </trkpt>
      <trkpt lat="49.14349" lon="6.87097">
        <ele>257</ele>
        <time>2013-10-23T09:26:14Z</time>
      </trkpt>
      <trkpt lat="49.14353" lon="6.87103">
        <ele>257.1</ele>
        <time>2013-10-23T09:26:19Z</time>
      </trkpt>
      <trkpt lat="49.14356" lon="6.87107">
        <ele>257.6</ele>
        <time>2013-10-23T09:26:24Z</time>
      </trkpt>
      <trkpt lat="49.14358" lon="6.87113">
        <ele>257.5</ele>
        <time>2013-10-23T09:26:29Z</time>
      </trkpt>
      <trkpt lat="49.14361" lon="6.87121">
        <ele>257.6</ele>
        <time>2013-10-23T09:26:34Z</time>
      </trkpt>
      <trkpt lat="49.14363" lon="6.87126">
        <ele>257</ele>
        <time>2013-10-23T09:26:39Z</time>
      </trkpt>
      <trkpt lat="49.14366" lon="6.87132">
        <ele>257.9</ele>
        <time>2013-10-23T09:26:44Z</time>
      </trkpt>
      <trkpt lat="49.14368" lon="6.87137">
        <ele>257.6</ele>
        <time>2013-10-23T09:26:49Z</time>
      </trkpt>
      <trkpt lat="49.1437" lon="6.87142">
        <ele>258.6</ele>
        <time>2013-10-23T09:26:54Z</time>
      </trkpt>
      <trkpt lat="49.14371" lon="6.87149">
        <ele>257.8</ele>
        <time>2013-10-23T09:26:59Z</time>
      </trkpt>
      <trkpt lat="49.14375" lon="6.87155">
        <ele>257.4</ele>
        <time>2013-10-23T09:27:04Z</time>
      </trkpt>
      <trkpt lat="49.14379" lon="6.87168">
        <ele>257.9</ele>
        <time>2013-10-23T09:27:14Z</time>
      </trkpt>
      <trkpt lat="49.14383" lon="6.87174">
        <ele>257.8</ele>
        <time>2013-10-23T09:27:19Z</time>
      </trkpt>
      <trkpt lat="49.14385" lon="6.8718">
        <ele>258.5</ele>
        <time>2013-10-23T09:27:24Z</time>
      </trkpt>
      <trkpt lat="49.14386" lon="6.87183">
        <ele>258.4</ele>
        <time>2013-10-23T09:27:29Z</time>
      </trkpt>
      <trkpt lat="49.14388" lon="6.87187">
        <ele>258.4</ele>
        <time>2013-10-23T09:27:34Z</time>
      </trkpt>
      <trkpt lat="49.14392" lon="6.87192">
        <ele>258.8</ele>
        <time>2013-10-23T09:27:39Z</time>
      </trkpt>
      <trkpt lat="49.14397" lon="6.87199">
        <ele>259</ele>
        <time>2013-10-23T09:27:44Z</time>
      </trkpt>
      <trkpt lat="49.144" lon="6.87205">
        <ele>259.1</ele>
        <time>2013-10-23T09:27:49Z</time>
      </trkpt>
      <trkpt lat="49.14403" lon="6.87209">
        <ele>260.1</ele>
        <time>2013-10-23T09:27:54Z</time>
      </trkpt>
      <trkpt lat="49.14403" lon="6.87214">
        <ele>258.8</ele>
        <time>2013-10-23T09:27:59Z</time>
      </trkpt>
      <trkpt lat="49.14405" lon="6.87217">
        <ele>259.6</ele>
        <time>2013-10-23T09:28:04Z</time>
      </trkpt>
      <trkpt lat="49.14406" lon="6.87221">
        <ele>258.1</ele>
        <time>2013-10-23T09:28:09Z</time>
      </trkpt>
      <trkpt lat="49.14405" lon="6.87225">
        <ele>258.1</ele>
        <time>2013-10-23T09:28:19Z</time>
      </trkpt>
      <trkpt lat="49.14403" lon="6.87226">
        <ele>258.3</ele>
        <time>2013-10-23T09:28:24Z</time>
      </trkpt>
      <trkpt lat="49.14404" lon="6.87226">
        <ele>258.6</ele>
        <time>2013-10-23T09:28:29Z</time>
      </trkpt>
      <trkpt lat="49.14404" lon="6.87227">
        <ele>258.9</ele>
        <time>2013-10-23T09:28:34Z</time>
      </trkpt>
      <trkpt lat="49.14405" lon="6.87228">
        <ele>258.6</ele>
        <time>2013-10-23T09:28:39Z</time>
      </trkpt>
      <trkpt lat="49.14405" lon="6.87229">
        <ele>258.9</ele>
        <time>2013-10-23T09:28:44Z</time>
      </trkpt>
      <trkpt lat="49.14407" lon="6.8723">
        <ele>259.3</ele>
        <time>2013-10-23T09:28:49Z</time>
      </trkpt>
      <trkpt lat="49.14406" lon="6.87231">
        <ele>259.1</ele>
        <time>2013-10-23T09:28:54Z</time>
      </trkpt>
      <trkpt lat="49.14405" lon="6.87232">
        <ele>259.2</ele>
        <time>2013-10-23T09:28:59Z</time>
      </trkpt>
      <trkpt lat="49.14404" lon="6.87233">
        <ele>259.1</ele>
        <time>2013-10-23T09:29:04Z</time>
      </trkpt>
      <trkpt lat="49.14404" lon="6.87233">
        <ele>258.8</ele>
        <time>2013-10-23T09:29:09Z</time>
      </trkpt>
      <trkpt lat="49.14404" lon="6.87234">
        <ele>258.5</ele>
        <time>2013-10-23T09:29:14Z</time>
      </trkpt>
      <trkpt lat="49.14406" lon="6.87234">
        <ele>258.9</ele>
        <time>2013-10-23T09:29:24Z</time>
      </trkpt>
      <trkpt lat="49.14406" lon="6.87235">
        <ele>258.7</ele>
        <time>2013-10-23T09:29:29Z</time>
      </trkpt>
      <trkpt lat="49.14407" lon="6.87235">
        <ele>258.2</ele>
        <time>2013-10-23T09:29:34Z</time>
      </trkpt>
      <trkpt lat="49.14408" lon="6.87234">
        <ele>258.8</ele>
        <time>2013-10-23T09:29:39Z</time>
      </trkpt>
      <trkpt lat="49.14411" lon="6.87231">
        <ele>258.2</ele>
        <time>2013-10-23T09:29:44Z</time>
      </trkpt>
      <trkpt lat="49.14412" lon="6.87227">
        <ele>259</ele>
        <time>2013-10-23T09:29:49Z</time>
      </trkpt>
      <trkpt lat="49.14416" lon="6.87225">
        <ele>260.3</ele>
        <time>2013-10-23T09:29:54Z</time>
      </trkpt>
      <trkpt lat="49.14418" lon="6.87225">
        <ele>260.9</ele>
        <time>2013-10-23T09:29:59Z</time>
      </trkpt>
      <trkpt lat="49.14418" lon="6.87228">
        <ele>261.2</ele>
        <time>2013-10-23T09:30:04Z</time>
      </trkpt>
      <trkpt lat="49.1442" lon="6.87231">
        <ele>262</ele>
        <time>2013-10-23T09:30:09Z</time>
      </trkpt>
      <trkpt lat="49.14422" lon="6.87235">
        <ele>261.9</ele>
        <time>2013-10-23T09:30:14Z</time>
      </trkpt>
      <trkpt lat="49.14423" lon="6.87238">
        <ele>262.9</ele>
        <time>2013-10-23T09:30:19Z</time>
      </trkpt>
      <trkpt lat="49.14427" lon="6.87249">
        <ele>263.4</ele>
        <time>2013-10-23T09:30:29Z</time>
      </trkpt>
      <trkpt lat="49.14431" lon="6.87257">
        <ele>263.1</ele>
        <time>2013-10-23T09:30:34Z</time>
      </trkpt>
      <trkpt lat="49.14433" lon="6.87265">
        <ele>263.1</ele>
        <time>2013-10-23T09:30:39Z</time>
      </trkpt>
      <trkpt lat="49.14436" lon="6.87271">
        <ele>263.1</ele>
        <time>2013-10-23T09:30:44Z</time>
      </trkpt>
      <trkpt lat="49.14439" lon="6.87279">
        <ele>264.4</ele>
        <time>2013-10-23T09:30:49Z</time>
      </trkpt>
      <trkpt lat="49.14443" lon="6.87285">
        <ele>263.3</ele>
        <time>2013-10-23T09:30:54Z</time>
      </trkpt>
      <trkpt lat="49.14446" lon="6.87293">
        <ele>263.8</ele>
        <time>2013-10-23T09:30:59Z</time>
      </trkpt>
      <trkpt lat="49.1445" lon="6.87301">
        <ele>264.7</ele>
        <time>2013-10-23T09:31:04Z</time>
      </trkpt>
      <trkpt lat="49.14454" lon="6.87307">
        <ele>264.7</ele>
        <time>2013-10-23T09:31:09Z</time>
      </trkpt>
      <trkpt lat="49.14456" lon="6.87315">
        <ele>264.6</ele>
        <time>2013-10-23T09:31:14Z</time>
      </trkpt>
      <trkpt lat="49.14459" lon="6.87323">
        <ele>265.6</ele>
        <time>2013-10-23T09:31:19Z</time>
      </trkpt>
      <trkpt lat="49.14461" lon="6.8733">
        <ele>266.3</ele>
        <time>2013-10-23T09:31:24Z</time>
      </trkpt>
      <trkpt lat="49.14465" lon="6.87342">
        <ele>265.7</ele>
        <time>2013-10-23T09:31:34Z</time>
      </trkpt>
      <trkpt lat="49.14469" lon="6.87349">
        <ele>265.9</ele>
        <time>2013-10-23T09:31:39Z</time>
      </trkpt>
      <trkpt lat="49.14471" lon="6.87355">
        <ele>266.6</ele>
        <time>2013-10-23T09:31:44Z</time>
      </trkpt>
      <trkpt lat="49.14473" lon="6.87361">
        <ele>267.5</ele>
        <time>2013-10-23T09:31:49Z</time>
      </trkpt>
      <trkpt lat="49.14476" lon="6.87367">
        <ele>268.8</ele>
        <time>2013-10-23T09:31:54Z</time>
      </trkpt>
      <trkpt lat="49.14477" lon="6.87374">
        <ele>267.5</ele>
        <time>2013-10-23T09:31:59Z</time>
      </trkpt>
      <trkpt lat="49.14477" lon="6.87379">
        <ele>268.3</ele>
        <time>2013-10-23T09:32:04Z</time>
      </trkpt>
      <trkpt lat="49.1448" lon="6.87387">
        <ele>269.1</ele>
        <time>2013-10-23T09:32:09Z</time>
      </trkpt>
      <trkpt lat="49.14482" lon="6.87393">
        <ele>269.5</ele>
        <time>2013-10-23T09:32:14Z</time>
      </trkpt>
      <trkpt lat="49.14488" lon="6.874">
        <ele>270.6</ele>
        <time>2013-10-23T09:32:19Z</time>
      </trkpt>
      <trkpt lat="49.14496" lon="6.87408">
        <ele>270.8</ele>
        <time>2013-10-23T09:32:24Z</time>
      </trkpt>
      <trkpt lat="49.14501" lon="6.87417">
        <ele>270.9</ele>
        <time>2013-10-23T09:32:29Z</time>
      </trkpt>
      <trkpt lat="49.14514" lon="6.87437">
        <ele>270.7</ele>
        <time>2013-10-23T09:32:39Z</time>
      </trkpt>
      <trkpt lat="49.1452" lon="6.87445">
        <ele>271.9</ele>
        <time>2013-10-23T09:32:44Z</time>
      </trkpt>
      <trkpt lat="49.14525" lon="6.87453">
        <ele>272.6</ele>
        <time>2013-10-23T09:32:49Z</time>
      </trkpt>
      <trkpt lat="49.14532" lon="6.87461">
        <ele>272.9</ele>
        <time>2013-10-23T09:32:54Z</time>
      </trkpt>
      <trkpt lat="49.14535" lon="6.87468">
        <ele>272.8</ele>
        <time>2013-10-23T09:32:59Z</time>
      </trkpt>
      <trkpt lat="49.14537" lon="6.87475">
        <ele>273</ele>
        <time>2013-10-23T09:33:04Z</time>
      </trkpt>
      <trkpt lat="49.14538" lon="6.87482">
        <ele>273.1</ele>
        <time>2013-10-23T09:33:09Z</time>
      </trkpt>
      <trkpt lat="49.1454" lon="6.87487">
        <ele>273.3</ele>
        <time>2013-10-23T09:33:14Z</time>
      </trkpt>
      <trkpt lat="49.14545" lon="6.87494">
        <ele>275.3</ele>
        <time>2013-10-23T09:33:19Z</time>
      </trkpt>
      <trkpt lat="49.14547" lon="6.87502">
        <ele>274.3</ele>
        <time>2013-10-23T09:33:24Z</time>
      </trkpt>
      <trkpt lat="49.14549" lon="6.8751">
        <ele>276</ele>
        <time>2013-10-23T09:33:29Z</time>
      </trkpt>
      <trkpt lat="49.14553" lon="6.87521">
        <ele>276.8</ele>
        <time>2013-10-23T09:33:34Z</time>
      </trkpt>
      <trkpt lat="49.14558" lon="6.87539">
        <ele>276.4</ele>
        <time>2013-10-23T09:33:44Z</time>
      </trkpt>
      <trkpt lat="49.14561" lon="6.87549">
        <ele>277.1</ele>
        <time>2013-10-23T09:33:49Z</time>
      </trkpt>
      <trkpt lat="49.14563" lon="6.87559">
        <ele>277.5</ele>
        <time>2013-10-23T09:33:54Z</time>
      </trkpt>
      <trkpt lat="49.14567" lon="6.87569">
        <ele>278.4</ele>
        <time>2013-10-23T09:33:59Z</time>
      </trkpt>
      <trkpt lat="49.1457" lon="6.8758">
        <ele>278.8</ele>
        <time>2013-10-23T09:34:04Z</time>
      </trkpt>
      <trkpt lat="49.14573" lon="6.8759">
        <ele>278.4</ele>
        <time>2013-10-23T09:34:09Z</time>
      </trkpt>
      <trkpt lat="49.14576" lon="6.87596">
        <ele>279.3</ele>
        <time>2013-10-23T09:34:14Z</time>
      </trkpt>
      <trkpt lat="49.14579" lon="6.87605">
        <ele>280.6</ele>
        <time>2013-10-23T09:34:19Z</time>
      </trkpt>
      <trkpt lat="49.14581" lon="6.87614">
        <ele>280.2</ele>
        <time>2013-10-23T09:34:24Z</time>
      </trkpt>
      <trkpt lat="49.14582" lon="6.87623">
        <ele>279.6</ele>
        <time>2013-10-23T09:34:29Z</time>
      </trkpt>
      <trkpt lat="49.14584" lon="6.87632">
        <ele>280.3</ele>
        <time>2013-10-23T09:34:34Z</time>
      </trkpt>
      <trkpt lat="49.14586" lon="6.87642">
        <ele>281.7</ele>
        <time>2013-10-23T09:34:39Z</time>
      </trkpt>
      <trkpt lat="49.1459" lon="6.87658">
        <ele>281.4</ele>
        <time>2013-10-23T09:34:49Z</time>
      </trkpt>
      <trkpt lat="49.14589" lon="6.87665">
        <ele>281.4</ele>
        <time>2013-10-23T09:34:54Z</time>
      </trkpt>
      <trkpt lat="49.14586" lon="6.87671">
        <ele>281.7</ele>
        <time>2013-10-23T09:34:59Z</time>
      </trkpt>
      <trkpt lat="49.14583" lon="6.87679">
        <ele>280.7</ele>
        <time>2013-10-23T09:35:04Z</time>
      </trkpt>
      <trkpt lat="49.14583" lon="6.87689">
        <ele>279.3</ele>
        <time>2013-10-23T09:35:09Z</time>
      </trkpt>
      <trkpt lat="49.14582" lon="6.87698">
        <ele>279.9</ele>
        <time>2013-10-23T09:35:14Z</time>
      </trkpt>
      <trkpt lat="49.14581" lon="6.87707">
        <ele>278.8</ele>
        <time>2013-10-23T09:35:19Z</time>
      </trkpt>
      <trkpt lat="49.1458" lon="6.87717">
        <ele>276.2</ele>
        <time>2013-10-23T09:35:24Z</time>
      </trkpt>
      <trkpt lat="49.14578" lon="6.87726">
        <ele>275.5</ele>
        <time>2013-10-23T09:35:29Z</time>
      </trkpt>
      <trkpt lat="49.14578" lon="6.87733">
        <ele>274.7</ele>
        <time>2013-10-23T09:35:34Z</time>
      </trkpt>
      <trkpt lat="49.14576" lon="6.87737">
        <ele>274.4</ele>
        <time>2013-10-23T09:35:39Z</time>
      </trkpt>
      <trkpt lat="49.14574" lon="6.87738">
        <ele>274.2</ele>
        <time>2013-10-23T09:35:44Z</time>
      </trkpt>
      <trkpt lat="49.1457" lon="6.87732">
        <ele>274.2</ele>
        <time>2013-10-23T09:35:54Z</time>
      </trkpt>
      <trkpt lat="49.14568" lon="6.87732">
        <ele>275.2</ele>
        <time>2013-10-23T09:35:59Z</time>
      </trkpt>
      <trkpt lat="49.14565" lon="6.87731">
        <ele>275.3</ele>
        <time>2013-10-23T09:36:04Z</time>
      </trkpt>
      <trkpt lat="49.14564" lon="6.87729">
        <ele>276.2</ele>
        <time>2013-10-23T09:36:09Z</time>
      </trkpt>
      <trkpt lat="49.14562" lon="6.87726">
        <ele>276.7</ele>
        <time>2013-10-23T09:36:14Z</time>
      </trkpt>
      <trkpt lat="49.1456" lon="6.87724">
        <ele>277.1</ele>
        <time>2013-10-23T09:36:19Z</time>
      </trkpt>
      <trkpt lat="49.14559" lon="6.87721">
        <ele>277.7</ele>
        <time>2013-10-23T09:36:24Z</time>
      </trkpt>
      <trkpt lat="49.14555" lon="6.87717">
        <ele>278.9</ele>
        <time>2013-10-23T09:36:29Z</time>
      </trkpt>
      <trkpt lat="49.14552" lon="6.87712">
        <ele>280</ele>
        <time>2013-10-23T09:36:34Z</time>
      </trkpt>
      <trkpt lat="49.14549" lon="6.87708">
        <ele>279.9</ele>
        <time>2013-10-23T09:36:39Z</time>
      </trkpt>
      <trkpt lat="49.14548" lon="6.87706">
        <ele>280.7</ele>
        <time>2013-10-23T09:36:44Z</time>
      </trkpt>
      <trkpt lat="49.14547" lon="6.87705">
        <ele>280.5</ele>
        <time>2013-10-23T09:36:49Z</time>
      </trkpt>
      <trkpt lat="49.14542" lon="6.877">
        <ele>280.5</ele>
        <time>2013-10-23T09:36:59Z</time>
      </trkpt>
      <trkpt lat="49.14541" lon="6.87698">
        <ele>280.9</ele>
        <time>2013-10-23T09:37:04Z</time>
      </trkpt>
      <trkpt lat="49.1454" lon="6.87698">
        <ele>281</ele>
        <time>2013-10-23T09:37:09Z</time>
      </trkpt>
      <trkpt lat="49.14539" lon="6.87697">
        <ele>280.7</ele>
        <time>2013-10-23T09:37:14Z</time>
      </trkpt>
      <trkpt lat="49.14539" lon="6.87696">
        <ele>280.3</ele>
        <time>2013-10-23T09:37:19Z</time>
      </trkpt>
      <trkpt lat="49.14539" lon="6.87696">
        <ele>280</ele>
        <time>2013-10-23T09:37:24Z</time>
      </trkpt>
      <trkpt lat="49.14537" lon="6.87695">
        <ele>280.2</ele>
        <time>2013-10-23T09:37:29Z</time>
      </trkpt>
      <trkpt lat="49.14537" lon="6.87695">
        <ele>280.3</ele>
        <time>2013-10-23T09:37:34Z</time>
      </trkpt>
      <trkpt lat="49.14538" lon="6.87696">
        <ele>280.2</ele>
        <time>2013-10-23T09:37:39Z</time>
      </trkpt>
      <trkpt lat="49.14539" lon="6.87697">
        <ele>280.1</ele>
        <time>2013-10-23T09:37:44Z</time>
      </trkpt>
      <trkpt lat="49.14539" lon="6.87697">
        <ele>279.7</ele>
        <time>2013-10-23T09:37:49Z</time>
      </trkpt>
      <trkpt lat="49.14539" lon="6.87697">
        <ele>279.9</ele>
        <time>2013-10-23T09:37:54Z</time>
      </trkpt>
      <trkpt lat="49.14539" lon="6.87697">
        <ele>280.3</ele>
        <time>2013-10-23T09:38:04Z</time>
      </trkpt>
      <trkpt lat="49.14539" lon="6.87697">
        <ele>280.9</ele>
        <time>2013-10-23T09:38:09Z</time>
      </trkpt>
      <trkpt lat="49.14539" lon="6.87697">
        <ele>279.8</ele>
        <time>2013-10-23T09:38:14Z</time>
      </trkpt>
      <trkpt lat="49.14538" lon="6.87696">
        <ele>279.9</ele>
        <time>2013-10-23T09:38:19Z</time>
      </trkpt>
      <trkpt lat="49.14537" lon="6.87695">
        <ele>279.9</ele>
        <time>2013-10-23T09:38:24Z</time>
      </trkpt>
      <trkpt lat="49.14537" lon="6.87695">
        <ele>280.3</ele>
        <time>2013-10-23T09:38:29Z</time>
      </trkpt>
      <trkpt lat="49.14536" lon="6.87694">
        <ele>280.2</ele>
        <time>2013-10-23T09:38:34Z</time>
      </trkpt>
      <trkpt lat="49.14535" lon="6.87695">
        <ele>280.2</ele>
        <time>2013-10-23T09:38:39Z</time>
      </trkpt>
      <trkpt lat="49.14536" lon="6.87695">
        <ele>280.1</ele>
        <time>2013-10-23T09:38:44Z</time>
      </trkpt>
      <trkpt lat="49.14535" lon="6.87695">
        <ele>280.1</ele>
        <time>2013-10-23T09:38:49Z</time>
      </trkpt>
      <trkpt lat="49.14535" lon="6.87694">
        <ele>280.6</ele>
        <time>2013-10-23T09:38:54Z</time>
      </trkpt>
      <trkpt lat="49.14536" lon="6.87695">
        <ele>280.5</ele>
        <time>2013-10-23T09:38:59Z</time>
      </trkpt>
      <trkpt lat="49.14534" lon="6.87701">
        <ele>280.8</ele>
        <time>2013-10-23T09:39:09Z</time>
      </trkpt>
      <trkpt lat="49.14534" lon="6.87704">
        <ele>281.2</ele>
        <time>2013-10-23T09:39:14Z</time>
      </trkpt>
      <trkpt lat="49.14533" lon="6.87707">
        <ele>281.5</ele>
        <time>2013-10-23T09:39:19Z</time>
      </trkpt>
      <trkpt lat="49.14534" lon="6.8771">
        <ele>282.6</ele>
        <time>2013-10-23T09:39:24Z</time>
      </trkpt>
      <trkpt lat="49.14533" lon="6.87713">
        <ele>282.5</ele>
        <time>2013-10-23T09:39:29Z</time>
      </trkpt>
      <trkpt lat="49.14532" lon="6.87718">
        <ele>283.3</ele>
        <time>2013-10-23T09:39:34Z</time>
      </trkpt>
      <trkpt lat="49.14531" lon="6.87723">
        <ele>284</ele>
        <time>2013-10-23T09:39:39Z</time>
      </trkpt>
      <trkpt lat="49.14529" lon="6.87729">
        <ele>285.2</ele>
        <time>2013-10-23T09:39:44Z</time>
      </trkpt>
      <trkpt lat="49.14526" lon="6.87733">
        <ele>286.1</ele>
        <time>2013-10-23T09:39:49Z</time>
      </trkpt>
      <trkpt lat="49.14522" lon="6.87737">
        <ele>286.1</ele>
        <time>2013-10-23T09:39:54Z</time>
      </trkpt>
      <trkpt lat="49.14521" lon="6.87738">
        <ele>286.6</ele>
        <time>2013-10-23T09:39:59Z</time>
      </trkpt>
      <trkpt lat="49.14521" lon="6.87741">
        <ele>287</ele>
        <time>2013-10-23T09:40:04Z</time>
      </trkpt>
      <trkpt lat="49.14519" lon="6.87744">
        <ele>286.9</ele>
        <time>2013-10-23T09:40:14Z</time>
      </trkpt>
      <trkpt lat="49.14519" lon="6.87744">
        <ele>286.2</ele>
        <time>2013-10-23T09:40:19Z</time>
      </trkpt>
      <trkpt lat="49.14516" lon="6.87745">
        <ele>286.7</ele>
        <time>2013-10-23T09:40:24Z</time>
      </trkpt>
      <trkpt lat="49.14512" lon="6.87748">
        <ele>286.7</ele>
        <time>2013-10-23T09:40:29Z</time>
      </trkpt>
      <trkpt lat="49.14508" lon="6.87752">
        <ele>286.2</ele>
        <time>2013-10-23T09:40:34Z</time>
      </trkpt>
      <trkpt lat="49.14504" lon="6.87757">
        <ele>286.2</ele>
        <time>2013-10-23T09:40:39Z</time>
      </trkpt>
      <trkpt lat="49.145" lon="6.87761">
        <ele>286.5</ele>
        <time>2013-10-23T09:40:44Z</time>
      </trkpt>
      <trkpt lat="49.14496" lon="6.87766">
        <ele>287.4</ele>
        <time>2013-10-23T09:40:49Z</time>
      </trkpt>
      <trkpt lat="49.14491" lon="6.87771">
        <ele>287.7</ele>
        <time>2013-10-23T09:40:54Z</time>
      </trkpt>
      <trkpt lat="49.14487" lon="6.87776">
        <ele>289</ele>
        <time>2013-10-23T09:40:59Z</time>
      </trkpt>
      <trkpt lat="49.14484" lon="6.87782">
        <ele>288.7</ele>
        <time>2013-10-23T09:41:04Z</time>
      </trkpt>
      <trkpt lat="49.1448" lon="6.87787">
        <ele>288.2</ele>
        <time>2013-10-23T09:41:09Z</time>
      </trkpt>
      <trkpt lat="49.14472" lon="6.87798">
        <ele>289</ele>
        <time>2013-10-23T09:41:19Z</time>
      </trkpt>
      <trkpt lat="49.14468" lon="6.87803">
        <ele>290.2</ele>
        <time>2013-10-23T09:41:24Z</time>
      </trkpt>
      <trkpt lat="49.14464" lon="6.87807">
        <ele>290.7</ele>
        <time>2013-10-23T09:41:29Z</time>
      </trkpt>
      <trkpt lat="49.14459" lon="6.87812">
        <ele>290.9</ele>
        <time>2013-10-23T09:41:34Z</time>
      </trkpt>
      <trkpt lat="49.14455" lon="6.87816">
        <ele>291</ele>
        <time>2013-10-23T09:41:39Z</time>
      </trkpt>
      <trkpt lat="49.1445" lon="6.87821">
        <ele>292.7</ele>
        <time>2013-10-23T09:41:44Z</time>
      </trkpt>
      <trkpt lat="49.14446" lon="6.87827">
        <ele>293.4</ele>
        <time>2013-10-23T09:41:49Z</time>
      </trkpt>
      <trkpt lat="49.14442" lon="6.87832">
        <ele>293.4</ele>
        <time>2013-10-23T09:41:54Z</time>
      </trkpt>
      <trkpt lat="49.14437" lon="6.87838">
        <ele>294.3</ele>
        <time>2013-10-23T09:41:59Z</time>
      </trkpt>
      <trkpt lat="49.14433" lon="6.87843">
        <ele>294.8</ele>
        <time>2013-10-23T09:42:04Z</time>
      </trkpt>
      <trkpt lat="49.14429" lon="6.87849">
        <ele>295.2</ele>
        <time>2013-10-23T09:42:09Z</time>
      </trkpt>
      <trkpt lat="49.14424" lon="6.87854">
        <ele>295.7</ele>
        <time>2013-10-23T09:42:14Z</time>
      </trkpt>
      <trkpt lat="49.14417" lon="6.87864">
        <ele>297.2</ele>
        <time>2013-10-23T09:42:24Z</time>
      </trkpt>
      <trkpt lat="49.14413" lon="6.87869">
        <ele>298</ele>
        <time>2013-10-23T09:42:29Z</time>
      </trkpt>
      <trkpt lat="49.14409" lon="6.87875">
        <ele>298.6</ele>
        <time>2013-10-23T09:42:34Z</time>
      </trkpt>
      <trkpt lat="49.14405" lon="6.87882">
        <ele>298.8</ele>
        <time>2013-10-23T09:42:39Z</time>
      </trkpt>
      <trkpt lat="49.14401" lon="6.87887">
        <ele>299.4</ele>
        <time>2013-10-23T09:42:44Z</time>
      </trkpt>
      <trkpt lat="49.14398" lon="6.87893">
        <ele>300.5</ele>
        <time>2013-10-23T09:42:49Z</time>
      </trkpt>
      <trkpt lat="49.14396" lon="6.87896">
        <ele>301</ele>
        <time>2013-10-23T09:42:54Z</time>
      </trkpt>
      <trkpt lat="49.14394" lon="6.87897">
        <ele>301.9</ele>
        <time>2013-10-23T09:42:59Z</time>
      </trkpt>
      <trkpt lat="49.14393" lon="6.87901">
        <ele>301.9</ele>
        <time>2013-10-23T09:43:04Z</time>
      </trkpt>
      <trkpt lat="49.1439" lon="6.87908">
        <ele>301.8</ele>
        <time>2013-10-23T09:43:09Z</time>
      </trkpt>
      <trkpt lat="49.14386" lon="6.87914">
        <ele>301.8</ele>
        <time>2013-10-23T09:43:14Z</time>
      </trkpt>
      <trkpt lat="49.14382" lon="6.8792">
        <ele>301.8</ele>
        <time>2013-10-23T09:43:19Z</time>
      </trkpt>
      <trkpt lat="49.14381" lon="6.87926">
        <ele>302.5</ele>
        <time>2013-10-23T09:43:29Z</time>
      </trkpt>
      <trkpt lat="49.14381" lon="6.87926">
        <ele>302.3</ele>
        <time>2013-10-23T09:43:34Z</time>
      </trkpt>
      <trkpt lat="49.14379" lon="6.8793">
        <ele>302.8</ele>
        <time>2013-10-23T09:43:39Z</time>
      </trkpt>
      <trkpt lat="49.14376" lon="6.87937">
        <ele>302.8</ele>
        <time>2013-10-23T09:43:44Z</time>
      </trkpt>
      <trkpt lat="49.14372" lon="6.87945">
        <ele>303.1</ele>
        <time>2013-10-23T09:43:49Z</time>
      </trkpt>
      <trkpt lat="49.14369" lon="6.87953">
        <ele>303</ele>
        <time>2013-10-23T09:43:54Z</time>
      </trkpt>
      <trkpt lat="49.14367" lon="6.87961">
        <ele>303.4</ele>
        <time>2013-10-23T09:43:59Z</time>
      </trkpt>
      <trkpt lat="49.14363" lon="6.87968">
        <ele>303</ele>
        <time>2013-10-23T09:44:04Z</time>
      </trkpt>
      <trkpt lat="49.14361" lon="6.87974">
        <ele>303.7</ele>
        <time>2013-10-23T09:44:09Z</time>
      </trkpt>
      <trkpt lat="49.14357" lon="6.87979">
        <ele>303.6</ele>
        <time>2013-10-23T09:44:14Z</time>
      </trkpt>
      <trkpt lat="49.14354" lon="6.87986">
        <ele>303.8</ele>
        <time>2013-10-23T09:44:19Z</time>
      </trkpt>
      <trkpt lat="49.1435" lon="6.87992">
        <ele>304.2</ele>
        <time>2013-10-23T09:44:24Z</time>
      </trkpt>
      <trkpt lat="49.14345" lon="6.88007">
        <ele>304</ele>
        <time>2013-10-23T09:44:34Z</time>
      </trkpt>
      <trkpt lat="49.14342" lon="6.88014">
        <ele>304.2</ele>
        <time>2013-10-23T09:44:39Z</time>
      </trkpt>
      <trkpt lat="49.14338" lon="6.88022">
        <ele>304.2</ele>
        <time>2013-10-23T09:44:44Z</time>
      </trkpt>
      <trkpt lat="49.14335" lon="6.88029">
        <ele>304.6</ele>
        <time>2013-10-23T09:44:49Z</time>
      </trkpt>
      <trkpt lat="49.14332" lon="6.88037">
        <ele>303.6</ele>
        <time>2013-10-23T09:44:54Z</time>
      </trkpt>
      <trkpt lat="49.14328" lon="6.88045">
        <ele>303.7</ele>
        <time>2013-10-23T09:44:59Z</time>
      </trkpt>
      <trkpt lat="49.14325" lon="6.88053">
        <ele>303.4</ele>
        <time>2013-10-23T09:45:04Z</time>
      </trkpt>
      <trkpt lat="49.1432" lon="6.88059">
        <ele>303.6</ele>
        <time>2013-10-23T09:45:09Z</time>
      </trkpt>
      <trkpt lat="49.14316" lon="6.88065">
        <ele>303.2</ele>
        <time>2013-10-23T09:45:14Z</time>
      </trkpt>
      <trkpt lat="49.14312" lon="6.88073">
        <ele>302.8</ele>
        <time>2013-10-23T09:45:19Z</time>
      </trkpt>
      <trkpt lat="49.1431" lon="6.8808">
        <ele>303.4</ele>
        <time>2013-10-23T09:45:24Z</time>
      </trkpt>
      <trkpt lat="49.14305" lon="6.88088">
        <ele>303.4</ele>
        <time>2013-10-23T09:45:29Z</time>
      </trkpt>
      <trkpt lat="49.14297" lon="6.88103">
        <ele>304.1</ele>
        <time>2013-10-23T09:45:39Z</time>
      </trkpt>
      <trkpt lat="49.14293" lon="6.8811">
        <ele>304.3</ele>
        <time>2013-10-23T09:45:44Z</time>
      </trkpt>
      <trkpt lat="49.14288" lon="6.88116">
        <ele>303.9</ele>
        <time>2013-10-23T09:45:49Z</time>
      </trkpt>
      <trkpt lat="49.14284" lon="6.88122">
        <ele>304.2</ele>
        <time>2013-10-23T09:45:54Z</time>
      </trkpt>
      <trkpt lat="49.14279" lon="6.88129">
        <ele>303.8</ele>
        <time>2013-10-23T09:45:59Z</time>
      </trkpt>
      <trkpt lat="49.14274" lon="6.88134">
        <ele>303</ele>
        <time>2013-10-23T09:46:04Z</time>
      </trkpt>
      <trkpt lat="49.14269" lon="6.88141">
        <ele>303.2</ele>
        <time>2013-10-23T09:46:09Z</time>
      </trkpt>
      <trkpt lat="49.14264" lon="6.88146">
        <ele>303.9</ele>
        <time>2013-10-23T09:46:14Z</time>
      </trkpt>
      <trkpt lat="49.14259" lon="6.88151">
        <ele>304.3</ele>
        <time>2013-10-23T09:46:19Z</time>
      </trkpt>
      <trkpt lat="49.14254" lon="6.88155">
        <ele>304.2</ele>
        <time>2013-10-23T09:46:24Z</time>
      </trkpt>
      <trkpt lat="49.14248" lon="6.8816">
        <ele>304.7</ele>
        <time>2013-10-23T09:46:29Z</time>
      </trkpt>
      <trkpt lat="49.14243" lon="6.88164">
        <ele>305.7</ele>
        <time>2013-10-23T09:46:34Z</time>
      </trkpt>
      <trkpt lat="49.14235" lon="6.88173">
        <ele>307.4</ele>
        <time>2013-10-23T09:46:44Z</time>
      </trkpt>
      <trkpt lat="49.14234" lon="6.88174">
        <ele>307.2</ele>
        <time>2013-10-23T09:46:49Z</time>
      </trkpt>
      <trkpt lat="49.1423" lon="6.88176">
        <ele>307.8</ele>
        <time>2013-10-23T09:46:54Z</time>
      </trkpt>
      <trkpt lat="49.14225" lon="6.8818">
        <ele>307.8</ele>
        <time>2013-10-23T09:46:59Z</time>
      </trkpt>
      <trkpt lat="49.1422" lon="6.88184">
        <ele>307.7</ele>
        <time>2013-10-23T09:47:04Z</time>
      </trkpt>
      <trkpt lat="49.14214" lon="6.88186">
        <ele>308.2</ele>
        <time>2013-10-23T09:47:09Z</time>
      </trkpt>
      <trkpt lat="49.1421" lon="6.8819">
        <ele>308.9</ele>
        <time>2013-10-23T09:47:14Z</time>
      </trkpt>
      <trkpt lat="49.14204" lon="6.88195">
        <ele>309</ele>
        <time>2013-10-23T09:47:19Z</time>
      </trkpt>
      <trkpt lat="49.14199" lon="6.882">
        <ele>308</ele>
        <time>2013-10-23T09:47:24Z</time>
      </trkpt>
      <trkpt lat="49.14195" lon="6.88205">
        <ele>309.5</ele>
        <time>2013-10-23T09:47:29Z</time>
      </trkpt>
      <trkpt lat="49.14191" lon="6.88211">
        <ele>309.1</ele>
        <time>2013-10-23T09:47:34Z</time>
      </trkpt>
      <trkpt lat="49.14188" lon="6.88218">
        <ele>309.9</ele>
        <time>2013-10-23T09:47:39Z</time>
      </trkpt>
      <trkpt lat="49.1418" lon="6.8823">
        <ele>311.2</ele>
        <time>2013-10-23T09:47:49Z</time>
      </trkpt>
      <trkpt lat="49.14176" lon="6.88235">
        <ele>311.9</ele>
        <time>2013-10-23T09:47:54Z</time>
      </trkpt>
      <trkpt lat="49.14173" lon="6.88242">
        <ele>312</ele>
        <time>2013-10-23T09:47:59Z</time>
      </trkpt>
      <trkpt lat="49.14169" lon="6.88247">
        <ele>312.5</ele>
        <time>2013-10-23T09:48:04Z</time>
      </trkpt>
      <trkpt lat="49.14164" lon="6.88251">
        <ele>312.9</ele>
        <time>2013-10-23T09:48:09Z</time>
      </trkpt>
      <trkpt lat="49.14159" lon="6.88252">
        <ele>313.3</ele>
        <time>2013-10-23T09:48:14Z</time>
      </trkpt>
      <trkpt lat="49.14153" lon="6.88249">
        <ele>314</ele>
        <time>2013-10-23T09:48:19Z</time>
      </trkpt>
      <trkpt lat="49.14148" lon="6.88247">
        <ele>315.9</ele>
        <time>2013-10-23T09:48:24Z</time>
      </trkpt>
      <trkpt lat="49.14142" lon="6.88243">
        <ele>315</ele>
        <time>2013-10-23T09:48:29Z</time>
      </trkpt>
      <trkpt lat="49.14137" lon="6.88238">
        <ele>314.2</ele>
        <time>2013-10-23T09:48:34Z</time>
      </trkpt>
      <trkpt lat="49.14132" lon="6.88234">
        <ele>314.5</ele>
        <time>2013-10-23T09:48:39Z</time>
      </trkpt>
      <trkpt lat="49.14127" lon="6.88232">
        <ele>316</ele>
        <time>2013-10-23T09:48:44Z</time>
      </trkpt>
      <trkpt lat="49.14125" lon="6.88232">
        <ele>315.5</ele>
        <time>2013-10-23T09:48:54Z</time>
      </trkpt>
      <trkpt lat="49.14124" lon="6.88234">
        <ele>315.7</ele>
        <time>2013-10-23T09:48:59Z</time>
      </trkpt>
      <trkpt lat="49.14121" lon="6.88242">
        <ele>315.8</ele>
        <time>2013-10-23T09:49:04Z</time>
      </trkpt>
      <trkpt lat="49.14119" lon="6.8825">
        <ele>316</ele>
        <time>2013-10-23T09:49:09Z</time>
      </trkpt>
      <trkpt lat="49.14118" lon="6.88258">
        <ele>316.6</ele>
        <time>2013-10-23T09:49:14Z</time>
      </trkpt>
      <trkpt lat="49.14118" lon="6.88267">
        <ele>318.2</ele>
        <time>2013-10-23T09:49:19Z</time>
      </trkpt>
      <trkpt lat="49.14117" lon="6.88274">
        <ele>318.4</ele>
        <time>2013-10-23T09:49:24Z</time>
      </trkpt>
      <trkpt lat="49.14115" lon="6.88283">
        <ele>319</ele>
        <time>2013-10-23T09:49:29Z</time>
      </trkpt>
      <trkpt lat="49.14114" lon="6.88291">
        <ele>320.8</ele>
        <time>2013-10-23T09:49:34Z</time>
      </trkpt>
      <trkpt lat="49.14112" lon="6.88298">
        <ele>322.6</ele>
        <time>2013-10-23T09:49:39Z</time>
      </trkpt>
      <trkpt lat="49.14111" lon="6.88306">
        <ele>323.5</ele>
        <time>2013-10-23T09:49:44Z</time>
      </trkpt>
      <trkpt lat="49.1411" lon="6.88313">
        <ele>323.8</ele>
        <time>2013-10-23T09:49:49Z</time>
      </trkpt>
      <trkpt lat="49.14108" lon="6.88328">
        <ele>325.7</ele>
        <time>2013-10-23T09:49:59Z</time>
      </trkpt>
      <trkpt lat="49.14087" lon="6.88372">
        <ele>330</ele>
        <time>2013-10-23T09:50:36Z</time>
      </trkpt>
      <trkpt lat="49.14085" lon="6.88376">
        <ele>332</ele>
        <time>2013-10-23T09:50:45Z</time>
      </trkpt>
      <trkpt lat="49.14086" lon="6.88378">
        <ele>333</ele>
        <time>2013-10-23T09:50:50Z</time>
      </trkpt>
      <trkpt lat="49.14083" lon="6.88383">
        <ele>333.2</ele>
        <time>2013-10-23T09:51:00Z</time>
      </trkpt>
      <trkpt lat="49.14083" lon="6.88386">
        <ele>333.6</ele>
        <time>2013-10-23T09:51:05Z</time>
      </trkpt>
      <trkpt lat="49.14083" lon="6.88388">
        <ele>334</ele>
        <time>2013-10-23T09:51:10Z</time>
      </trkpt>
      <trkpt lat="49.14083" lon="6.88391">
        <ele>333.4</ele>
        <time>2013-10-23T09:51:15Z</time>
      </trkpt>
      <trkpt lat="49.14081" lon="6.88394">
        <ele>334.1</ele>
        <time>2013-10-23T09:51:20Z</time>
      </trkpt>
      <trkpt lat="49.14079" lon="6.88395">
        <ele>335.2</ele>
        <time>2013-10-23T09:51:25Z</time>
      </trkpt>
      <trkpt lat="49.14074" lon="6.88397">
        <ele>336.2</ele>
        <time>2013-10-23T09:51:30Z</time>
      </trkpt>
      <trkpt lat="49.1407" lon="6.88399">
        <ele>338.2</ele>
        <time>2013-10-23T09:51:35Z</time>
      </trkpt>
      <trkpt lat="49.14067" lon="6.884">
        <ele>339.8</ele>
        <time>2013-10-23T09:51:40Z</time>
      </trkpt>
      <trkpt lat="49.14069" lon="6.88401">
        <ele>339.7</ele>
        <time>2013-10-23T09:51:45Z</time>
      </trkpt>
      <trkpt lat="49.1407" lon="6.88402">
        <ele>339.8</ele>
        <time>2013-10-23T09:51:50Z</time>
      </trkpt>
      <trkpt lat="49.14074" lon="6.88402">
        <ele>339</ele>
        <time>2013-10-23T09:52:00Z</time>
      </trkpt>
      <trkpt lat="49.14079" lon="6.88405">
        <ele>340.3</ele>
        <time>2013-10-23T09:52:10Z</time>
      </trkpt>
      <trkpt lat="49.14078" lon="6.88405">
        <ele>340.7</ele>
        <time>2013-10-23T09:52:15Z</time>
      </trkpt>
      <trkpt lat="49.14076" lon="6.88404">
        <ele>340</ele>
        <time>2013-10-23T09:52:20Z</time>
      </trkpt>
      <trkpt lat="49.14075" lon="6.88405">
        <ele>340</ele>
        <time>2013-10-23T09:52:28Z</time>
      </trkpt>
      <trkpt lat="49.14075" lon="6.88406">
        <ele>340.1</ele>
        <time>2013-10-23T09:52:33Z</time>
      </trkpt>
      <trkpt lat="49.14075" lon="6.88406">
        <ele>339.2</ele>
        <time>2013-10-23T09:52:38Z</time>
      </trkpt>
      <trkpt lat="49.14073" lon="6.88403">
        <ele>339.6</ele>
        <time>2013-10-23T09:52:43Z</time>
      </trkpt>
      <trkpt lat="49.1407" lon="6.88399">
        <ele>340</ele>
        <time>2013-10-23T09:52:48Z</time>
      </trkpt>
      <trkpt lat="49.14066" lon="6.88395">
        <ele>340.5</ele>
        <time>2013-10-23T09:52:53Z</time>
      </trkpt>
      <trkpt lat="49.1406" lon="6.88391">
        <ele>340.1</ele>
        <time>2013-10-23T09:52:58Z</time>
      </trkpt>
      <trkpt lat="49.14055" lon="6.88385">
        <ele>340</ele>
        <time>2013-10-23T09:53:03Z</time>
      </trkpt>
      <trkpt lat="49.14054" lon="6.88384">
        <ele>340</ele>
        <time>2013-10-23T09:53:08Z</time>
      </trkpt>
      <trkpt lat="49.14042" lon="6.88374">
        <ele>340.5</ele>
        <time>2013-10-23T09:53:18Z</time>
      </trkpt>
      <trkpt lat="49.1404" lon="6.88369">
        <ele>340.8</ele>
        <time>2013-10-23T09:53:23Z</time>
      </trkpt>
      <trkpt lat="49.14038" lon="6.88367">
        <ele>340.4</ele>
        <time>2013-10-23T09:53:28Z</time>
      </trkpt>
      <trkpt lat="49.14035" lon="6.88362">
        <ele>340.2</ele>
        <time>2013-10-23T09:53:33Z</time>
      </trkpt>
      <trkpt lat="49.14031" lon="6.88356">
        <ele>340.2</ele>
        <time>2013-10-23T09:53:38Z</time>
      </trkpt>
      <trkpt lat="49.14029" lon="6.88351">
        <ele>340.4</ele>
        <time>2013-10-23T09:53:43Z</time>
      </trkpt>
      <trkpt lat="49.14026" lon="6.88345">
        <ele>340.2</ele>
        <time>2013-10-23T09:53:48Z</time>
      </trkpt>
      <trkpt lat="49.14026" lon="6.88341">
        <ele>339.7</ele>
        <time>2013-10-23T09:53:53Z</time>
      </trkpt>
      <trkpt lat="49.14024" lon="6.88337">
        <ele>339.5</ele>
        <time>2013-10-23T09:53:58Z</time>
      </trkpt>
      <trkpt lat="49.14022" lon="6.88331">
        <ele>338.5</ele>
        <time>2013-10-23T09:54:03Z</time>
      </trkpt>
      <trkpt lat="49.14017" lon="6.88325">
        <ele>337.6</ele>
        <time>2013-10-23T09:54:08Z</time>
      </trkpt>
      <trkpt lat="49.14015" lon="6.88321">
        <ele>337.7</ele>
        <time>2013-10-23T09:54:13Z</time>
      </trkpt>
      <trkpt lat="49.14008" lon="6.88312">
        <ele>337</ele>
        <time>2013-10-23T09:54:23Z</time>
      </trkpt>
      <trkpt lat="49.14004" lon="6.88308">
        <ele>336.7</ele>
        <time>2013-10-23T09:54:28Z</time>
      </trkpt>
      <trkpt lat="49.13999" lon="6.88303">
        <ele>336.8</ele>
        <time>2013-10-23T09:54:33Z</time>
      </trkpt>
      <trkpt lat="49.13997" lon="6.883">
        <ele>336.2</ele>
        <time>2013-10-23T09:54:38Z</time>
      </trkpt>
      <trkpt lat="49.13993" lon="6.88296">
        <ele>336.2</ele>
        <time>2013-10-23T09:54:43Z</time>
      </trkpt>
      <trkpt lat="49.13987" lon="6.88291">
        <ele>336.1</ele>
        <time>2013-10-23T09:54:48Z</time>
      </trkpt>
      <trkpt lat="49.13982" lon="6.88285">
        <ele>336.4</ele>
        <time>2013-10-23T09:54:53Z</time>
      </trkpt>
      <trkpt lat="49.13977" lon="6.8828">
        <ele>336.8</ele>
        <time>2013-10-23T09:54:58Z</time>
      </trkpt>
      <trkpt lat="49.13969" lon="6.88275">
        <ele>336.4</ele>
        <time>2013-10-23T09:55:03Z</time>
      </trkpt>
      <trkpt lat="49.13962" lon="6.8827">
        <ele>336.2</ele>
        <time>2013-10-23T09:55:08Z</time>
      </trkpt>
      <trkpt lat="49.13955" lon="6.88265">
        <ele>336.6</ele>
        <time>2013-10-23T09:55:13Z</time>
      </trkpt>
      <trkpt lat="49.13947" lon="6.88261">
        <ele>336.5</ele>
        <time>2013-10-23T09:55:18Z</time>
      </trkpt>
      <trkpt lat="49.13937" lon="6.88254">
        <ele>336.2</ele>
        <time>2013-10-23T09:55:28Z</time>
      </trkpt>
      <trkpt lat="49.1393" lon="6.88251">
        <ele>335.3</ele>
        <time>2013-10-23T09:55:33Z</time>
      </trkpt>
      <trkpt lat="49.13925" lon="6.88249">
        <ele>335.4</ele>
        <time>2013-10-23T09:55:38Z</time>
      </trkpt>
      <trkpt lat="49.13921" lon="6.88247">
        <ele>335.4</ele>
        <time>2013-10-23T09:55:43Z</time>
      </trkpt>
      <trkpt lat="49.13916" lon="6.88245">
        <ele>334.4</ele>
        <time>2013-10-23T09:55:48Z</time>
      </trkpt>
      <trkpt lat="49.13912" lon="6.88244">
        <ele>334.2</ele>
        <time>2013-10-23T09:55:53Z</time>
      </trkpt>
      <trkpt lat="49.13908" lon="6.88243">
        <ele>333.8</ele>
        <time>2013-10-23T09:55:58Z</time>
      </trkpt>
      <trkpt lat="49.13904" lon="6.88242">
        <ele>332.5</ele>
        <time>2013-10-23T09:56:03Z</time>
      </trkpt>
      <trkpt lat="49.13899" lon="6.88242">
        <ele>332.3</ele>
        <time>2013-10-23T09:56:08Z</time>
      </trkpt>
      <trkpt lat="49.13895" lon="6.88241">
        <ele>331.6</ele>
        <time>2013-10-23T09:56:13Z</time>
      </trkpt>
      <trkpt lat="49.13892" lon="6.88241">
        <ele>332.1</ele>
        <time>2013-10-23T09:56:18Z</time>
      </trkpt>
      <trkpt lat="49.13888" lon="6.8824">
        <ele>330.9</ele>
        <time>2013-10-23T09:56:23Z</time>
      </trkpt>
      <trkpt lat="49.13879" lon="6.8824">
        <ele>330</ele>
        <time>2013-10-23T09:56:33Z</time>
      </trkpt>
      <trkpt lat="49.13873" lon="6.88239">
        <ele>330.5</ele>
        <time>2013-10-23T09:56:38Z</time>
      </trkpt>
      <trkpt lat="49.13868" lon="6.88237">
        <ele>329.1</ele>
        <time>2013-10-23T09:56:43Z</time>
      </trkpt>
      <trkpt lat="49.13861" lon="6.88234">
        <ele>329</ele>
        <time>2013-10-23T09:56:48Z</time>
      </trkpt>
      <trkpt lat="49.13855" lon="6.88232">
        <ele>328.3</ele>
        <time>2013-10-23T09:56:53Z</time>
      </trkpt>
      <trkpt lat="49.13849" lon="6.8823">
        <ele>327.2</ele>
        <time>2013-10-23T09:56:58Z</time>
      </trkpt>
      <trkpt lat="49.13843" lon="6.88229">
        <ele>326.7</ele>
        <time>2013-10-23T09:57:03Z</time>
      </trkpt>
      <trkpt lat="49.13836" lon="6.88227">
        <ele>326.2</ele>
        <time>2013-10-23T09:57:08Z</time>
      </trkpt>
      <trkpt lat="49.13829" lon="6.88225">
        <ele>324.9</ele>
        <time>2013-10-23T09:57:13Z</time>
      </trkpt>
      <trkpt lat="49.13822" lon="6.88221">
        <ele>323.8</ele>
        <time>2013-10-23T09:57:18Z</time>
      </trkpt>
      <trkpt lat="49.13815" lon="6.88219">
        <ele>322.7</ele>
        <time>2013-10-23T09:57:23Z</time>
      </trkpt>
      <trkpt lat="49.13808" lon="6.88217">
        <ele>322.5</ele>
        <time>2013-10-23T09:57:28Z</time>
      </trkpt>
      <trkpt lat="49.13797" lon="6.88212">
        <ele>320.5</ele>
        <time>2013-10-23T09:57:38Z</time>
      </trkpt>
      <trkpt lat="49.13791" lon="6.88208">
        <ele>320.2</ele>
        <time>2013-10-23T09:57:43Z</time>
      </trkpt>
      <trkpt lat="49.13782" lon="6.88205">
        <ele>319.6</ele>
        <time>2013-10-23T09:57:48Z</time>
      </trkpt>
      <trkpt lat="49.13777" lon="6.88206">
        <ele>318.2</ele>
        <time>2013-10-23T09:57:53Z</time>
      </trkpt>
      <trkpt lat="49.13771" lon="6.88205">
        <ele>317.7</ele>
        <time>2013-10-23T09:57:58Z</time>
      </trkpt>
      <trkpt lat="49.13765" lon="6.88204">
        <ele>315.7</ele>
        <time>2013-10-23T09:58:03Z</time>
      </trkpt>
      <trkpt lat="49.13761" lon="6.88203">
        <ele>316.4</ele>
        <time>2013-10-23T09:58:08Z</time>
      </trkpt>
      <trkpt lat="49.13756" lon="6.88201">
        <ele>315.5</ele>
        <time>2013-10-23T09:58:13Z</time>
      </trkpt>
      <trkpt lat="49.13752" lon="6.882">
        <ele>314.7</ele>
        <time>2013-10-23T09:58:18Z</time>
      </trkpt>
      <trkpt lat="49.13745" lon="6.88199">
        <ele>313.8</ele>
        <time>2013-10-23T09:58:23Z</time>
      </trkpt>
      <trkpt lat="49.13739" lon="6.88199">
        <ele>314.2</ele>
        <time>2013-10-23T09:58:28Z</time>
      </trkpt>
      <trkpt lat="49.13735" lon="6.882">
        <ele>314.3</ele>
        <time>2013-10-23T09:58:33Z</time>
      </trkpt>
      <trkpt lat="49.13723" lon="6.88199">
        <ele>313.3</ele>
        <time>2013-10-23T09:58:43Z</time>
      </trkpt>
      <trkpt lat="49.13718" lon="6.88197">
        <ele>312.4</ele>
        <time>2013-10-23T09:58:48Z</time>
      </trkpt>
      <trkpt lat="49.13714" lon="6.88196">
        <ele>312.8</ele>
        <time>2013-10-23T09:58:53Z</time>
      </trkpt>
      <trkpt lat="49.1371" lon="6.88196">
        <ele>312.4</ele>
        <time>2013-10-23T09:58:58Z</time>
      </trkpt>
      <trkpt lat="49.13704" lon="6.88196">
        <ele>311.2</ele>
        <time>2013-10-23T09:59:03Z</time>
      </trkpt>
      <trkpt lat="49.13698" lon="6.88196">
        <ele>310</ele>
        <time>2013-10-23T09:59:08Z</time>
      </trkpt>
      <trkpt lat="49.13692" lon="6.88197">
        <ele>309.3</ele>
        <time>2013-10-23T09:59:13Z</time>
      </trkpt>
      <trkpt lat="49.13686" lon="6.88195">
        <ele>307.8</ele>
        <time>2013-10-23T09:59:18Z</time>
      </trkpt>
      <trkpt lat="49.13681" lon="6.88195">
        <ele>306.4</ele>
        <time>2013-10-23T09:59:23Z</time>
      </trkpt>
      <trkpt lat="49.13676" lon="6.88194">
        <ele>306.7</ele>
        <time>2013-10-23T09:59:28Z</time>
      </trkpt>
      <trkpt lat="49.13671" lon="6.88191">
        <ele>306.5</ele>
        <time>2013-10-23T09:59:33Z</time>
      </trkpt>
      <trkpt lat="49.13666" lon="6.88192">
        <ele>306.5</ele>
        <time>2013-10-23T09:59:38Z</time>
      </trkpt>
      <trkpt lat="49.13657" lon="6.88192">
        <ele>305.2</ele>
        <time>2013-10-23T09:59:48Z</time>
      </trkpt>
      <trkpt lat="49.13651" lon="6.88193">
        <ele>305.5</ele>
        <time>2013-10-23T09:59:53Z</time>
      </trkpt>
      <trkpt lat="49.13644" lon="6.88194">
        <ele>306.3</ele>
        <time>2013-10-23T09:59:58Z</time>
      </trkpt>
      <trkpt lat="49.13636" lon="6.88197">
        <ele>306.7</ele>
        <time>2013-10-23T10:00:03Z</time>
      </trkpt>
      <trkpt lat="49.13631" lon="6.88199">
        <ele>307.6</ele>
        <time>2013-10-23T10:00:08Z</time>
      </trkpt>
      <trkpt lat="49.13626" lon="6.882">
        <ele>308</ele>
        <time>2013-10-23T10:00:13Z</time>
      </trkpt>
      <trkpt lat="49.13621" lon="6.88201">
        <ele>309.3</ele>
        <time>2013-10-23T10:00:18Z</time>
      </trkpt>
      <trkpt lat="49.13614" lon="6.88199">
        <ele>309.9</ele>
        <time>2013-10-23T10:00:23Z</time>
      </trkpt>
      <trkpt lat="49.13609" lon="6.88199">
        <ele>309</ele>
        <time>2013-10-23T10:00:28Z</time>
      </trkpt>
      <trkpt lat="49.13603" lon="6.88196">
        <ele>309.2</ele>
        <time>2013-10-23T10:00:33Z</time>
      </trkpt>
      <trkpt lat="49.136" lon="6.88195">
        <ele>308.6</ele>
        <time>2013-10-23T10:00:38Z</time>
      </trkpt>
      <trkpt lat="49.13595" lon="6.88196">
        <ele>309.2</ele>
        <time>2013-10-23T10:00:43Z</time>
      </trkpt>
      <trkpt lat="49.1359" lon="6.88202">
        <ele>310.2</ele>
        <time>2013-10-23T10:00:53Z</time>
      </trkpt>
      <trkpt lat="49.13588" lon="6.88205">
        <ele>311.6</ele>
        <time>2013-10-23T10:00:58Z</time>
      </trkpt>
      <trkpt lat="49.13584" lon="6.88209">
        <ele>311.4</ele>
        <time>2013-10-23T10:01:03Z</time>
      </trkpt>
      <trkpt lat="49.1358" lon="6.88211">
        <ele>310.8</ele>
        <time>2013-10-23T10:01:08Z</time>
      </trkpt>
      <trkpt lat="49.13576" lon="6.88216">
        <ele>311.4</ele>
        <time>2013-10-23T10:01:13Z</time>
      </trkpt>
      <trkpt lat="49.13573" lon="6.88221">
        <ele>311.4</ele>
        <time>2013-10-23T10:01:18Z</time>
      </trkpt>
      <trkpt lat="49.13573" lon="6.88226">
        <ele>311.8</ele>
        <time>2013-10-23T10:01:23Z</time>
      </trkpt>
      <trkpt lat="49.1357" lon="6.88231">
        <ele>312.9</ele>
        <time>2013-10-23T10:01:28Z</time>
      </trkpt>
      <trkpt lat="49.13567" lon="6.88237">
        <ele>313.3</ele>
        <time>2013-10-23T10:01:33Z</time>
      </trkpt>
      <trkpt lat="49.13564" lon="6.88242">
        <ele>314.4</ele>
        <time>2013-10-23T10:01:38Z</time>
      </trkpt>
      <trkpt lat="49.13564" lon="6.88245">
        <ele>314.7</ele>
        <time>2013-10-23T10:01:43Z</time>
      </trkpt>
      <trkpt lat="49.13564" lon="6.88247">
        <ele>315.1</ele>
        <time>2013-10-23T10:01:48Z</time>
      </trkpt>
      <trkpt lat="49.13565" lon="6.88255">
        <ele>314.3</ele>
        <time>2013-10-23T10:01:58Z</time>
      </trkpt>
      <trkpt lat="49.13566" lon="6.88263">
        <ele>315.2</ele>
        <time>2013-10-23T10:02:03Z</time>
      </trkpt>
      <trkpt lat="49.13568" lon="6.88269">
        <ele>315.9</ele>
        <time>2013-10-23T10:02:08Z</time>
      </trkpt>
      <trkpt lat="49.13569" lon="6.8827">
        <ele>316.3</ele>
        <time>2013-10-23T10:02:13Z</time>
      </trkpt>
      <trkpt lat="49.13568" lon="6.88272">
        <ele>315.5</ele>
        <time>2013-10-23T10:02:18Z</time>
      </trkpt>
      <trkpt lat="49.13568" lon="6.88272">
        <ele>316.5</ele>
        <time>2013-10-23T10:02:23Z</time>
      </trkpt>
      <trkpt lat="49.13567" lon="6.88273">
        <ele>317.4</ele>
        <time>2013-10-23T10:02:28Z</time>
      </trkpt>
      <trkpt lat="49.13566" lon="6.88273">
        <ele>317.2</ele>
        <time>2013-10-23T10:02:33Z</time>
      </trkpt>
      <trkpt lat="49.13566" lon="6.88275">
        <ele>316.9</ele>
        <time>2013-10-23T10:02:38Z</time>
      </trkpt>
      <trkpt lat="49.13566" lon="6.88282">
        <ele>316.1</ele>
        <time>2013-10-23T10:02:43Z</time>
      </trkpt>
      <trkpt lat="49.13567" lon="6.88289">
        <ele>316.7</ele>
        <time>2013-10-23T10:02:48Z</time>
      </trkpt>
      <trkpt lat="49.13568" lon="6.88294">
        <ele>317.9</ele>
        <time>2013-10-23T10:02:53Z</time>
      </trkpt>
      <trkpt lat="49.13568" lon="6.88296">
        <ele>318.1</ele>
        <time>2013-10-23T10:03:03Z</time>
      </trkpt>
      <trkpt lat="49.1357" lon="6.88298">
        <ele>318.2</ele>
        <time>2013-10-23T10:03:08Z</time>
      </trkpt>
      <trkpt lat="49.13572" lon="6.883">
        <ele>317.2</ele>
        <time>2013-10-23T10:03:13Z</time>
      </trkpt>
      <trkpt lat="49.13571" lon="6.88303">
        <ele>317.9</ele>
        <time>2013-10-23T10:03:18Z</time>
      </trkpt>
      <trkpt lat="49.1357" lon="6.88305">
        <ele>318.5</ele>
        <time>2013-10-23T10:03:23Z</time>
      </trkpt>
      <trkpt lat="49.13571" lon="6.88307">
        <ele>318.7</ele>
        <time>2013-10-23T10:03:28Z</time>
      </trkpt>
      <trkpt lat="49.13569" lon="6.88309">
        <ele>318.9</ele>
        <time>2013-10-23T10:03:33Z</time>
      </trkpt>
      <trkpt lat="49.13569" lon="6.88311">
        <ele>320</ele>
        <time>2013-10-23T10:03:38Z</time>
      </trkpt>
      <trkpt lat="49.13568" lon="6.88314">
        <ele>320.5</ele>
        <time>2013-10-23T10:03:43Z</time>
      </trkpt>
      <trkpt lat="49.13567" lon="6.88316">
        <ele>321.2</ele>
        <time>2013-10-23T10:03:48Z</time>
      </trkpt>
      <trkpt lat="49.13565" lon="6.88321">
        <ele>322</ele>
        <time>2013-10-23T10:03:53Z</time>
      </trkpt>
      <trkpt lat="49.13565" lon="6.88327">
        <ele>322.7</ele>
        <time>2013-10-23T10:03:58Z</time>
      </trkpt>
      <trkpt lat="49.13567" lon="6.88337">
        <ele>322.1</ele>
        <time>2013-10-23T10:04:08Z</time>
      </trkpt>
      <trkpt lat="49.13568" lon="6.88344">
        <ele>323</ele>
        <time>2013-10-23T10:04:13Z</time>
      </trkpt>
      <trkpt lat="49.13567" lon="6.88348">
        <ele>323.4</ele>
        <time>2013-10-23T10:04:18Z</time>
      </trkpt>
      <trkpt lat="49.13564" lon="6.88354">
        <ele>323.7</ele>
        <time>2013-10-23T10:04:23Z</time>
      </trkpt>
      <trkpt lat="49.1356" lon="6.88362">
        <ele>324</ele>
        <time>2013-10-23T10:04:28Z</time>
      </trkpt>
      <trkpt lat="49.13557" lon="6.88369">
        <ele>324</ele>
        <time>2013-10-23T10:04:33Z</time>
      </trkpt>
      <trkpt lat="49.13554" lon="6.88374">
        <ele>324.4</ele>
        <time>2013-10-23T10:04:38Z</time>
      </trkpt>
      <trkpt lat="49.13552" lon="6.88379">
        <ele>324.9</ele>
        <time>2013-10-23T10:04:43Z</time>
      </trkpt>
      <trkpt lat="49.13548" lon="6.88385">
        <ele>324.3</ele>
        <time>2013-10-23T10:04:48Z</time>
      </trkpt>
      <trkpt lat="49.13544" lon="6.88391">
        <ele>324.3</ele>
        <time>2013-10-23T10:04:53Z</time>
      </trkpt>
      <trkpt lat="49.13543" lon="6.88397">
        <ele>324</ele>
        <time>2013-10-23T10:04:58Z</time>
      </trkpt>
      <trkpt lat="49.13541" lon="6.88403">
        <ele>324.6</ele>
        <time>2013-10-23T10:05:03Z</time>
      </trkpt>
      <trkpt lat="49.13538" lon="6.88413">
        <ele>324.5</ele>
        <time>2013-10-23T10:05:13Z</time>
      </trkpt>
      <trkpt lat="49.13537" lon="6.88416">
        <ele>324.7</ele>
        <time>2013-10-23T10:05:18Z</time>
      </trkpt>
      <trkpt lat="49.13536" lon="6.8842">
        <ele>324.6</ele>
        <time>2013-10-23T10:05:23Z</time>
      </trkpt>
      <trkpt lat="49.13535" lon="6.88425">
        <ele>324.3</ele>
        <time>2013-10-23T10:05:28Z</time>
      </trkpt>
      <trkpt lat="49.13533" lon="6.8843">
        <ele>324.5</ele>
        <time>2013-10-23T10:05:33Z</time>
      </trkpt>
      <trkpt lat="49.13533" lon="6.88437">
        <ele>324.7</ele>
        <time>2013-10-23T10:05:38Z</time>
      </trkpt>
      <trkpt lat="49.13532" lon="6.88446">
        <ele>325.4</ele>
        <time>2013-10-23T10:05:43Z</time>
      </trkpt>
      <trkpt lat="49.13532" lon="6.88454">
        <ele>324.9</ele>
        <time>2013-10-23T10:05:48Z</time>
      </trkpt>
      <trkpt lat="49.13532" lon="6.88463">
        <ele>326.2</ele>
        <time>2013-10-23T10:05:53Z</time>
      </trkpt>
      <trkpt lat="49.13532" lon="6.88471">
        <ele>326.2</ele>
        <time>2013-10-23T10:05:58Z</time>
      </trkpt>
      <trkpt lat="49.13535" lon="6.88478">
        <ele>326.7</ele>
        <time>2013-10-23T10:06:03Z</time>
      </trkpt>
      <trkpt lat="49.13539" lon="6.88484">
        <ele>327.9</ele>
        <time>2013-10-23T10:06:08Z</time>
      </trkpt>
      <trkpt lat="49.13541" lon="6.8849">
        <ele>328.6</ele>
        <time>2013-10-23T10:06:18Z</time>
      </trkpt>
      <trkpt lat="49.13543" lon="6.88495">
        <ele>329.2</ele>
        <time>2013-10-23T10:06:23Z</time>
      </trkpt>
      <trkpt lat="49.13547" lon="6.88501">
        <ele>330</ele>
        <time>2013-10-23T10:06:28Z</time>
      </trkpt>
      <trkpt lat="49.1355" lon="6.88506">
        <ele>330.6</ele>
        <time>2013-10-23T10:06:33Z</time>
      </trkpt>
      <trkpt lat="49.13554" lon="6.88511">
        <ele>330.8</ele>
        <time>2013-10-23T10:06:38Z</time>
      </trkpt>
      <trkpt lat="49.13557" lon="6.88516">
        <ele>331.6</ele>
        <time>2013-10-23T10:06:43Z</time>
      </trkpt>
      <trkpt lat="49.13562" lon="6.88521">
        <ele>331.5</ele>
        <time>2013-10-23T10:06:48Z</time>
      </trkpt>
      <trkpt lat="49.13565" lon="6.88526">
        <ele>332.2</ele>
        <time>2013-10-23T10:06:53Z</time>
      </trkpt>
      <trkpt lat="49.13569" lon="6.88529">
        <ele>332.5</ele>
        <time>2013-10-23T10:06:58Z</time>
      </trkpt>
      <trkpt lat="49.13574" lon="6.88533">
        <ele>333.4</ele>
        <time>2013-10-23T10:07:03Z</time>
      </trkpt>
      <trkpt lat="49.13579" lon="6.88537">
        <ele>333.8</ele>
        <time>2013-10-23T10:07:08Z</time>
      </trkpt>
      <trkpt lat="49.13583" lon="6.88543">
        <ele>333.8</ele>
        <time>2013-10-23T10:07:13Z</time>
      </trkpt>
      <trkpt lat="49.13591" lon="6.88554">
        <ele>335</ele>
        <time>2013-10-23T10:07:23Z</time>
      </trkpt>
      <trkpt lat="49.13596" lon="6.88561">
        <ele>336</ele>
        <time>2013-10-23T10:07:28Z</time>
      </trkpt>
      <trkpt lat="49.136" lon="6.88568">
        <ele>335.8</ele>
        <time>2013-10-23T10:07:33Z</time>
      </trkpt>
      <trkpt lat="49.13604" lon="6.88574">
        <ele>335.8</ele>
        <time>2013-10-23T10:07:38Z</time>
      </trkpt>
      <trkpt lat="49.13609" lon="6.88579">
        <ele>336.1</ele>
        <time>2013-10-23T10:07:43Z</time>
      </trkpt>
      <trkpt lat="49.13613" lon="6.88584">
        <ele>336.9</ele>
        <time>2013-10-23T10:07:48Z</time>
      </trkpt>
      <trkpt lat="49.13615" lon="6.88589">
        <ele>337.3</ele>
        <time>2013-10-23T10:07:53Z</time>
      </trkpt>
      <trkpt lat="49.13615" lon="6.88595">
        <ele>338.4</ele>
        <time>2013-10-23T10:07:58Z</time>
      </trkpt>
      <trkpt lat="49.13616" lon="6.88598">
        <ele>338.5</ele>
        <time>2013-10-23T10:08:03Z</time>
      </trkpt>
      <trkpt lat="49.13616" lon="6.886">
        <ele>338.7</ele>
        <time>2013-10-23T10:08:08Z</time>
      </trkpt>
      <trkpt lat="49.13615" lon="6.88602">
        <ele>338.4</ele>
        <time>2013-10-23T10:08:13Z</time>
      </trkpt>
      <trkpt lat="49.13614" lon="6.88605">
        <ele>338.9</ele>
        <time>2013-10-23T10:08:18Z</time>
      </trkpt>
      <trkpt lat="49.13608" lon="6.88613">
        <ele>338.3</ele>
        <time>2013-10-23T10:08:28Z</time>
      </trkpt>
      <trkpt lat="49.13605" lon="6.88618">
        <ele>337.5</ele>
        <time>2013-10-23T10:08:33Z</time>
      </trkpt>
      <trkpt lat="49.13604" lon="6.8862">
        <ele>338.3</ele>
        <time>2013-10-23T10:08:38Z</time>
      </trkpt>
      <trkpt lat="49.136" lon="6.88626">
        <ele>337.7</ele>
        <time>2013-10-23T10:08:43Z</time>
      </trkpt>
      <trkpt lat="49.13596" lon="6.88632">
        <ele>337.6</ele>
        <time>2013-10-23T10:08:48Z</time>
      </trkpt>
      <trkpt lat="49.13592" lon="6.88637">
        <ele>336.9</ele>
        <time>2013-10-23T10:08:53Z</time>
      </trkpt>
      <trkpt lat="49.13588" lon="6.88642">
        <ele>336.8</ele>
        <time>2013-10-23T10:08:58Z</time>
      </trkpt>
      <trkpt lat="49.13585" lon="6.88648">
        <ele>336.5</ele>
        <time>2013-10-23T10:09:03Z</time>
      </trkpt>
      <trkpt lat="49.13581" lon="6.88654">
        <ele>336</ele>
        <time>2013-10-23T10:09:08Z</time>
      </trkpt>
      <trkpt lat="49.13577" lon="6.88662">
        <ele>335.5</ele>
        <time>2013-10-23T10:09:13Z</time>
      </trkpt>
      <trkpt lat="49.13573" lon="6.8867">
        <ele>335.3</ele>
        <time>2013-10-23T10:09:18Z</time>
      </trkpt>
      <trkpt lat="49.13569" lon="6.88678">
        <ele>334.4</ele>
        <time>2013-10-23T10:09:23Z</time>
      </trkpt>
      <trkpt lat="49.13561" lon="6.88692">
        <ele>334.3</ele>
        <time>2013-10-23T10:09:33Z</time>
      </trkpt>
      <trkpt lat="49.13556" lon="6.88699">
        <ele>334</ele>
        <time>2013-10-23T10:09:38Z</time>
      </trkpt>
      <trkpt lat="49.13552" lon="6.88705">
        <ele>333.3</ele>
        <time>2013-10-23T10:09:43Z</time>
      </trkpt>
      <trkpt lat="49.13548" lon="6.88711">
        <ele>333.4</ele>
        <time>2013-10-23T10:09:48Z</time>
      </trkpt>
      <trkpt lat="49.13544" lon="6.88716">
        <ele>331.6</ele>
        <time>2013-10-23T10:09:53Z</time>
      </trkpt>
      <trkpt lat="49.1354" lon="6.88721">
        <ele>330.9</ele>
        <time>2013-10-23T10:09:58Z</time>
      </trkpt>
      <trkpt lat="49.13536" lon="6.88726">
        <ele>331.2</ele>
        <time>2013-10-23T10:10:03Z</time>
      </trkpt>
      <trkpt lat="49.13532" lon="6.88733">
        <ele>330.9</ele>
        <time>2013-10-23T10:10:08Z</time>
      </trkpt>
      <trkpt lat="49.13528" lon="6.88738">
        <ele>330.7</ele>
        <time>2013-10-23T10:10:13Z</time>
      </trkpt>
      <trkpt lat="49.13524" lon="6.88744">
        <ele>330</ele>
        <time>2013-10-23T10:10:18Z</time>
      </trkpt>
      <trkpt lat="49.13519" lon="6.88748">
        <ele>329.9</ele>
        <time>2013-10-23T10:10:23Z</time>
      </trkpt>
      <trkpt lat="49.13514" lon="6.88751">
        <ele>329.8</ele>
        <time>2013-10-23T10:10:28Z</time>
      </trkpt>
      <trkpt lat="49.13503" lon="6.8876">
        <ele>329</ele>
        <time>2013-10-23T10:10:38Z</time>
      </trkpt>
      <trkpt lat="49.13497" lon="6.88763">
        <ele>328.1</ele>
        <time>2013-10-23T10:10:43Z</time>
      </trkpt>
      <trkpt lat="49.13491" lon="6.88767">
        <ele>328.1</ele>
        <time>2013-10-23T10:10:48Z</time>
      </trkpt>
      <trkpt lat="49.13485" lon="6.88771">
        <ele>327.7</ele>
        <time>2013-10-23T10:10:53Z</time>
      </trkpt>
      <trkpt lat="49.13479" lon="6.88776">
        <ele>327.6</ele>
        <time>2013-10-23T10:10:58Z</time>
      </trkpt>
      <trkpt lat="49.13473" lon="6.88781">
        <ele>326.5</ele>
        <time>2013-10-23T10:11:03Z</time>
      </trkpt>
      <trkpt lat="49.13468" lon="6.88785">
        <ele>326</ele>
        <time>2013-10-23T10:11:08Z</time>
      </trkpt>
      <trkpt lat="49.13462" lon="6.8879">
        <ele>325.7</ele>
        <time>2013-10-23T10:11:13Z</time>
      </trkpt>
      <trkpt lat="49.13456" lon="6.88794">
        <ele>325</ele>
        <time>2013-10-23T10:11:18Z</time>
      </trkpt>
      <trkpt lat="49.13451" lon="6.88798">
        <ele>324</ele>
        <time>2013-10-23T10:11:23Z</time>
      </trkpt>
      <trkpt lat="49.13447" lon="6.88802">
        <ele>323.4</ele>
        <time>2013-10-23T10:11:28Z</time>
      </trkpt>
      <trkpt lat="49.13442" lon="6.88806">
        <ele>322.5</ele>
        <time>2013-10-23T10:11:33Z</time>
      </trkpt>
      <trkpt lat="49.1343" lon="6.88812">
        <ele>321.6</ele>
        <time>2013-10-23T10:11:43Z</time>
      </trkpt>
      <trkpt lat="49.13425" lon="6.88815">
        <ele>321.1</ele>
        <time>2013-10-23T10:11:48Z</time>
      </trkpt>
      <trkpt lat="49.13423" lon="6.88819">
        <ele>320.6</ele>
        <time>2013-10-23T10:11:53Z</time>
      </trkpt>
      <trkpt lat="49.13418" lon="6.88823">
        <ele>320.3</ele>
        <time>2013-10-23T10:11:58Z</time>
      </trkpt>
      <trkpt lat="49.13412" lon="6.88826">
        <ele>318.9</ele>
        <time>2013-10-23T10:12:03Z</time>
      </trkpt>
      <trkpt lat="49.13408" lon="6.8883">
        <ele>319</ele>
        <time>2013-10-23T10:12:08Z</time>
      </trkpt>
      <trkpt lat="49.13402" lon="6.88833">
        <ele>317.9</ele>
        <time>2013-10-23T10:12:13Z</time>
      </trkpt>
      <trkpt lat="49.13397" lon="6.88837">
        <ele>318.3</ele>
        <time>2013-10-23T10:12:18Z</time>
      </trkpt>
      <trkpt lat="49.13392" lon="6.88842">
        <ele>317.6</ele>
        <time>2013-10-23T10:12:23Z</time>
      </trkpt>
      <trkpt lat="49.13388" lon="6.88845">
        <ele>317.3</ele>
        <time>2013-10-23T10:12:28Z</time>
      </trkpt>
      <trkpt lat="49.13384" lon="6.8885">
        <ele>316.7</ele>
        <time>2013-10-23T10:12:33Z</time>
      </trkpt>
      <trkpt lat="49.13379" lon="6.88857">
        <ele>315.7</ele>
        <time>2013-10-23T10:12:38Z</time>
      </trkpt>
      <trkpt lat="49.13369" lon="6.88867">
        <ele>315.1</ele>
        <time>2013-10-23T10:12:48Z</time>
      </trkpt>
      <trkpt lat="49.13364" lon="6.88872">
        <ele>314.7</ele>
        <time>2013-10-23T10:12:53Z</time>
      </trkpt>
      <trkpt lat="49.13358" lon="6.88877">
        <ele>314.4</ele>
        <time>2013-10-23T10:12:58Z</time>
      </trkpt>
      <trkpt lat="49.13353" lon="6.88882">
        <ele>313.2</ele>
        <time>2013-10-23T10:13:03Z</time>
      </trkpt>
      <trkpt lat="49.13348" lon="6.88887">
        <ele>312.8</ele>
        <time>2013-10-23T10:13:08Z</time>
      </trkpt>
      <trkpt lat="49.13343" lon="6.88892">
        <ele>312</ele>
        <time>2013-10-23T10:13:13Z</time>
      </trkpt>
      <trkpt lat="49.13339" lon="6.88898">
        <ele>311.7</ele>
        <time>2013-10-23T10:13:18Z</time>
      </trkpt>
      <trkpt lat="49.13335" lon="6.88904">
        <ele>311.7</ele>
        <time>2013-10-23T10:13:23Z</time>
      </trkpt>
      <trkpt lat="49.1333" lon="6.88909">
        <ele>311</ele>
        <time>2013-10-23T10:13:28Z</time>
      </trkpt>
      <trkpt lat="49.13325" lon="6.88914">
        <ele>310.5</ele>
        <time>2013-10-23T10:13:33Z</time>
      </trkpt>
      <trkpt lat="49.13321" lon="6.88919">
        <ele>309.8</ele>
        <time>2013-10-23T10:13:38Z</time>
      </trkpt>
      <trkpt lat="49.13317" lon="6.88924">
        <ele>309.4</ele>
        <time>2013-10-23T10:13:43Z</time>
      </trkpt>
      <trkpt lat="49.13309" lon="6.88933">
        <ele>308.8</ele>
        <time>2013-10-23T10:13:53Z</time>
      </trkpt>
      <trkpt lat="49.13303" lon="6.88935">
        <ele>308.1</ele>
        <time>2013-10-23T10:13:58Z</time>
      </trkpt>
      <trkpt lat="49.13297" lon="6.88937">
        <ele>307.6</ele>
        <time>2013-10-23T10:14:03Z</time>
      </trkpt>
      <trkpt lat="49.1329" lon="6.88939">
        <ele>307.3</ele>
        <time>2013-10-23T10:14:08Z</time>
      </trkpt>
      <trkpt lat="49.13286" lon="6.88942">
        <ele>307.1</ele>
        <time>2013-10-23T10:14:13Z</time>
      </trkpt>
      <trkpt lat="49.13281" lon="6.88946">
        <ele>306.7</ele>
        <time>2013-10-23T10:14:18Z</time>
      </trkpt>
      <trkpt lat="49.13278" lon="6.88951">
        <ele>306.7</ele>
        <time>2013-10-23T10:14:23Z</time>
      </trkpt>
      <trkpt lat="49.13272" lon="6.88953">
        <ele>305.6</ele>
        <time>2013-10-23T10:14:28Z</time>
      </trkpt>
      <trkpt lat="49.13266" lon="6.88953">
        <ele>305.4</ele>
        <time>2013-10-23T10:14:33Z</time>
      </trkpt>
      <trkpt lat="49.13259" lon="6.88954">
        <ele>304.7</ele>
        <time>2013-10-23T10:14:38Z</time>
      </trkpt>
      <trkpt lat="49.13253" lon="6.88955">
        <ele>304.3</ele>
        <time>2013-10-23T10:14:43Z</time>
      </trkpt>
      <trkpt lat="49.13247" lon="6.88957">
        <ele>303.8</ele>
        <time>2013-10-23T10:14:48Z</time>
      </trkpt>
      <trkpt lat="49.13235" lon="6.88962">
        <ele>301.9</ele>
        <time>2013-10-23T10:14:58Z</time>
      </trkpt>
      <trkpt lat="49.13229" lon="6.88965">
        <ele>302</ele>
        <time>2013-10-23T10:15:03Z</time>
      </trkpt>
      <trkpt lat="49.13224" lon="6.88969">
        <ele>301.7</ele>
        <time>2013-10-23T10:15:08Z</time>
      </trkpt>
      <trkpt lat="49.13219" lon="6.88974">
        <ele>301.1</ele>
        <time>2013-10-23T10:15:13Z</time>
      </trkpt>
      <trkpt lat="49.13214" lon="6.88978">
        <ele>301.1</ele>
        <time>2013-10-23T10:15:18Z</time>
      </trkpt>
      <trkpt lat="49.13209" lon="6.88982">
        <ele>301</ele>
        <time>2013-10-23T10:15:23Z</time>
      </trkpt>
      <trkpt lat="49.13204" lon="6.88986">
        <ele>301.3</ele>
        <time>2013-10-23T10:15:28Z</time>
      </trkpt>
      <trkpt lat="49.13198" lon="6.88987">
        <ele>300.9</ele>
        <time>2013-10-23T10:15:33Z</time>
      </trkpt>
      <trkpt lat="49.13193" lon="6.8899">
        <ele>300.5</ele>
        <time>2013-10-23T10:15:38Z</time>
      </trkpt>
      <trkpt lat="49.13187" lon="6.88993">
        <ele>299.4</ele>
        <time>2013-10-23T10:15:43Z</time>
      </trkpt>
      <trkpt lat="49.13181" lon="6.88996">
        <ele>299.4</ele>
        <time>2013-10-23T10:15:48Z</time>
      </trkpt>
      <trkpt lat="49.13176" lon="6.88998">
        <ele>298.4</ele>
        <time>2013-10-23T10:15:53Z</time>
      </trkpt>
      <trkpt lat="49.13164" lon="6.89002">
        <ele>298.1</ele>
        <time>2013-10-23T10:16:03Z</time>
      </trkpt>
      <trkpt lat="49.13158" lon="6.89003">
        <ele>298</ele>
        <time>2013-10-23T10:16:08Z</time>
      </trkpt>
      <trkpt lat="49.13151" lon="6.89005">
        <ele>297.6</ele>
        <time>2013-10-23T10:16:13Z</time>
      </trkpt>
      <trkpt lat="49.13144" lon="6.89006">
        <ele>296.3</ele>
        <time>2013-10-23T10:16:18Z</time>
      </trkpt>
      <trkpt lat="49.13138" lon="6.89008">
        <ele>295.5</ele>
        <time>2013-10-23T10:16:23Z</time>
      </trkpt>
      <trkpt lat="49.13131" lon="6.8901">
        <ele>295</ele>
        <time>2013-10-23T10:16:28Z</time>
      </trkpt>
      <trkpt lat="49.13125" lon="6.89012">
        <ele>295.5</ele>
        <time>2013-10-23T10:16:33Z</time>
      </trkpt>
      <trkpt lat="49.13118" lon="6.89014">
        <ele>294.7</ele>
        <time>2013-10-23T10:16:38Z</time>
      </trkpt>
      <trkpt lat="49.13113" lon="6.89016">
        <ele>294.4</ele>
        <time>2013-10-23T10:16:43Z</time>
      </trkpt>
      <trkpt lat="49.13108" lon="6.89018">
        <ele>293.5</ele>
        <time>2013-10-23T10:16:48Z</time>
      </trkpt>
      <trkpt lat="49.13102" lon="6.89021">
        <ele>292.9</ele>
        <time>2013-10-23T10:16:53Z</time>
      </trkpt>
      <trkpt lat="49.13097" lon="6.89023">
        <ele>291.1</ele>
        <time>2013-10-23T10:16:58Z</time>
      </trkpt>
      <trkpt lat="49.13086" lon="6.89027">
        <ele>290.1</ele>
        <time>2013-10-23T10:17:08Z</time>
      </trkpt>
      <trkpt lat="49.1308" lon="6.89029">
        <ele>290.5</ele>
        <time>2013-10-23T10:17:13Z</time>
      </trkpt>
      <trkpt lat="49.13075" lon="6.89032">
        <ele>291.2</ele>
        <time>2013-10-23T10:17:18Z</time>
      </trkpt>
      <trkpt lat="49.1307" lon="6.89036">
        <ele>289.6</ele>
        <time>2013-10-23T10:17:23Z</time>
      </trkpt>
      <trkpt lat="49.13067" lon="6.89042">
        <ele>290.4</ele>
        <time>2013-10-23T10:17:28Z</time>
      </trkpt>
      <trkpt lat="49.13065" lon="6.8905">
        <ele>289.7</ele>
        <time>2013-10-23T10:17:33Z</time>
      </trkpt>
      <trkpt lat="49.13063" lon="6.89057">
        <ele>289.3</ele>
        <time>2013-10-23T10:17:38Z</time>
      </trkpt>
      <trkpt lat="49.1306" lon="6.89064">
        <ele>289.8</ele>
        <time>2013-10-23T10:17:43Z</time>
      </trkpt>
      <trkpt lat="49.13058" lon="6.89072">
        <ele>289.7</ele>
        <time>2013-10-23T10:17:48Z</time>
      </trkpt>
      <trkpt lat="49.13055" lon="6.8908">
        <ele>289.3</ele>
        <time>2013-10-23T10:17:53Z</time>
      </trkpt>
      <trkpt lat="49.13053" lon="6.89087">
        <ele>289.9</ele>
        <time>2013-10-23T10:17:58Z</time>
      </trkpt>
      <trkpt lat="49.13051" lon="6.89094">
        <ele>289.7</ele>
        <time>2013-10-23T10:18:03Z</time>
      </trkpt>
      <trkpt lat="49.13046" lon="6.8911">
        <ele>289.7</ele>
        <time>2013-10-23T10:18:13Z</time>
      </trkpt>
      <trkpt lat="49.13044" lon="6.89117">
        <ele>290</ele>
        <time>2013-10-23T10:18:18Z</time>
      </trkpt>
      <trkpt lat="49.13041" lon="6.89123">
        <ele>290.2</ele>
        <time>2013-10-23T10:18:23Z</time>
      </trkpt>
      <trkpt lat="49.13038" lon="6.8913">
        <ele>290.2</ele>
        <time>2013-10-23T10:18:28Z</time>
      </trkpt>
      <trkpt lat="49.13035" lon="6.89139">
        <ele>289.6</ele>
        <time>2013-10-23T10:18:33Z</time>
      </trkpt>
      <trkpt lat="49.13033" lon="6.89147">
        <ele>289.6</ele>
        <time>2013-10-23T10:18:38Z</time>
      </trkpt>
      <trkpt lat="49.13031" lon="6.89156">
        <ele>289.9</ele>
        <time>2013-10-23T10:18:43Z</time>
      </trkpt>
      <trkpt lat="49.13028" lon="6.89163">
        <ele>291</ele>
        <time>2013-10-23T10:18:48Z</time>
      </trkpt>
      <trkpt lat="49.13026" lon="6.8917">
        <ele>291</ele>
        <time>2013-10-23T10:18:53Z</time>
      </trkpt>
      <trkpt lat="49.13023" lon="6.89177">
        <ele>289.9</ele>
        <time>2013-10-23T10:18:58Z</time>
      </trkpt>
      <trkpt lat="49.13019" lon="6.89183">
        <ele>290.5</ele>
        <time>2013-10-23T10:19:03Z</time>
      </trkpt>
      <trkpt lat="49.13015" lon="6.89189">
        <ele>290.8</ele>
        <time>2013-10-23T10:19:08Z</time>
      </trkpt>
      <trkpt lat="49.13009" lon="6.89206">
        <ele>290.9</ele>
        <time>2013-10-23T10:19:18Z</time>
      </trkpt>
      <trkpt lat="49.13007" lon="6.89214">
        <ele>291.6</ele>
        <time>2013-10-23T10:19:23Z</time>
      </trkpt>
      <trkpt lat="49.13004" lon="6.89223">
        <ele>290.7</ele>
        <time>2013-10-23T10:19:28Z</time>
      </trkpt>
      <trkpt lat="49.13002" lon="6.8923">
        <ele>290.8</ele>
        <time>2013-10-23T10:19:33Z</time>
      </trkpt>
      <trkpt lat="49.12999" lon="6.89238">
        <ele>290.4</ele>
        <time>2013-10-23T10:19:38Z</time>
      </trkpt>
      <trkpt lat="49.12997" lon="6.89244">
        <ele>290.9</ele>
        <time>2013-10-23T10:19:43Z</time>
      </trkpt>
      <trkpt lat="49.12994" lon="6.89249">
        <ele>291.1</ele>
        <time>2013-10-23T10:19:48Z</time>
      </trkpt>
      <trkpt lat="49.12986" lon="6.89254">
        <ele>291.2</ele>
        <time>2013-10-23T10:19:53Z</time>
      </trkpt>
      <trkpt lat="49.12983" lon="6.89261">
        <ele>291.4</ele>
        <time>2013-10-23T10:19:58Z</time>
      </trkpt>
      <trkpt lat="49.12979" lon="6.89268">
        <ele>291.5</ele>
        <time>2013-10-23T10:20:03Z</time>
      </trkpt>
      <trkpt lat="49.12977" lon="6.89278">
        <ele>291.1</ele>
        <time>2013-10-23T10:20:08Z</time>
      </trkpt>
      <trkpt lat="49.12974" lon="6.89288">
        <ele>291.5</ele>
        <time>2013-10-23T10:20:13Z</time>
      </trkpt>
      <trkpt lat="49.12972" lon="6.89309">
        <ele>292.4</ele>
        <time>2013-10-23T10:20:23Z</time>
      </trkpt>
      <trkpt lat="49.12971" lon="6.89318">
        <ele>292.1</ele>
        <time>2013-10-23T10:20:28Z</time>
      </trkpt>
      <trkpt lat="49.12969" lon="6.89327">
        <ele>291.5</ele>
        <time>2013-10-23T10:20:33Z</time>
      </trkpt>
      <trkpt lat="49.12967" lon="6.89335">
        <ele>292.1</ele>
        <time>2013-10-23T10:20:38Z</time>
      </trkpt>
      <trkpt lat="49.12966" lon="6.89343">
        <ele>291.9</ele>
        <time>2013-10-23T10:20:43Z</time>
      </trkpt>
      <trkpt lat="49.12963" lon="6.89352">
        <ele>292.2</ele>
        <time>2013-10-23T10:20:48Z</time>
      </trkpt>
      <trkpt lat="49.12961" lon="6.8936">
        <ele>292.2</ele>
        <time>2013-10-23T10:20:53Z</time>
      </trkpt>
      <trkpt lat="49.12956" lon="6.89365">
        <ele>292</ele>
        <time>2013-10-23T10:20:58Z</time>
      </trkpt>
      <trkpt lat="49.12953" lon="6.89369">
        <ele>291.7</ele>
        <time>2013-10-23T10:21:03Z</time>
      </trkpt>
      <trkpt lat="49.12948" lon="6.89377">
        <ele>292.2</ele>
        <time>2013-10-23T10:21:08Z</time>
      </trkpt>
      <trkpt lat="49.12945" lon="6.89384">
        <ele>292.3</ele>
        <time>2013-10-23T10:21:13Z</time>
      </trkpt>
      <trkpt lat="49.12943" lon="6.89391">
        <ele>292.1</ele>
        <time>2013-10-23T10:21:18Z</time>
      </trkpt>
      <trkpt lat="49.1294" lon="6.89403">
        <ele>292.2</ele>
        <time>2013-10-23T10:21:28Z</time>
      </trkpt>
      <trkpt lat="49.1294" lon="6.89408">
        <ele>292.4</ele>
        <time>2013-10-23T10:21:33Z</time>
      </trkpt>
      <trkpt lat="49.12939" lon="6.8941">
        <ele>291.7</ele>
        <time>2013-10-23T10:21:38Z</time>
      </trkpt>
      <trkpt lat="49.12937" lon="6.89412">
        <ele>292.3</ele>
        <time>2013-10-23T10:21:43Z</time>
      </trkpt>
      <trkpt lat="49.12937" lon="6.89412">
        <ele>292.3</ele>
        <time>2013-10-23T10:21:43Z</time>
      </trkpt>
    </trkseg>
  </trk>
</gpx>